Time,TemperatureF,DewpointF,PressureIn,WindDirection,WindDirectionDegrees,WindSpeedMPH,WindSpeedGustMPH,Humidity,HourlyPrecipIn,Conditions,Clouds,dailyrainin,SoftwareType,DateUTC
2013-04-15 00:00:00,68.9,49.5,29.97,North,0,0.0,0.0,50,0.00,,---,0.00,VWS V14.01,2013-04-15 04:00:00,
2013-04-15 00:01:00,68.9,50.0,29.97,NNW,338,0.0,0.0,51,0.00,,---,0.00,VWS V14.01,2013-04-15 04:01:00,
2013-04-15 00:02:00,68.9,49.5,29.97,WNW,292,0.0,0.0,50,0.00,,---,0.00,VWS V14.01,2013-04-15 04:02:00,
2013-04-15 00:03:00,68.9,49.5,29.97,WNW,292,0.0,0.0,50,0.00,,---,0.00,VWS V14.01,2013-04-15 04:03:00,
2013-04-15 00:04:00,68.9,49.5,29.97,NE,45,0.0,0.0,50,0.00,,---,0.00,VWS V14.01,2013-04-15 04:04:00,
2013-04-15 00:05:00,69.1,49.7,29.97,NE,45,0.0,0.0,50,0.00,,---,0.00,VWS V14.01,2013-04-15 04:05:00,
2013-04-15 00:06:00,68.9,49.5,29.97,NNW,338,0.0,0.0,50,0.00,,---,0.00,VWS V14.01,2013-04-15 04:06:00,
2013-04-15 00:07:00,68.9,49.5,29.97,NE,45,0.0,0.0,50,0.00,,---,0.00,VWS V14.01,2013-04-15 04:07:00,
2013-04-15 00:08:00,68.9,49.5,29.97,NNE,22,0.0,2.5,50,0.00,,---,0.00,VWS V14.01,2013-04-15 04:08:00,
2013-04-15 00:09:00,69.1,49.7,29.97,ENE,68,0.0,0.0,50,0.00,,---,0.00,VWS V14.01,2013-04-15 04:09:00,
2013-04-15 00:10:00,69.1,49.7,29.97,WNW,292,0.0,0.0,50,0.00,,---,0.00,VWS V14.01,2013-04-15 04:10:00,
2013-04-15 00:11:00,69.1,49.7,29.97,North,0,1.1,1.1,50,0.00,,---,0.00,VWS V14.01,2013-04-15 04:11:00,
2013-04-15 00:12:00,69.1,49.7,29.97,SSW,202,0.0,1.1,50,0.00,,---,0.00,VWS V14.01,2013-04-15 04:12:00,
2013-04-15 00:13:00,69.1,49.7,29.97,WNW,292,0.0,0.0,50,0.00,,---,0.00,VWS V14.01,2013-04-15 04:13:00,
2013-04-15 00:14:00,69.1,49.7,29.97,WSW,248,0.0,0.0,50,0.00,,---,0.00,VWS V14.01,2013-04-15 04:14:00,
2013-04-15 00:15:00,69.1,49.7,29.97,WNW,292,0.0,0.0,50,0.00,,---,0.00,VWS V14.01,2013-04-15 04:15:00,
2013-04-15 00:16:00,69.1,49.7,29.97,WNW,292,0.0,0.0,50,0.00,,---,0.00,VWS V14.01,2013-04-15 04:16:00,
2013-04-15 00:17:00,69.1,49.7,29.97,NNW,338,0.0,3.4,50,0.00,,---,0.00,VWS V14.01,2013-04-15 04:17:00,
2013-04-15 00:18:00,69.1,49.7,29.97,WNW,292,0.0,0.0,50,0.00,,---,0.00,VWS V14.01,2013-04-15 04:18:00,
2013-04-15 00:19:00,69.1,49.1,29.97,NW,315,0.0,0.0,49,0.00,,---,0.00,VWS V14.01,2013-04-15 04:19:00,
2013-04-15 00:20:00,69.1,49.7,29.97,WSW,248,0.0,0.0,50,0.00,,---,0.00,VWS V14.01,2013-04-15 04:20:00,
2013-04-15 00:21:00,69.1,49.7,29.97,WNW,292,0.0,0.0,50,0.00,,---,0.00,VWS V14.01,2013-04-15 04:21:00,
2013-04-15 00:22:00,68.9,49.5,29.97,WNW,292,1.6,1.6,50,0.00,,---,0.00,VWS V14.01,2013-04-15 04:22:00,
2013-04-15 00:23:00,69.1,49.1,29.97,NNE,22,0.0,2.0,49,0.00,,---,0.00,VWS V14.01,2013-04-15 04:23:00,
2013-04-15 00:24:00,68.9,49.5,29.97,WSW,248,0.0,0.0,50,0.00,,---,0.00,VWS V14.01,2013-04-15 04:24:00,
2013-04-15 00:25:00,68.9,49.5,29.94,NNW,338,0.0,0.0,50,0.00,,---,0.00,VWS V14.01,2013-04-15 04:25:00,
2013-04-15 00:26:00,68.9,49.5,29.97,NNW,338,0.0,0.0,50,0.00,,---,0.00,VWS V14.01,2013-04-15 04:26:00,
2013-04-15 00:27:00,68.9,49.5,29.94,NNW,338,0.0,0.0,50,0.00,,---,0.00,VWS V14.01,2013-04-15 04:27:00,
2013-04-15 00:28:00,68.9,49.5,29.94,NNW,338,0.0,0.0,50,0.00,,---,0.00,VWS V14.01,2013-04-15 04:28:00,
2013-04-15 00:29:00,68.9,49.5,29.94,NNW,338,0.0,0.0,50,0.00,,---,0.00,VWS V14.01,2013-04-15 04:29:00,
2013-04-15 00:30:00,68.7,49.3,29.94,WNW,292,0.0,0.0,50,0.00,,---,0.00,VWS V14.01,2013-04-15 04:30:00,
2013-04-15 00:31:00,68.9,49.5,29.94,NNW,338,0.0,0.0,50,0.00,,---,0.00,VWS V14.01,2013-04-15 04:31:00,
2013-04-15 00:32:00,68.9,49.5,29.94,WNW,292,0.0,0.0,50,0.00,,---,0.00,VWS V14.01,2013-04-15 04:32:00,
2013-04-15 00:33:00,68.7,49.3,29.94,WNW,292,0.0,0.0,50,0.00,,---,0.00,VWS V14.01,2013-04-15 04:33:00,
2013-04-15 00:34:00,68.7,49.9,29.94,NNE,22,0.0,0.0,51,0.00,,---,0.00,VWS V14.01,2013-04-15 04:34:00,
2013-04-15 00:35:00,68.7,49.9,29.94,North,0,0.0,0.0,51,0.00,,---,0.00,VWS V14.01,2013-04-15 04:35:00,
2013-04-15 00:36:00,68.7,49.9,29.94,NNW,338,0.0,0.0,51,0.00,,---,0.00,VWS V14.01,2013-04-15 04:36:00,
2013-04-15 00:37:00,68.7,49.9,29.94,NNE,22,0.0,0.0,51,0.00,,---,0.00,VWS V14.01,2013-04-15 04:37:00,
2013-04-15 00:38:00,68.7,49.9,29.94,North,0,0.0,0.0,51,0.00,,---,0.00,VWS V14.01,2013-04-15 04:38:00,
2013-04-15 00:39:00,68.7,49.9,29.94,North,0,0.0,0.0,51,0.00,,---,0.00,VWS V14.01,2013-04-15 04:39:00,
2013-04-15 00:40:00,68.5,49.7,29.97,NNW,338,0.0,0.0,51,0.00,,---,0.00,VWS V14.01,2013-04-15 04:40:00,
2013-04-15 00:41:00,68.5,49.7,29.94,NNE,22,0.0,0.0,51,0.00,,---,0.00,VWS V14.01,2013-04-15 04:41:00,
2013-04-15 00:42:00,68.5,49.7,29.97,WSW,248,0.0,0.0,51,0.00,,---,0.00,VWS V14.01,2013-04-15 04:42:00,
2013-04-15 00:43:00,68.5,49.7,29.97,NNW,338,0.0,0.0,51,0.00,,---,0.00,VWS V14.01,2013-04-15 04:43:00,
2013-04-15 00:44:00,68.7,49.9,29.97,WNW,292,0.0,0.0,51,0.00,,---,0.00,VWS V14.01,2013-04-15 04:44:00,
2013-04-15 00:45:00,68.7,50.4,29.97,North,0,0.0,0.0,52,0.00,,---,0.00,VWS V14.01,2013-04-15 04:45:00,
2013-04-15 00:46:00,68.7,50.4,29.97,NNW,338,0.0,0.0,52,0.00,,---,0.00,VWS V14.01,2013-04-15 04:46:00,
2013-04-15 00:47:00,68.7,50.4,29.97,NE,45,0.0,0.0,52,0.00,,---,0.00,VWS V14.01,2013-04-15 04:47:00,
2013-04-15 00:48:00,68.7,50.4,29.97,ENE,68,0.0,0.0,52,0.00,,---,0.00,VWS V14.01,2013-04-15 04:48:00,
2013-04-15 00:49:00,68.5,50.2,29.97,ENE,68,0.0,0.0,52,0.00,,---,0.00,VWS V14.01,2013-04-15 04:49:00,
2013-04-15 00:50:00,68.5,50.8,29.97,West,270,0.0,0.0,53,0.00,,---,0.00,VWS V14.01,2013-04-15 04:50:00,
2013-04-15 00:51:00,68.5,50.2,29.97,ENE,68,0.0,0.0,52,0.00,,---,0.00,VWS V14.01,2013-04-15 04:51:00,
2013-04-15 00:52:00,68.5,50.2,29.97,ENE,68,0.0,0.0,52,0.00,,---,0.00,VWS V14.01,2013-04-15 04:52:00,
2013-04-15 00:53:00,68.5,50.2,29.97,ENE,68,0.0,0.0,52,0.00,,---,0.00,VWS V14.01,2013-04-15 04:53:00,
2013-04-15 00:54:00,68.5,50.8,29.97,West,270,0.0,0.0,53,0.00,,---,0.00,VWS V14.01,2013-04-15 04:54:00,
2013-04-15 00:55:00,68.5,50.8,29.97,ENE,68,0.0,0.0,53,0.00,,---,0.00,VWS V14.01,2013-04-15 04:55:00,
2013-04-15 00:56:00,68.5,50.8,29.97,NNE,22,0.0,0.0,53,0.00,,---,0.00,VWS V14.01,2013-04-15 04:56:00,
2013-04-15 00:57:00,68.5,50.8,29.97,ENE,68,0.0,0.0,53,0.00,,---,0.00,VWS V14.01,2013-04-15 04:57:00,
2013-04-15 00:58:00,68.5,50.8,29.97,ENE,68,0.0,0.0,53,0.00,,---,0.00,VWS V14.01,2013-04-15 04:58:00,
2013-04-15 00:59:00,68.5,50.8,29.97,ENE,68,0.0,0.0,53,0.00,,---,0.00,VWS V14.01,2013-04-15 04:59:00,
2013-04-15 01:00:00,68.5,50.8,29.97,NNE,22,0.0,0.0,53,0.00,,---,0.00,VWS V14.01,2013-04-15 05:00:00,
2013-04-15 01:01:00,68.5,50.8,29.97,NNE,22,0.0,0.0,53,0.00,,---,0.00,VWS V14.01,2013-04-15 05:01:00,
2013-04-15 01:02:00,68.5,50.8,29.97,NNE,22,0.0,0.0,53,0.00,,---,0.00,VWS V14.01,2013-04-15 05:02:00,
2013-04-15 01:03:00,68.5,50.8,29.97,NNE,22,0.0,0.0,53,0.00,,---,0.00,VWS V14.01,2013-04-15 05:03:00,
2013-04-15 01:04:00,68.5,50.8,29.97,NNE,22,0.0,0.0,53,0.00,,---,0.00,VWS V14.01,2013-04-15 05:04:00,
2013-04-15 01:05:00,68.4,51.1,29.97,NNE,22,0.0,0.0,54,0.00,,---,0.00,VWS V14.01,2013-04-15 05:05:00,
2013-04-15 01:06:00,68.4,51.1,29.97,NNE,22,0.0,0.0,54,0.00,,---,0.00,VWS V14.01,2013-04-15 05:06:00,
2013-04-15 01:07:00,68.4,51.1,29.97,NNE,22,0.0,0.0,54,0.00,,---,0.00,VWS V14.01,2013-04-15 05:07:00,
2013-04-15 01:08:00,68.4,51.1,29.97,NNE,22,0.0,0.0,54,0.00,,---,0.00,VWS V14.01,2013-04-15 05:08:00,
2013-04-15 01:09:00,68.4,51.1,29.97,NNE,22,0.0,0.0,54,0.00,,---,0.00,VWS V14.01,2013-04-15 05:09:00,
2013-04-15 01:10:00,68.4,51.1,29.97,NNE,22,0.0,0.0,54,0.00,,---,0.00,VWS V14.01,2013-04-15 05:10:00,
2013-04-15 01:11:00,68.4,51.1,29.97,NNE,22,0.0,0.0,54,0.00,,---,0.00,VWS V14.01,2013-04-15 05:11:00,
2013-04-15 01:12:00,68.4,51.1,29.97,NNE,22,0.0,0.0,54,0.00,,---,0.00,VWS V14.01,2013-04-15 05:12:00,
2013-04-15 01:13:00,68.4,51.1,29.97,NNE,22,0.0,0.0,54,0.00,,---,0.00,VWS V14.01,2013-04-15 05:13:00,
2013-04-15 01:14:00,68.4,51.1,29.97,NNE,22,0.0,0.0,54,0.00,,---,0.00,VWS V14.01,2013-04-15 05:14:00,
2013-04-15 01:15:00,68.4,51.6,29.97,NNE,22,0.0,0.0,55,0.00,,---,0.00,VWS V14.01,2013-04-15 05:15:00,
2013-04-15 01:16:00,68.4,51.6,29.97,NNE,22,0.0,0.0,55,0.00,,---,0.00,VWS V14.01,2013-04-15 05:16:00,
2013-04-15 01:17:00,68.4,51.6,29.97,NNE,22,0.0,0.0,55,0.00,,---,0.00,VWS V14.01,2013-04-15 05:17:00,
2013-04-15 01:18:00,68.4,51.6,29.97,NNE,22,0.0,0.0,55,0.00,,---,0.00,VWS V14.01,2013-04-15 05:18:00,
2013-04-15 01:19:00,68.4,51.6,29.97,NNE,22,0.0,0.0,55,0.00,,---,0.00,VWS V14.01,2013-04-15 05:19:00,
2013-04-15 01:20:00,68.2,51.4,29.97,NNE,22,0.0,0.0,55,0.00,,---,0.00,VWS V14.01,2013-04-15 05:20:00,
2013-04-15 01:21:00,68.2,51.4,29.97,NNE,22,0.0,0.0,55,0.00,,---,0.00,VWS V14.01,2013-04-15 05:21:00,
2013-04-15 01:22:00,68.2,51.4,29.97,NNE,22,0.0,0.0,55,0.00,,---,0.00,VWS V14.01,2013-04-15 05:22:00,
2013-04-15 01:23:00,68.2,51.4,29.97,NNE,22,0.0,0.0,55,0.00,,---,0.00,VWS V14.01,2013-04-15 05:23:00,
2013-04-15 01:24:00,68.2,51.4,29.97,NNE,22,0.0,0.0,55,0.00,,---,0.00,VWS V14.01,2013-04-15 05:24:00,
2013-04-15 01:25:00,68.0,51.7,29.97,NNE,22,0.0,0.0,56,0.00,,---,0.00,VWS V14.01,2013-04-15 05:25:00,
2013-04-15 01:26:00,68.2,51.4,29.97,NNE,22,0.0,0.0,55,0.00,,---,0.00,VWS V14.01,2013-04-15 05:26:00,
2013-04-15 01:27:00,68.0,51.2,29.97,NNE,22,0.0,0.0,55,0.00,,---,0.00,VWS V14.01,2013-04-15 05:27:00,
2013-04-15 01:28:00,68.0,51.7,29.97,NNE,22,0.0,0.0,56,0.00,,---,0.00,VWS V14.01,2013-04-15 05:28:00,
2013-04-15 01:29:00,68.0,51.7,29.97,NNE,22,0.0,0.0,56,0.00,,---,0.00,VWS V14.01,2013-04-15 05:29:00,
2013-04-15 01:30:00,68.0,51.7,29.97,NNE,22,0.0,0.0,56,0.00,,---,0.00,VWS V14.01,2013-04-15 05:30:00,
2013-04-15 01:31:00,68.0,51.7,29.97,NNE,22,0.0,0.0,56,0.00,,---,0.00,VWS V14.01,2013-04-15 05:31:00,
2013-04-15 01:32:00,68.0,51.7,29.97,NNE,22,0.0,0.0,56,0.00,,---,0.00,VWS V14.01,2013-04-15 05:32:00,
2013-04-15 01:33:00,68.0,51.7,29.97,NNE,22,0.0,0.0,56,0.00,,---,0.00,VWS V14.01,2013-04-15 05:33:00,
2013-04-15 01:34:00,68.0,51.7,29.97,NNE,22,0.0,0.0,56,0.00,,---,0.00,VWS V14.01,2013-04-15 05:34:00,
2013-04-15 01:35:00,68.0,51.7,29.97,NNE,22,0.0,0.0,56,0.00,,---,0.00,VWS V14.01,2013-04-15 05:35:00,
2013-04-15 01:36:00,68.0,52.2,29.97,NNE,22,0.0,0.0,57,0.00,,---,0.00,VWS V14.01,2013-04-15 05:36:00,
2013-04-15 01:37:00,68.0,51.7,29.97,NNE,22,0.0,0.0,56,0.00,,---,0.00,VWS V14.01,2013-04-15 05:37:00,
2013-04-15 01:38:00,68.0,51.7,29.97,NNE,22,0.0,0.0,56,0.00,,---,0.00,VWS V14.01,2013-04-15 05:38:00,
2013-04-15 01:39:00,68.0,52.2,29.97,NNE,22,0.0,0.0,57,0.00,,---,0.00,VWS V14.01,2013-04-15 05:39:00,
2013-04-15 01:40:00,68.0,52.2,29.97,NNE,22,0.0,0.0,57,0.00,,---,0.00,VWS V14.01,2013-04-15 05:40:00,
2013-04-15 01:41:00,67.8,52.5,29.97,NNE,22,0.0,0.0,58,0.00,,---,0.00,VWS V14.01,2013-04-15 05:41:00,
2013-04-15 01:42:00,67.8,52.5,29.97,NNE,22,0.0,0.0,58,0.00,,---,0.00,VWS V14.01,2013-04-15 05:42:00,
2013-04-15 01:43:00,67.8,52.5,29.97,NNE,22,0.0,0.0,58,0.00,,---,0.00,VWS V14.01,2013-04-15 05:43:00,
2013-04-15 01:44:00,67.8,52.5,29.97,NNE,22,0.0,0.0,58,0.00,,---,0.00,VWS V14.01,2013-04-15 05:44:00,
2013-04-15 01:45:00,67.8,52.5,29.97,NNE,22,0.0,0.0,58,0.00,,---,0.00,VWS V14.01,2013-04-15 05:45:00,
2013-04-15 01:46:00,67.8,53.0,29.97,NNE,22,0.0,0.0,59,0.00,,---,0.00,VWS V14.01,2013-04-15 05:46:00,
2013-04-15 01:47:00,67.8,53.0,29.97,NNE,22,0.0,0.0,59,0.00,,---,0.00,VWS V14.01,2013-04-15 05:47:00,
2013-04-15 01:48:00,67.8,53.0,29.97,NNE,22,0.0,0.0,59,0.00,,---,0.00,VWS V14.01,2013-04-15 05:48:00,
2013-04-15 01:49:00,67.8,53.0,29.97,NNE,22,0.0,0.0,59,0.00,,---,0.00,VWS V14.01,2013-04-15 05:49:00,
2013-04-15 01:50:00,67.8,53.0,29.97,NNE,22,0.0,0.0,59,0.00,,---,0.00,VWS V14.01,2013-04-15 05:50:00,
2013-04-15 01:51:00,67.8,53.4,29.97,NNE,22,0.0,0.0,60,0.00,,---,0.00,VWS V14.01,2013-04-15 05:51:00,
2013-04-15 01:52:00,67.8,53.4,29.97,NNE,22,0.0,0.0,60,0.00,,---,0.00,VWS V14.01,2013-04-15 05:52:00,
2013-04-15 01:53:00,67.8,53.4,29.97,NNE,22,0.0,0.0,60,0.00,,---,0.00,VWS V14.01,2013-04-15 05:53:00,
2013-04-15 01:54:00,67.8,53.4,29.97,NNE,22,0.0,0.0,60,0.00,,---,0.00,VWS V14.01,2013-04-15 05:54:00,
2013-04-15 01:55:00,67.8,53.4,29.97,NNE,22,0.0,0.0,60,0.00,,---,0.00,VWS V14.01,2013-04-15 05:55:00,
2013-04-15 01:56:00,67.6,53.7,29.97,NNE,22,0.0,0.0,61,0.00,,---,0.00,VWS V14.01,2013-04-15 05:56:00,
2013-04-15 01:57:00,67.8,53.4,29.97,NNE,22,0.0,0.0,60,0.00,,---,0.00,VWS V14.01,2013-04-15 05:57:00,
2013-04-15 01:58:00,67.6,53.3,29.97,NNE,22,0.0,0.0,60,0.00,,---,0.00,VWS V14.01,2013-04-15 05:58:00,
2013-04-15 01:59:00,67.6,53.7,29.97,NNE,22,0.0,0.0,61,0.00,,---,0.00,VWS V14.01,2013-04-15 05:59:00,
2013-04-15 02:00:00,67.6,53.7,29.97,NNE,22,0.0,0.0,61,0.00,,---,0.00,VWS V14.01,2013-04-15 06:00:00,
2013-04-15 02:01:00,67.8,53.9,29.97,NNE,22,0.0,0.0,61,0.00,,---,0.00,VWS V14.01,2013-04-15 06:01:00,
2013-04-15 02:02:00,67.8,53.9,29.97,NNE,22,0.0,0.0,61,0.00,,---,0.00,VWS V14.01,2013-04-15 06:02:00,
2013-04-15 02:03:00,67.8,53.9,29.97,NNE,22,0.0,0.0,61,0.00,,---,0.00,VWS V14.01,2013-04-15 06:03:00,
2013-04-15 02:04:00,67.8,53.9,29.97,NNE,22,0.0,0.0,61,0.00,,---,0.00,VWS V14.01,2013-04-15 06:04:00,
2013-04-15 02:05:00,67.8,53.9,29.97,NNE,22,0.0,0.0,61,0.00,,---,0.00,VWS V14.01,2013-04-15 06:05:00,
2013-04-15 02:06:00,67.8,53.9,29.97,NNE,22,0.0,0.0,61,0.00,,---,0.00,VWS V14.01,2013-04-15 06:06:00,
2013-04-15 02:07:00,67.8,53.9,29.97,NNE,22,0.0,0.0,61,0.00,,---,0.00,VWS V14.01,2013-04-15 06:07:00,
2013-04-15 02:08:00,67.8,53.9,29.97,NNE,22,0.0,0.0,61,0.00,,---,0.00,VWS V14.01,2013-04-15 06:08:00,
2013-04-15 02:09:00,67.8,53.9,29.97,NNE,22,0.0,0.0,61,0.00,,---,0.00,VWS V14.01,2013-04-15 06:09:00,
2013-04-15 02:10:00,67.8,53.9,29.97,NNE,22,0.0,0.0,61,0.00,,---,0.00,VWS V14.01,2013-04-15 06:10:00,
2013-04-15 02:11:00,67.8,53.9,29.97,SSE,158,0.0,0.0,61,0.00,,---,0.00,VWS V14.01,2013-04-15 06:11:00,
2013-04-15 02:12:00,67.8,53.9,29.97,ENE,68,0.0,0.0,61,0.00,,---,0.00,VWS V14.01,2013-04-15 06:12:00,
2013-04-15 02:13:00,67.8,53.9,29.97,ESE,112,0.0,0.0,61,0.00,,---,0.00,VWS V14.01,2013-04-15 06:13:00,
2013-04-15 02:14:00,67.8,53.9,29.97,ESE,112,0.0,0.0,61,0.00,,---,0.00,VWS V14.01,2013-04-15 06:14:00,
2013-04-15 02:15:00,67.8,53.9,29.97,SSE,158,0.0,0.0,61,0.00,,---,0.00,VWS V14.01,2013-04-15 06:15:00,
2013-04-15 02:16:00,68.2,54.7,29.97,SSE,158,0.0,0.0,62,0.00,,---,0.00,VWS V14.01,2013-04-15 06:16:00,
2013-04-15 02:17:00,68.0,54.5,29.97,SSE,158,0.0,0.0,62,0.00,,---,0.00,VWS V14.01,2013-04-15 06:17:00,
2013-04-15 02:18:00,68.0,54.5,29.97,SSE,158,0.0,0.0,62,0.00,,---,0.00,VWS V14.01,2013-04-15 06:18:00,
2013-04-15 02:19:00,68.0,54.5,29.97,SSE,158,0.0,0.0,62,0.00,,---,0.00,VWS V14.01,2013-04-15 06:19:00,
2013-04-15 02:20:00,68.2,54.7,29.97,SSE,158,0.0,0.0,62,0.00,,---,0.00,VWS V14.01,2013-04-15 06:20:00,
2013-04-15 02:21:00,68.2,54.7,29.97,SSE,158,0.0,0.0,62,0.00,,---,0.00,VWS V14.01,2013-04-15 06:21:00,
2013-04-15 02:22:00,68.2,54.7,29.97,SSE,158,0.0,0.0,62,0.00,,---,0.00,VWS V14.01,2013-04-15 06:22:00,
2013-04-15 02:23:00,68.2,54.7,29.97,SSE,158,0.0,0.0,62,0.00,,---,0.00,VWS V14.01,2013-04-15 06:23:00,
2013-04-15 02:24:00,68.2,54.7,29.97,SSE,158,0.0,0.0,62,0.00,,---,0.00,VWS V14.01,2013-04-15 06:24:00,
2013-04-15 02:25:00,68.2,54.7,29.97,SSE,158,0.0,0.0,62,0.00,,---,0.00,VWS V14.01,2013-04-15 06:25:00,
2013-04-15 02:26:00,68.2,54.7,29.97,SSE,158,0.0,0.0,62,0.00,,---,0.00,VWS V14.01,2013-04-15 06:26:00,
2013-04-15 02:27:00,68.2,54.7,29.97,SSW,202,0.0,0.0,62,0.00,,---,0.00,VWS V14.01,2013-04-15 06:27:00,
2013-04-15 02:28:00,68.2,54.7,29.97,SSE,158,0.0,0.0,62,0.00,,---,0.00,VWS V14.01,2013-04-15 06:28:00,
2013-04-15 02:29:00,68.2,54.7,29.97,SSE,158,0.0,0.0,62,0.00,,---,0.00,VWS V14.01,2013-04-15 06:29:00,
2013-04-15 02:30:00,68.2,54.7,29.97,SSW,202,0.0,0.0,62,0.00,,---,0.00,VWS V14.01,2013-04-15 06:30:00,
2013-04-15 02:31:00,68.4,54.8,29.97,SSE,158,0.0,0.0,62,0.00,,---,0.00,VWS V14.01,2013-04-15 06:31:00,
2013-04-15 02:32:00,68.4,54.4,29.97,SSE,158,0.0,0.0,61,0.00,,---,0.00,VWS V14.01,2013-04-15 06:32:00,
2013-04-15 02:33:00,68.4,54.4,29.97,SSE,158,0.0,0.0,61,0.00,,---,0.00,VWS V14.01,2013-04-15 06:33:00,
2013-04-15 02:34:00,68.4,54.4,29.97,SSE,158,0.0,0.0,61,0.00,,---,0.00,VWS V14.01,2013-04-15 06:34:00,
2013-04-15 02:35:00,68.4,54.4,29.97,SSE,158,0.0,0.0,61,0.00,,---,0.00,VWS V14.01,2013-04-15 06:35:00,
2013-04-15 02:36:00,68.4,54.4,29.97,SSE,158,0.0,0.0,61,0.00,,---,0.00,VWS V14.01,2013-04-15 06:36:00,
2013-04-15 02:37:00,68.5,53.7,29.97,SSE,158,0.0,0.0,59,0.00,,---,0.00,VWS V14.01,2013-04-15 06:37:00,
2013-04-15 02:38:00,68.4,54.0,29.97,SSE,158,0.0,0.0,60,0.00,,---,0.00,VWS V14.01,2013-04-15 06:38:00,
2013-04-15 02:39:00,68.5,54.1,29.97,SSE,158,0.0,0.0,60,0.00,,---,0.00,VWS V14.01,2013-04-15 06:39:00,
2013-04-15 02:40:00,68.5,53.7,29.97,SSE,158,0.0,0.0,59,0.00,,---,0.00,VWS V14.01,2013-04-15 06:40:00,
2013-04-15 02:41:00,68.5,53.7,29.97,SSE,158,0.0,0.0,59,0.00,,---,0.00,VWS V14.01,2013-04-15 06:41:00,
2013-04-15 02:42:00,68.5,53.7,29.97,SSE,158,0.0,0.0,59,0.00,,---,0.00,VWS V14.01,2013-04-15 06:42:00,
2013-04-15 02:43:00,68.5,53.7,29.97,SSE,158,0.0,0.0,59,0.00,,---,0.00,VWS V14.01,2013-04-15 06:43:00,
2013-04-15 02:44:00,68.5,53.7,29.97,SSE,158,0.0,0.0,59,0.00,,---,0.00,VWS V14.01,2013-04-15 06:44:00,
2013-04-15 02:45:00,68.5,53.7,29.97,SSE,158,0.0,0.0,59,0.00,,---,0.00,VWS V14.01,2013-04-15 06:45:00,
2013-04-15 02:46:00,68.5,53.7,29.97,SSE,158,0.0,0.0,59,0.00,,---,0.00,VWS V14.01,2013-04-15 06:46:00,
2013-04-15 02:47:00,68.5,53.7,29.97,SSE,158,0.0,0.0,59,0.00,,---,0.00,VWS V14.01,2013-04-15 06:47:00,
2013-04-15 02:48:00,68.5,53.7,29.97,SSE,158,0.0,0.0,59,0.00,,---,0.00,VWS V14.01,2013-04-15 06:48:00,
2013-04-15 02:49:00,68.5,53.7,29.97,SSE,158,0.0,0.0,59,0.00,,---,0.00,VWS V14.01,2013-04-15 06:49:00,
2013-04-15 02:50:00,68.5,53.7,29.97,SSE,158,0.0,0.0,59,0.00,,---,0.00,VWS V14.01,2013-04-15 06:50:00,
2013-04-15 02:51:00,68.5,53.7,29.97,SSE,158,0.0,0.0,59,0.00,,---,0.00,VWS V14.01,2013-04-15 06:51:00,
2013-04-15 02:52:00,68.5,53.7,29.97,SSE,158,0.0,0.0,59,0.00,,---,0.00,VWS V14.01,2013-04-15 06:52:00,
2013-04-15 02:53:00,68.5,53.7,29.97,SSE,158,0.0,0.0,59,0.00,,---,0.00,VWS V14.01,2013-04-15 06:53:00,
2013-04-15 02:54:00,68.5,53.7,29.97,SSE,158,0.0,0.0,59,0.00,,---,0.00,VWS V14.01,2013-04-15 06:54:00,
2013-04-15 02:55:00,68.5,53.7,29.97,SSE,158,0.0,0.0,59,0.00,,---,0.00,VWS V14.01,2013-04-15 06:55:00,
2013-04-15 02:56:00,68.5,53.7,29.97,SSE,158,0.0,0.0,59,0.00,,---,0.00,VWS V14.01,2013-04-15 06:56:00,
2013-04-15 02:57:00,68.5,53.7,29.97,NE,45,0.0,0.0,59,0.00,,---,0.00,VWS V14.01,2013-04-15 06:57:00,
2013-04-15 02:58:00,68.5,53.7,29.97,SE,135,0.0,0.0,59,0.00,,---,0.00,VWS V14.01,2013-04-15 06:58:00,
2013-04-15 02:59:00,68.5,53.7,29.97,NE,45,0.0,0.0,59,0.00,,---,0.00,VWS V14.01,2013-04-15 06:59:00,
2013-04-15 03:00:00,68.5,53.7,29.97,NE,45,0.0,0.0,59,0.00,,---,0.00,VWS V14.01,2013-04-15 07:00:00,
2013-04-15 03:01:00,68.5,53.7,29.97,NE,45,0.0,0.0,59,0.00,,---,0.00,VWS V14.01,2013-04-15 07:01:00,
2013-04-15 03:02:00,68.5,53.7,29.97,SSE,158,0.0,0.0,59,0.00,,---,0.00,VWS V14.01,2013-04-15 07:02:00,
2013-04-15 03:03:00,68.5,53.7,29.97,SSE,158,0.0,0.0,59,0.00,,---,0.00,VWS V14.01,2013-04-15 07:03:00,
2013-04-15 03:04:00,68.5,53.7,29.97,SSE,158,0.0,0.0,59,0.00,,---,0.00,VWS V14.01,2013-04-15 07:04:00,
2013-04-15 03:05:00,68.5,53.7,29.97,SSE,158,0.0,0.0,59,0.00,,---,0.00,VWS V14.01,2013-04-15 07:05:00,
2013-04-15 03:06:00,68.5,53.7,29.97,SSE,158,0.0,0.0,59,0.00,,---,0.00,VWS V14.01,2013-04-15 07:06:00,
2013-04-15 03:07:00,68.5,53.2,29.97,SSE,158,0.0,0.0,58,0.00,,---,0.00,VWS V14.01,2013-04-15 07:07:00,
2013-04-15 03:08:00,68.5,53.2,29.97,SSE,158,0.0,0.0,58,0.00,,---,0.00,VWS V14.01,2013-04-15 07:08:00,
2013-04-15 03:09:00,68.5,53.2,29.97,SSE,158,0.0,0.0,58,0.00,,---,0.00,VWS V14.01,2013-04-15 07:09:00,
2013-04-15 03:10:00,68.5,53.2,29.97,SSE,158,0.0,0.0,58,0.00,,---,0.00,VWS V14.01,2013-04-15 07:10:00,
2013-04-15 03:11:00,68.5,53.2,29.97,SSE,158,0.0,0.0,58,0.00,,---,0.00,VWS V14.01,2013-04-15 07:11:00,
2013-04-15 03:12:00,68.4,53.0,29.97,SSE,158,0.0,0.0,58,0.00,,---,0.00,VWS V14.01,2013-04-15 07:12:00,
2013-04-15 03:13:00,68.4,53.0,29.97,SSE,158,0.0,0.0,58,0.00,,---,0.00,VWS V14.01,2013-04-15 07:13:00,
2013-04-15 03:14:00,68.4,53.0,29.97,SSE,158,0.0,0.0,58,0.00,,---,0.00,VWS V14.01,2013-04-15 07:14:00,
2013-04-15 03:15:00,68.4,53.0,29.97,SSE,158,0.0,0.0,58,0.00,,---,0.00,VWS V14.01,2013-04-15 07:15:00,
2013-04-15 03:16:00,68.4,53.0,29.97,SSE,158,0.0,0.0,58,0.00,,---,0.00,VWS V14.01,2013-04-15 07:16:00,
2013-04-15 03:17:00,68.4,53.0,29.97,SSE,158,0.0,0.0,58,0.00,,---,0.00,VWS V14.01,2013-04-15 07:17:00,
2013-04-15 03:18:00,68.4,53.0,29.97,SSE,158,0.0,0.0,58,0.00,,---,0.00,VWS V14.01,2013-04-15 07:18:00,
2013-04-15 03:19:00,68.4,53.0,29.97,SSE,158,0.0,0.0,58,0.00,,---,0.00,VWS V14.01,2013-04-15 07:19:00,
2013-04-15 03:20:00,68.2,52.9,29.97,SSE,158,0.0,0.0,58,0.00,,---,0.00,VWS V14.01,2013-04-15 07:20:00,
2013-04-15 03:21:00,68.2,52.9,29.97,SSE,158,0.0,0.0,58,0.00,,---,0.00,VWS V14.01,2013-04-15 07:21:00,
2013-04-15 03:22:00,68.0,52.7,29.97,SSE,158,0.0,0.0,58,0.00,,---,0.00,VWS V14.01,2013-04-15 07:22:00,
2013-04-15 03:23:00,68.0,52.7,29.97,SSE,158,0.0,0.0,58,0.00,,---,0.00,VWS V14.01,2013-04-15 07:23:00,
2013-04-15 03:24:00,68.0,52.7,29.97,SSE,158,0.0,0.0,58,0.00,,---,0.00,VWS V14.01,2013-04-15 07:24:00,
2013-04-15 03:25:00,67.8,53.0,29.97,SSE,158,0.0,0.0,59,0.00,,---,0.00,VWS V14.01,2013-04-15 07:25:00,
2013-04-15 03:26:00,67.8,53.0,29.97,SSE,158,0.0,0.0,59,0.00,,---,0.00,VWS V14.01,2013-04-15 07:26:00,
2013-04-15 03:27:00,67.8,53.0,29.97,SSE,158,0.0,0.0,59,0.00,,---,0.00,VWS V14.01,2013-04-15 07:27:00,
2013-04-15 03:28:00,67.6,52.8,29.97,SSE,158,0.0,0.0,59,0.00,,---,0.00,VWS V14.01,2013-04-15 07:28:00,
2013-04-15 03:29:00,67.6,52.8,29.97,SSE,158,0.0,0.0,59,0.00,,---,0.00,VWS V14.01,2013-04-15 07:29:00,
2013-04-15 03:30:00,67.5,52.7,29.97,SSE,158,0.0,0.0,59,0.00,,---,0.00,VWS V14.01,2013-04-15 07:30:00,
2013-04-15 03:31:00,67.5,53.1,29.97,SSE,158,0.0,0.0,60,0.00,,---,0.00,VWS V14.01,2013-04-15 07:31:00,
2013-04-15 03:32:00,67.5,53.1,29.97,SSE,158,0.0,0.0,60,0.00,,---,0.00,VWS V14.01,2013-04-15 07:32:00,
2013-04-15 03:33:00,67.5,53.1,29.97,SSE,158,0.0,0.0,60,0.00,,---,0.00,VWS V14.01,2013-04-15 07:33:00,
2013-04-15 03:34:00,67.3,52.9,29.97,SSE,158,0.0,0.0,60,0.00,,---,0.00,VWS V14.01,2013-04-15 07:34:00,
2013-04-15 03:35:00,67.3,52.9,29.97,SSE,158,0.0,0.0,60,0.00,,---,0.00,VWS V14.01,2013-04-15 07:35:00,
2013-04-15 03:36:00,67.3,53.4,29.97,SSE,158,0.0,0.0,61,0.00,,---,0.00,VWS V14.01,2013-04-15 07:36:00,
2013-04-15 03:37:00,67.1,53.2,29.97,SSE,158,0.0,0.0,61,0.00,,---,0.00,VWS V14.01,2013-04-15 07:37:00,
2013-04-15 03:38:00,67.1,53.2,29.97,SSE,158,0.0,0.0,61,0.00,,---,0.00,VWS V14.01,2013-04-15 07:38:00,
2013-04-15 03:39:00,67.1,53.2,29.97,SSE,158,0.0,0.0,61,0.00,,---,0.00,VWS V14.01,2013-04-15 07:39:00,
2013-04-15 03:40:00,67.1,53.2,29.97,SSE,158,0.0,0.0,61,0.00,,---,0.00,VWS V14.01,2013-04-15 07:40:00,
2013-04-15 03:41:00,66.9,53.5,29.97,SSE,158,0.0,0.0,62,0.00,,---,0.00,VWS V14.01,2013-04-15 07:41:00,
2013-04-15 03:42:00,66.9,53.0,29.97,SSE,158,0.0,0.0,61,0.00,,---,0.00,VWS V14.01,2013-04-15 07:42:00,
2013-04-15 03:43:00,66.9,53.5,29.97,SSE,158,0.0,0.0,62,0.00,,---,0.00,VWS V14.01,2013-04-15 07:43:00,
2013-04-15 03:44:00,66.9,53.5,29.97,SSE,158,0.0,0.0,62,0.00,,---,0.00,VWS V14.01,2013-04-15 07:44:00,
2013-04-15 03:45:00,66.9,53.5,29.97,SSE,158,0.0,0.0,62,0.00,,---,0.00,VWS V14.01,2013-04-15 07:45:00,
2013-04-15 03:46:00,66.9,53.5,29.97,SSE,158,0.0,0.0,62,0.00,,---,0.00,VWS V14.01,2013-04-15 07:46:00,
2013-04-15 03:47:00,66.7,53.8,29.97,SSE,158,0.0,0.0,63,0.00,,---,0.00,VWS V14.01,2013-04-15 07:47:00,
2013-04-15 03:48:00,66.6,54.0,29.97,SSE,158,0.0,0.0,64,0.00,,---,0.00,VWS V14.01,2013-04-15 07:48:00,
2013-04-15 03:49:00,66.7,53.8,29.97,SSE,158,0.0,0.0,63,0.00,,---,0.00,VWS V14.01,2013-04-15 07:49:00,
2013-04-15 03:50:00,66.7,53.8,29.97,SSE,158,0.0,0.0,63,0.00,,---,0.00,VWS V14.01,2013-04-15 07:50:00,
2013-04-15 03:51:00,66.6,54.0,29.97,SSE,158,0.0,0.0,64,0.00,,---,0.00,VWS V14.01,2013-04-15 07:51:00,
2013-04-15 03:52:00,66.6,54.0,29.97,SSE,158,0.0,0.0,64,0.00,,---,0.00,VWS V14.01,2013-04-15 07:52:00,
2013-04-15 03:53:00,66.6,54.0,29.97,SSE,158,0.0,0.0,64,0.00,,---,0.00,VWS V14.01,2013-04-15 07:53:00,
2013-04-15 03:54:00,66.6,54.0,29.97,SSE,158,0.0,0.0,64,0.00,,---,0.00,VWS V14.01,2013-04-15 07:54:00,
2013-04-15 03:55:00,66.6,54.0,29.97,SSE,158,0.0,0.0,64,0.00,,---,0.00,VWS V14.01,2013-04-15 07:55:00,
2013-04-15 03:56:00,66.4,53.8,29.97,SSE,158,0.0,0.0,64,0.00,,---,0.00,VWS V14.01,2013-04-15 07:56:00,
2013-04-15 03:57:00,66.4,53.8,29.97,SSE,158,0.0,0.0,64,0.00,,---,0.00,VWS V14.01,2013-04-15 07:57:00,
2013-04-15 03:58:00,66.4,53.8,29.97,SSE,158,0.0,0.0,64,0.00,,---,0.00,VWS V14.01,2013-04-15 07:58:00,
2013-04-15 03:59:00,66.4,53.8,29.97,SSE,158,0.0,0.0,64,0.00,,---,0.00,VWS V14.01,2013-04-15 07:59:00,
2013-04-15 04:00:00,66.4,53.8,29.97,SSE,158,0.0,0.0,64,0.00,,---,0.00,VWS V14.01,2013-04-15 08:00:00,
2013-04-15 04:01:00,66.4,54.3,29.97,SSE,158,0.0,0.0,65,0.00,,---,0.00,VWS V14.01,2013-04-15 08:01:00,
2013-04-15 04:02:00,66.4,53.8,29.97,SSE,158,0.0,0.0,64,0.00,,---,0.00,VWS V14.01,2013-04-15 08:02:00,
2013-04-15 04:03:00,66.4,53.8,29.97,SSE,158,0.0,0.0,64,0.00,,---,0.00,VWS V14.01,2013-04-15 08:03:00,
2013-04-15 04:04:00,66.4,54.3,29.97,SSE,158,0.0,0.0,65,0.00,,---,0.00,VWS V14.01,2013-04-15 08:04:00,
2013-04-15 04:05:00,66.4,54.3,29.97,SSE,158,0.0,0.0,65,0.00,,---,0.00,VWS V14.01,2013-04-15 08:05:00,
2013-04-15 04:06:00,66.4,54.3,29.97,SSE,158,0.0,0.0,65,0.00,,---,0.00,VWS V14.01,2013-04-15 08:06:00,
2013-04-15 04:07:00,66.2,53.7,29.97,SSE,158,0.0,0.0,64,0.00,,---,0.00,VWS V14.01,2013-04-15 08:07:00,
2013-04-15 04:08:00,66.2,53.7,29.97,SSE,158,0.0,0.0,64,0.00,,---,0.00,VWS V14.01,2013-04-15 08:08:00,
2013-04-15 04:09:00,66.2,53.7,29.97,SSE,158,0.0,0.0,64,0.00,,---,0.00,VWS V14.01,2013-04-15 08:09:00,
2013-04-15 04:10:00,66.2,53.7,29.97,SSE,158,0.0,0.0,64,0.00,,---,0.00,VWS V14.01,2013-04-15 08:10:00,
2013-04-15 04:11:00,66.4,54.3,29.97,SSE,158,0.0,0.0,65,0.00,,---,0.00,VWS V14.01,2013-04-15 08:11:00,
2013-04-15 04:12:00,66.4,54.3,29.97,SSE,158,0.0,0.0,65,0.00,,---,0.00,VWS V14.01,2013-04-15 08:12:00,
2013-04-15 04:13:00,66.4,54.3,29.97,SSE,158,0.0,0.0,65,0.00,,---,0.00,VWS V14.01,2013-04-15 08:13:00,
2013-04-15 04:14:00,66.4,54.3,29.97,SSE,158,0.0,0.0,65,0.00,,---,0.00,VWS V14.01,2013-04-15 08:14:00,
2013-04-15 04:15:00,66.4,54.3,29.97,SSE,158,0.0,0.0,65,0.00,,---,0.00,VWS V14.01,2013-04-15 08:15:00,
2013-04-15 04:16:00,66.4,54.3,29.97,SSE,158,0.0,0.0,65,0.00,,---,0.00,VWS V14.01,2013-04-15 08:16:00,
2013-04-15 04:17:00,66.6,54.9,29.97,SSE,158,0.0,0.0,66,0.00,,---,0.00,VWS V14.01,2013-04-15 08:17:00,
2013-04-15 04:18:00,66.4,54.3,29.97,SSE,158,0.0,0.0,65,0.00,,---,0.00,VWS V14.01,2013-04-15 08:18:00,
2013-04-15 04:19:00,66.6,54.4,29.97,SSE,158,0.0,0.0,65,0.00,,---,0.00,VWS V14.01,2013-04-15 08:19:00,
2013-04-15 04:20:00,66.6,54.9,29.97,SSE,158,0.0,0.0,66,0.00,,---,0.00,VWS V14.01,2013-04-15 08:20:00,
2013-04-15 04:21:00,66.6,54.9,29.97,SSE,158,0.0,0.0,66,0.00,,---,0.00,VWS V14.01,2013-04-15 08:21:00,
2013-04-15 04:22:00,66.6,54.9,29.97,SSE,158,0.0,0.0,66,0.00,,---,0.00,VWS V14.01,2013-04-15 08:22:00,
2013-04-15 04:23:00,66.6,54.9,29.97,SSE,158,0.0,0.0,66,0.00,,---,0.00,VWS V14.01,2013-04-15 08:23:00,
2013-04-15 04:24:00,66.6,54.9,29.97,SSE,158,0.0,0.0,66,0.00,,---,0.00,VWS V14.01,2013-04-15 08:24:00,
2013-04-15 04:25:00,66.6,54.9,29.97,SSE,158,0.0,0.0,66,0.00,,---,0.00,VWS V14.01,2013-04-15 08:25:00,
2013-04-15 04:26:00,66.6,54.9,29.97,SSE,158,0.0,0.0,66,0.00,,---,0.00,VWS V14.01,2013-04-15 08:26:00,
2013-04-15 04:27:00,66.7,55.0,29.97,SSE,158,0.0,0.0,66,0.00,,---,0.00,VWS V14.01,2013-04-15 08:27:00,
2013-04-15 04:28:00,66.6,54.9,29.97,SSE,158,0.0,0.0,66,0.00,,---,0.00,VWS V14.01,2013-04-15 08:28:00,
2013-04-15 04:29:00,66.7,55.0,29.97,SSE,158,0.0,0.0,66,0.00,,---,0.00,VWS V14.01,2013-04-15 08:29:00,
2013-04-15 04:30:00,66.7,55.0,29.97,SSE,158,0.0,0.0,66,0.00,,---,0.00,VWS V14.01,2013-04-15 08:30:00,
2013-04-15 04:31:00,66.7,55.0,29.97,SSE,158,0.0,0.0,66,0.00,,---,0.00,VWS V14.01,2013-04-15 08:31:00,
2013-04-15 04:32:00,66.7,54.6,29.97,SSE,158,0.0,0.0,65,0.00,,---,0.00,VWS V14.01,2013-04-15 08:32:00,
2013-04-15 04:33:00,66.7,55.0,29.97,SSE,158,0.0,0.0,66,0.00,,---,0.00,VWS V14.01,2013-04-15 08:33:00,
2013-04-15 04:34:00,66.7,55.0,29.97,SSE,158,0.0,0.0,66,0.00,,---,0.00,VWS V14.01,2013-04-15 08:34:00,
2013-04-15 04:35:00,66.7,54.6,29.97,SSE,158,0.0,0.0,65,0.00,,---,0.00,VWS V14.01,2013-04-15 08:35:00,
2013-04-15 04:36:00,66.7,54.6,29.97,SSE,158,0.0,0.0,65,0.00,,---,0.00,VWS V14.01,2013-04-15 08:36:00,
2013-04-15 04:37:00,66.7,54.6,29.97,SSE,158,0.0,0.0,65,0.00,,---,0.00,VWS V14.01,2013-04-15 08:37:00,
2013-04-15 04:38:00,66.7,54.6,29.97,SSE,158,0.0,0.0,65,0.00,,---,0.00,VWS V14.01,2013-04-15 08:38:00,
2013-04-15 04:39:00,66.7,54.6,29.97,SSE,158,0.0,0.0,65,0.00,,---,0.00,VWS V14.01,2013-04-15 08:39:00,
2013-04-15 04:40:00,66.7,55.0,29.94,SSE,158,0.0,0.0,66,0.00,,---,0.00,VWS V14.01,2013-04-15 08:40:00,
2013-04-15 04:41:00,66.7,55.0,29.97,SSE,158,0.0,0.0,66,0.00,,---,0.00,VWS V14.01,2013-04-15 08:41:00,
2013-04-15 04:42:00,66.7,55.0,29.94,SSE,158,0.0,0.0,66,0.00,,---,0.00,VWS V14.01,2013-04-15 08:42:00,
2013-04-15 04:43:00,66.7,55.0,29.94,SSE,158,0.0,0.0,66,0.00,,---,0.00,VWS V14.01,2013-04-15 08:43:00,
2013-04-15 04:44:00,66.7,54.6,29.94,SSE,158,0.0,0.0,65,0.00,,---,0.00,VWS V14.01,2013-04-15 08:44:00,
2013-04-15 04:45:00,66.7,54.6,29.94,SSE,158,0.0,0.0,65,0.00,,---,0.00,VWS V14.01,2013-04-15 08:45:00,
2013-04-15 04:46:00,66.7,54.6,29.94,SSE,158,0.0,0.0,65,0.00,,---,0.00,VWS V14.01,2013-04-15 08:46:00,
2013-04-15 04:47:00,66.7,54.6,29.94,SSE,158,0.0,0.0,65,0.00,,---,0.00,VWS V14.01,2013-04-15 08:47:00,
2013-04-15 04:48:00,66.7,54.6,29.94,SSE,158,0.0,0.0,65,0.00,,---,0.00,VWS V14.01,2013-04-15 08:48:00,
2013-04-15 04:49:00,66.7,54.6,29.94,SSE,158,0.0,0.0,65,0.00,,---,0.00,VWS V14.01,2013-04-15 08:49:00,
2013-04-15 04:50:00,66.9,54.8,29.94,SSE,158,0.0,0.0,65,0.00,,---,0.00,VWS V14.01,2013-04-15 08:50:00,
2013-04-15 04:51:00,66.9,54.8,29.94,SSE,158,0.0,0.0,65,0.00,,---,0.00,VWS V14.01,2013-04-15 08:51:00,
2013-04-15 04:52:00,66.9,54.8,29.94,SSE,158,0.0,0.0,65,0.00,,---,0.00,VWS V14.01,2013-04-15 08:52:00,
2013-04-15 04:53:00,66.9,54.8,29.94,SSE,158,0.0,0.0,65,0.00,,---,0.00,VWS V14.01,2013-04-15 08:53:00,
2013-04-15 04:54:00,66.9,54.8,29.94,SSE,158,0.0,0.0,65,0.00,,---,0.00,VWS V14.01,2013-04-15 08:54:00,
2013-04-15 04:55:00,66.7,54.6,29.97,SSE,158,0.0,0.0,65,0.00,,---,0.00,VWS V14.01,2013-04-15 08:55:00,
2013-04-15 04:56:00,66.9,54.8,29.94,SSE,158,0.0,0.0,65,0.00,,---,0.00,VWS V14.01,2013-04-15 08:56:00,
2013-04-15 04:57:00,66.9,54.8,29.97,SSE,158,0.0,0.0,65,0.00,,---,0.00,VWS V14.01,2013-04-15 08:57:00,
2013-04-15 04:58:00,66.7,54.6,29.97,SSE,158,0.0,0.0,65,0.00,,---,0.00,VWS V14.01,2013-04-15 08:58:00,
2013-04-15 04:59:00,66.7,54.6,29.97,SSE,158,0.0,0.0,65,0.00,,---,0.00,VWS V14.01,2013-04-15 08:59:00,
2013-04-15 05:00:00,66.9,54.8,29.97,SSE,158,0.0,0.0,65,0.00,,---,0.00,VWS V14.01,2013-04-15 09:00:00,
2013-04-15 05:01:00,66.7,54.6,29.97,SSE,158,0.0,0.0,65,0.00,,---,0.00,VWS V14.01,2013-04-15 09:01:00,
2013-04-15 05:02:00,66.9,54.8,29.97,SSE,158,0.0,0.0,65,0.00,,---,0.00,VWS V14.01,2013-04-15 09:02:00,
2013-04-15 05:03:00,66.9,54.8,29.97,SSE,158,0.0,0.0,65,0.00,,---,0.00,VWS V14.01,2013-04-15 09:03:00,
2013-04-15 05:04:00,66.9,54.8,29.97,SSE,158,0.0,0.0,65,0.00,,---,0.00,VWS V14.01,2013-04-15 09:04:00,
2013-04-15 05:05:00,66.7,54.6,29.97,SSE,158,0.0,0.0,65,0.00,,---,0.00,VWS V14.01,2013-04-15 09:05:00,
2013-04-15 05:06:00,66.9,54.8,29.97,SSE,158,0.0,0.0,65,0.00,,---,0.00,VWS V14.01,2013-04-15 09:06:00,
2013-04-15 05:07:00,66.9,54.8,29.97,SSE,158,0.0,0.0,65,0.00,,---,0.00,VWS V14.01,2013-04-15 09:07:00,
2013-04-15 05:08:00,66.7,54.6,29.97,SSE,158,0.0,0.0,65,0.00,,---,0.00,VWS V14.01,2013-04-15 09:08:00,
2013-04-15 05:09:00,66.7,54.6,29.97,SSE,158,0.0,0.0,65,0.00,,---,0.00,VWS V14.01,2013-04-15 09:09:00,
2013-04-15 05:10:00,66.7,54.6,29.94,SSE,158,0.0,0.0,65,0.00,,---,0.00,VWS V14.01,2013-04-15 09:10:00,
2013-04-15 05:11:00,66.7,54.6,29.97,SSE,158,0.0,0.0,65,0.00,,---,0.00,VWS V14.01,2013-04-15 09:11:00,
2013-04-15 05:12:00,66.7,54.6,29.94,SSE,158,0.0,0.0,65,0.00,,---,0.00,VWS V14.01,2013-04-15 09:12:00,
2013-04-15 05:13:00,66.7,54.6,29.94,SSE,158,0.0,0.0,65,0.00,,---,0.00,VWS V14.01,2013-04-15 09:13:00,
2013-04-15 05:14:00,66.7,54.6,29.94,SSE,158,0.0,0.0,65,0.00,,---,0.00,VWS V14.01,2013-04-15 09:14:00,
2013-04-15 05:15:00,66.6,54.4,29.94,SSE,158,0.0,0.0,65,0.00,,---,0.00,VWS V14.01,2013-04-15 09:15:00,
2013-04-15 05:16:00,66.7,54.6,29.94,SSE,158,0.0,0.0,65,0.00,,---,0.00,VWS V14.01,2013-04-15 09:16:00,
2013-04-15 05:17:00,66.7,54.6,29.94,SSE,158,0.0,0.0,65,0.00,,---,0.00,VWS V14.01,2013-04-15 09:17:00,
2013-04-15 05:18:00,66.6,54.4,29.94,SSE,158,0.0,0.0,65,0.00,,---,0.00,VWS V14.01,2013-04-15 09:18:00,
2013-04-15 05:19:00,66.6,54.4,29.94,SSE,158,0.0,0.0,65,0.00,,---,0.00,VWS V14.01,2013-04-15 09:19:00,
2013-04-15 05:20:00,66.7,55.0,29.94,SSE,158,0.0,0.0,66,0.00,,---,0.00,VWS V14.01,2013-04-15 09:20:00,
2013-04-15 05:21:00,66.7,55.0,29.94,SSE,158,0.0,0.0,66,0.00,,---,0.00,VWS V14.01,2013-04-15 09:21:00,
2013-04-15 05:22:00,66.7,55.0,29.94,SSE,158,0.0,0.0,66,0.00,,---,0.00,VWS V14.01,2013-04-15 09:22:00,
2013-04-15 05:23:00,66.6,54.9,29.94,SSE,158,0.0,0.0,66,0.00,,---,0.00,VWS V14.01,2013-04-15 09:23:00,
2013-04-15 05:24:00,66.7,55.0,29.94,SSE,158,0.0,0.0,66,0.00,,---,0.00,VWS V14.01,2013-04-15 09:24:00,
2013-04-15 05:25:00,66.7,55.0,29.94,SSE,158,0.0,0.0,66,0.00,,---,0.00,VWS V14.01,2013-04-15 09:25:00,
2013-04-15 05:26:00,66.7,55.0,29.94,SSE,158,0.0,0.0,66,0.00,,---,0.00,VWS V14.01,2013-04-15 09:26:00,
2013-04-15 05:27:00,66.7,55.0,29.94,SSE,158,0.0,0.0,66,0.00,,---,0.00,VWS V14.01,2013-04-15 09:27:00,
2013-04-15 05:28:00,66.7,55.0,29.94,SSE,158,0.0,0.0,66,0.00,,---,0.00,VWS V14.01,2013-04-15 09:28:00,
2013-04-15 05:29:00,66.7,55.0,29.94,SSE,158,0.0,0.0,66,0.00,,---,0.00,VWS V14.01,2013-04-15 09:29:00,
2013-04-15 05:30:00,66.9,55.2,29.94,SSE,158,0.0,0.0,66,0.00,,---,0.00,VWS V14.01,2013-04-15 09:30:00,
2013-04-15 05:31:00,66.7,55.0,29.94,SSE,158,0.0,0.0,66,0.00,,---,0.00,VWS V14.01,2013-04-15 09:31:00,
2013-04-15 05:32:00,66.9,55.2,29.94,SSE,158,0.0,0.0,66,0.00,,---,0.00,VWS V14.01,2013-04-15 09:32:00,
2013-04-15 05:33:00,66.9,55.2,29.94,SSE,158,0.0,0.0,66,0.00,,---,0.00,VWS V14.01,2013-04-15 09:33:00,
2013-04-15 05:34:00,66.9,55.2,29.94,SSE,158,0.0,0.0,66,0.00,,---,0.00,VWS V14.01,2013-04-15 09:34:00,
2013-04-15 05:35:00,67.1,55.4,29.94,SSE,158,0.0,0.0,66,0.00,,---,0.00,VWS V14.01,2013-04-15 09:35:00,
2013-04-15 05:36:00,67.1,55.4,29.94,SSE,158,0.0,0.0,66,0.00,,---,0.00,VWS V14.01,2013-04-15 09:36:00,
2013-04-15 05:37:00,67.1,55.4,29.94,SSE,158,0.0,0.0,66,0.00,,---,0.00,VWS V14.01,2013-04-15 09:37:00,
2013-04-15 05:38:00,67.1,55.4,29.94,SSE,158,0.0,0.0,66,0.00,,---,0.00,VWS V14.01,2013-04-15 09:38:00,
2013-04-15 05:39:00,67.1,55.4,29.94,SSE,158,0.0,0.0,66,0.00,,---,0.00,VWS V14.01,2013-04-15 09:39:00,
2013-04-15 05:40:00,67.1,55.0,29.94,SSE,158,0.0,0.0,65,0.00,,---,0.00,VWS V14.01,2013-04-15 09:40:00,
2013-04-15 05:41:00,67.1,55.4,29.94,SSE,158,0.0,0.0,66,0.00,,---,0.00,VWS V14.01,2013-04-15 09:41:00,
2013-04-15 05:42:00,67.1,55.4,29.94,SSE,158,0.0,0.0,66,0.00,,---,0.00,VWS V14.01,2013-04-15 09:42:00,
2013-04-15 05:43:00,67.1,55.0,29.94,SSE,158,0.0,0.0,65,0.00,,---,0.00,VWS V14.01,2013-04-15 09:43:00,
2013-04-15 05:44:00,67.1,55.0,29.94,SSE,158,0.0,0.0,65,0.00,,---,0.00,VWS V14.01,2013-04-15 09:44:00,
2013-04-15 05:45:00,67.3,55.1,29.94,South,180,0.0,0.0,65,0.00,,---,0.00,VWS V14.01,2013-04-15 09:45:00,
2013-04-15 05:46:00,67.1,55.0,29.94,SSE,158,0.0,0.0,65,0.00,,---,0.00,VWS V14.01,2013-04-15 09:46:00,
2013-04-15 05:47:00,67.1,55.0,29.94,SSE,158,0.0,0.0,65,0.00,,---,0.00,VWS V14.01,2013-04-15 09:47:00,
2013-04-15 05:48:00,67.1,55.0,29.94,SSE,158,0.0,0.0,65,0.00,,---,0.00,VWS V14.01,2013-04-15 09:48:00,
2013-04-15 05:49:00,67.3,55.1,29.94,South,180,0.0,0.0,65,0.00,,---,0.00,VWS V14.01,2013-04-15 09:49:00,
2013-04-15 05:50:00,67.3,55.1,29.94,South,180,0.0,0.0,65,0.00,,---,0.00,VWS V14.01,2013-04-15 09:50:00,
2013-04-15 05:51:00,67.3,55.1,29.94,SSE,158,0.0,0.0,65,0.00,,---,0.00,VWS V14.01,2013-04-15 09:51:00,
2013-04-15 05:52:00,67.3,55.1,29.94,SSE,158,0.0,0.0,65,0.00,,---,0.00,VWS V14.01,2013-04-15 09:52:00,
2013-04-15 05:53:00,67.3,55.1,29.94,SSW,202,0.0,0.0,65,0.00,,---,0.00,VWS V14.01,2013-04-15 09:53:00,
2013-04-15 05:54:00,67.3,55.1,29.94,South,180,0.0,0.0,65,0.00,,---,0.00,VWS V14.01,2013-04-15 09:54:00,
2013-04-15 05:55:00,67.3,54.7,29.94,South,180,0.0,0.0,64,0.00,,---,0.00,VWS V14.01,2013-04-15 09:55:00,
2013-04-15 05:56:00,67.3,55.1,29.94,SSE,158,0.0,0.0,65,0.00,,---,0.00,VWS V14.01,2013-04-15 09:56:00,
2013-04-15 05:57:00,67.3,54.7,29.94,South,180,0.0,0.0,64,0.00,,---,0.00,VWS V14.01,2013-04-15 09:57:00,
2013-04-15 05:58:00,67.3,54.7,29.94,South,180,0.0,0.0,64,0.00,,---,0.00,VWS V14.01,2013-04-15 09:58:00,
2013-04-15 05:59:00,67.3,54.7,29.94,South,180,0.0,0.0,64,0.00,,---,0.00,VWS V14.01,2013-04-15 09:59:00,
2013-04-15 06:00:00,67.3,54.7,29.94,SSE,158,0.0,0.0,64,0.00,,---,0.00,VWS V14.01,2013-04-15 10:00:00,
2013-04-15 06:01:00,67.3,54.7,29.94,SSE,158,0.0,0.0,64,0.00,,---,0.00,VWS V14.01,2013-04-15 10:01:00,
2013-04-15 06:02:00,67.3,54.7,29.94,SSE,158,0.0,0.0,64,0.00,,---,0.00,VWS V14.01,2013-04-15 10:02:00,
2013-04-15 06:03:00,67.3,54.7,29.94,SSW,202,0.0,0.0,64,0.00,,---,0.00,VWS V14.01,2013-04-15 10:03:00,
2013-04-15 06:04:00,67.3,54.7,29.94,SSE,158,0.0,0.0,64,0.00,,---,0.00,VWS V14.01,2013-04-15 10:04:00,
2013-04-15 06:05:00,67.3,54.7,29.94,SSE,158,0.0,0.0,64,0.00,,---,0.00,VWS V14.01,2013-04-15 10:05:00,
2013-04-15 06:06:00,67.5,55.3,29.94,SSE,158,0.0,0.0,65,0.00,,---,0.00,VWS V14.01,2013-04-15 10:06:00,
2013-04-15 06:07:00,67.5,55.3,29.94,SSW,202,0.0,0.0,65,0.00,,---,0.00,VWS V14.01,2013-04-15 10:07:00,
2013-04-15 06:08:00,67.5,55.3,29.94,SSW,202,0.0,0.0,65,0.00,,---,0.00,VWS V14.01,2013-04-15 10:08:00,
2013-04-15 06:09:00,67.5,55.3,29.94,SSE,158,0.0,0.0,65,0.00,,---,0.00,VWS V14.01,2013-04-15 10:09:00,
2013-04-15 06:10:00,67.5,55.3,29.94,South,180,0.0,0.0,65,0.00,,---,0.00,VWS V14.01,2013-04-15 10:10:00,
2013-04-15 06:11:00,67.6,55.5,29.94,SSE,158,2.0,2.0,65,0.00,,---,0.00,VWS V14.01,2013-04-15 10:11:00,
2013-04-15 06:12:00,67.5,55.3,29.94,South,180,0.0,0.0,65,0.00,,---,0.00,VWS V14.01,2013-04-15 10:12:00,
2013-04-15 06:13:00,67.5,55.3,29.94,SSW,202,0.0,0.0,65,0.00,,---,0.00,VWS V14.01,2013-04-15 10:13:00,
2013-04-15 06:14:00,67.6,55.5,29.94,SSE,158,0.0,0.0,65,0.00,,---,0.00,VWS V14.01,2013-04-15 10:14:00,
2013-04-15 06:15:00,67.6,55.5,29.94,SSE,158,0.0,2.0,65,0.00,,---,0.00,VWS V14.01,2013-04-15 10:15:00,
2013-04-15 06:16:00,67.8,55.6,29.94,SSE,158,3.4,3.4,65,0.00,,---,0.00,VWS V14.01,2013-04-15 10:16:00,
2013-04-15 06:17:00,67.6,55.5,29.94,SSW,202,0.0,0.0,65,0.00,,---,0.00,VWS V14.01,2013-04-15 10:17:00,
2013-04-15 06:18:00,67.6,55.5,29.94,SSE,158,0.0,0.0,65,0.00,,---,0.00,VWS V14.01,2013-04-15 10:18:00,
2013-04-15 06:19:00,67.6,55.5,29.94,SSE,158,2.7,2.7,65,0.00,,---,0.00,VWS V14.01,2013-04-15 10:19:00,
2013-04-15 06:20:00,67.8,55.6,29.94,SSE,158,1.1,3.4,65,0.00,,---,0.00,VWS V14.01,2013-04-15 10:20:00,
2013-04-15 06:21:00,68.2,55.1,29.94,SSE,158,1.6,3.4,63,0.00,,---,0.00,VWS V14.01,2013-04-15 10:21:00,
2013-04-15 06:22:00,68.0,55.4,29.94,South,180,1.3,1.3,64,0.00,,---,0.00,VWS V14.01,2013-04-15 10:22:00,
2013-04-15 06:23:00,68.0,55.0,29.94,SSE,158,2.7,2.7,63,0.00,,---,0.00,VWS V14.01,2013-04-15 10:23:00,
2013-04-15 06:24:00,68.2,55.1,29.94,SSW,202,0.0,4.0,63,0.00,,---,0.00,VWS V14.01,2013-04-15 10:24:00,
2013-04-15 06:25:00,68.2,55.1,29.94,South,180,1.3,3.4,63,0.00,,---,0.00,VWS V14.01,2013-04-15 10:25:00,
2013-04-15 06:26:00,68.4,54.8,29.94,SSE,158,2.5,3.8,62,0.00,,---,0.00,VWS V14.01,2013-04-15 10:26:00,
2013-04-15 06:27:00,68.2,55.1,29.94,SSW,202,4.3,4.3,63,0.00,,---,0.00,VWS V14.01,2013-04-15 10:27:00,
2013-04-15 06:28:00,68.4,55.3,29.94,SSE,158,0.0,4.3,63,0.00,,---,0.00,VWS V14.01,2013-04-15 10:28:00,
2013-04-15 06:29:00,68.4,54.8,29.94,SSE,158,1.1,3.4,62,0.00,,---,0.00,VWS V14.01,2013-04-15 10:29:00,
2013-04-15 06:30:00,68.4,54.8,29.94,SSE,158,1.3,3.8,62,0.00,,---,0.00,VWS V14.01,2013-04-15 10:30:00,
2013-04-15 06:31:00,68.5,55.0,29.94,South,180,5.6,5.6,62,0.00,,---,0.00,VWS V14.01,2013-04-15 10:31:00,
2013-04-15 06:32:00,68.5,55.0,29.94,South,180,0.9,5.4,62,0.00,,---,0.00,VWS V14.01,2013-04-15 10:32:00,
2013-04-15 06:33:00,68.5,55.0,29.94,SSE,158,3.4,3.6,62,0.00,,---,0.00,VWS V14.01,2013-04-15 10:33:00,
2013-04-15 06:34:00,68.5,55.0,29.94,SSE,158,0.0,3.4,62,0.00,,---,0.00,VWS V14.01,2013-04-15 10:34:00,
2013-04-15 06:35:00,68.5,55.0,29.94,South,180,5.6,5.6,62,0.00,,---,0.00,VWS V14.01,2013-04-15 10:35:00,
2013-04-15 06:36:00,68.7,54.3,29.94,SSW,202,2.7,6.3,60,0.00,,---,0.00,VWS V14.01,2013-04-15 10:36:00,
2013-04-15 06:37:00,68.5,54.6,29.94,South,180,1.3,1.3,61,0.00,,---,0.00,VWS V14.01,2013-04-15 10:37:00,
2013-04-15 06:38:00,68.5,54.6,29.94,SSE,158,3.1,3.1,61,0.00,,---,0.00,VWS V14.01,2013-04-15 10:38:00,
2013-04-15 06:39:00,68.7,54.7,29.94,SSE,158,1.1,3.6,61,0.00,,---,0.00,VWS V14.01,2013-04-15 10:39:00,
2013-04-15 06:40:00,68.7,54.3,29.94,SSW,202,2.7,6.3,60,0.00,,---,0.00,VWS V14.01,2013-04-15 10:40:00,
2013-04-15 06:41:00,68.9,54.5,29.91,South,180,4.3,4.7,60,0.00,,---,0.00,VWS V14.01,2013-04-15 10:41:00,
2013-04-15 06:42:00,68.7,54.3,29.91,SE,135,1.3,2.2,60,0.00,,---,0.00,VWS V14.01,2013-04-15 10:42:00,
2013-04-15 06:43:00,68.9,54.5,29.91,SSE,158,2.9,2.9,60,0.00,,---,0.00,VWS V14.01,2013-04-15 10:43:00,
2013-04-15 06:44:00,68.9,54.5,29.91,SSE,158,0.0,2.9,60,0.00,,---,0.00,VWS V14.01,2013-04-15 10:44:00,
2013-04-15 06:45:00,68.9,54.5,29.91,South,180,4.3,4.7,60,0.00,,---,0.00,VWS V14.01,2013-04-15 10:45:00,
2013-04-15 06:46:00,69.1,54.2,29.91,SSE,158,0.0,0.0,59,0.00,,---,0.00,VWS V14.01,2013-04-15 10:46:00,
2013-04-15 06:47:00,69.1,54.2,29.91,SSE,158,1.1,6.7,59,0.00,,---,0.00,VWS V14.01,2013-04-15 10:47:00,
2013-04-15 06:48:00,69.1,54.2,29.91,South,180,0.0,1.1,59,0.00,,---,0.00,VWS V14.01,2013-04-15 10:48:00,
2013-04-15 06:49:00,69.1,54.2,29.91,SSE,158,0.0,0.0,59,0.00,,---,0.00,VWS V14.01,2013-04-15 10:49:00,
2013-04-15 06:50:00,69.1,54.2,29.91,SSE,158,0.0,0.0,59,0.00,,---,0.00,VWS V14.01,2013-04-15 10:50:00,
2013-04-15 06:51:00,68.9,54.5,29.91,NNW,338,0.0,0.0,60,0.00,,---,0.00,VWS V14.01,2013-04-15 10:51:00,
2013-04-15 06:52:00,68.9,54.5,29.91,SW,225,0.0,0.9,60,0.00,,---,0.00,VWS V14.01,2013-04-15 10:52:00,
2013-04-15 06:53:00,68.9,54.5,29.91,SW,225,0.0,0.0,60,0.00,,---,0.00,VWS V14.01,2013-04-15 10:53:00,
2013-04-15 06:54:00,68.9,54.5,29.91,NNW,338,0.0,0.0,60,0.00,,---,0.00,VWS V14.01,2013-04-15 10:54:00,
2013-04-15 06:55:00,68.9,54.5,29.91,NNW,338,0.0,0.0,60,0.00,,---,0.00,VWS V14.01,2013-04-15 10:55:00,
2013-04-15 06:56:00,68.9,54.5,29.94,SSW,202,0.0,0.0,60,0.00,,---,0.00,VWS V14.01,2013-04-15 10:56:00,
2013-04-15 06:57:00,68.9,54.5,29.94,SSW,202,0.0,0.0,60,0.00,,---,0.00,VWS V14.01,2013-04-15 10:57:00,
2013-04-15 06:58:00,68.9,54.5,29.94,South,180,0.0,0.0,60,0.00,,---,0.00,VWS V14.01,2013-04-15 10:58:00,
2013-04-15 06:59:00,68.9,54.5,29.94,South,180,0.0,0.0,60,0.00,,---,0.00,VWS V14.01,2013-04-15 10:59:00,
2013-04-15 07:00:00,68.9,54.5,29.94,SSW,202,0.0,0.0,60,0.00,,---,0.00,VWS V14.01,2013-04-15 11:00:00,
2013-04-15 07:01:00,68.9,54.5,29.94,SSW,202,0.0,0.0,60,0.00,,---,0.00,VWS V14.01,2013-04-15 11:01:00,
2013-04-15 07:02:00,69.1,54.2,29.94,South,180,0.0,0.0,59,0.00,,---,0.00,VWS V14.01,2013-04-15 11:02:00,
2013-04-15 07:03:00,68.9,54.5,29.94,SSW,202,0.0,0.0,60,0.00,,---,0.00,VWS V14.01,2013-04-15 11:03:00,
2013-04-15 07:04:00,68.9,54.5,29.94,WSW,248,2.7,2.7,60,0.00,,---,0.00,VWS V14.01,2013-04-15 11:04:00,
2013-04-15 07:05:00,69.1,54.2,29.94,SSE,158,0.0,2.7,59,0.00,,---,0.00,VWS V14.01,2013-04-15 11:05:00,
2013-04-15 07:06:00,69.1,54.2,29.94,SSW,202,0.0,0.0,59,0.00,,---,0.00,VWS V14.01,2013-04-15 11:06:00,
2013-04-15 07:07:00,69.1,54.2,29.94,SSE,158,0.0,0.0,59,0.00,,---,0.00,VWS V14.01,2013-04-15 11:07:00,
2013-04-15 07:08:00,69.1,54.2,29.94,South,180,0.0,0.0,59,0.00,,---,0.00,VWS V14.01,2013-04-15 11:08:00,
2013-04-15 07:09:00,69.1,54.2,29.94,South,180,0.0,0.0,59,0.00,,---,0.00,VWS V14.01,2013-04-15 11:09:00,
2013-04-15 07:10:00,69.1,54.2,29.94,South,180,0.0,0.0,59,0.00,,---,0.00,VWS V14.01,2013-04-15 11:10:00,
2013-04-15 07:11:00,69.1,54.2,29.94,SSE,158,0.0,0.0,59,0.00,,---,0.00,VWS V14.01,2013-04-15 11:11:00,
2013-04-15 07:12:00,69.1,54.2,29.94,SSE,158,0.0,0.0,59,0.00,,---,0.00,VWS V14.01,2013-04-15 11:12:00,
2013-04-15 07:13:00,69.1,54.2,29.94,SSW,202,0.0,2.2,59,0.00,,---,0.00,VWS V14.01,2013-04-15 11:13:00,
2013-04-15 07:14:00,69.1,54.2,29.94,SSW,202,0.0,0.0,59,0.00,,---,0.00,VWS V14.01,2013-04-15 11:14:00,
2013-04-15 07:15:00,69.1,54.2,29.94,SSE,158,0.0,0.0,59,0.00,,---,0.00,VWS V14.01,2013-04-15 11:15:00,
2013-04-15 07:16:00,69.1,54.2,29.94,SSE,158,0.0,0.0,59,0.00,,---,0.00,VWS V14.01,2013-04-15 11:16:00,
2013-04-15 07:17:00,69.3,54.3,29.94,SSE,158,0.0,0.0,59,0.00,,---,0.00,VWS V14.01,2013-04-15 11:17:00,
2013-04-15 07:18:00,69.1,54.2,29.94,SSE,158,2.0,2.7,59,0.00,,---,0.00,VWS V14.01,2013-04-15 11:18:00,
2013-04-15 07:19:00,69.1,54.2,29.94,SSE,158,0.0,2.0,59,0.00,,---,0.00,VWS V14.01,2013-04-15 11:19:00,
2013-04-15 07:20:00,69.3,54.3,29.94,SSE,158,0.0,0.0,59,0.00,,---,0.00,VWS V14.01,2013-04-15 11:20:00,
2013-04-15 07:21:00,69.3,54.3,29.94,SE,135,0.0,0.0,59,0.00,,---,0.00,VWS V14.01,2013-04-15 11:21:00,
2013-04-15 07:22:00,69.3,54.3,29.94,SE,135,0.0,0.0,59,0.00,,---,0.00,VWS V14.01,2013-04-15 11:22:00,
2013-04-15 07:23:00,69.1,54.2,29.94,SSE,158,0.0,0.0,59,0.00,,---,0.00,VWS V14.01,2013-04-15 11:23:00,
2013-04-15 07:24:00,69.1,54.2,29.94,SE,135,0.0,0.0,59,0.00,,---,0.00,VWS V14.01,2013-04-15 11:24:00,
2013-04-15 07:25:00,69.3,54.3,29.94,SE,135,0.0,0.0,59,0.00,,---,0.00,VWS V14.01,2013-04-15 11:25:00,
2013-04-15 07:26:00,69.3,54.3,29.94,SE,135,0.0,0.0,59,0.00,,---,0.00,VWS V14.01,2013-04-15 11:26:00,
2013-04-15 07:27:00,69.3,54.3,29.97,SSE,158,0.0,0.0,59,0.00,,---,0.00,VWS V14.01,2013-04-15 11:27:00,
2013-04-15 07:28:00,69.3,54.3,29.97,SSE,158,0.0,0.0,59,0.00,,---,0.00,VWS V14.01,2013-04-15 11:28:00,
2013-04-15 07:29:00,69.1,54.2,29.97,SSE,158,0.0,0.0,59,0.00,,---,0.00,VWS V14.01,2013-04-15 11:29:00,
2013-04-15 07:30:00,69.1,54.2,29.97,SE,135,0.0,0.0,59,0.00,,---,0.00,VWS V14.01,2013-04-15 11:30:00,
2013-04-15 07:31:00,69.3,54.3,29.97,SSE,158,0.0,0.0,59,0.00,,---,0.00,VWS V14.01,2013-04-15 11:31:00,
2013-04-15 07:32:00,69.4,54.5,29.97,SSE,158,0.0,0.0,59,0.00,,---,0.00,VWS V14.01,2013-04-15 11:32:00,
2013-04-15 07:33:00,69.3,54.3,29.97,SSE,158,0.0,0.0,59,0.00,,---,0.00,VWS V14.01,2013-04-15 11:33:00,
2013-04-15 07:34:00,69.3,54.3,29.97,SSE,158,0.0,0.0,59,0.00,,---,0.00,VWS V14.01,2013-04-15 11:34:00,
2013-04-15 07:35:00,69.3,54.3,29.97,SSW,202,0.0,0.0,59,0.00,,---,0.00,VWS V14.01,2013-04-15 11:35:00,
2013-04-15 07:36:00,69.4,54.5,29.97,SSE,158,0.0,0.0,59,0.00,,---,0.00,VWS V14.01,2013-04-15 11:36:00,
2013-04-15 07:37:00,69.4,54.0,29.97,SE,135,0.0,1.3,58,0.00,,---,0.00,VWS V14.01,2013-04-15 11:37:00,
2013-04-15 07:38:00,69.4,54.0,29.97,SSE,158,0.0,0.0,58,0.00,,---,0.00,VWS V14.01,2013-04-15 11:38:00,
2013-04-15 07:39:00,69.4,54.0,29.97,SSE,158,0.0,0.0,58,0.00,,---,0.00,VWS V14.01,2013-04-15 11:39:00,
2013-04-15 07:40:00,69.4,54.0,29.97,SSE,158,1.3,1.3,58,0.00,,---,0.00,VWS V14.01,2013-04-15 11:40:00,
2013-04-15 07:41:00,69.4,54.0,29.97,SE,135,0.0,1.3,58,0.00,,---,0.00,VWS V14.01,2013-04-15 11:41:00,
2013-04-15 07:42:00,69.4,54.0,29.97,SSW,202,0.0,0.0,58,0.00,,---,0.00,VWS V14.01,2013-04-15 11:42:00,
2013-04-15 07:43:00,69.4,54.0,29.97,SSE,158,0.0,0.0,58,0.00,,---,0.00,VWS V14.01,2013-04-15 11:43:00,
2013-04-15 07:44:00,69.4,54.0,29.97,South,180,0.0,0.0,58,0.00,,---,0.00,VWS V14.01,2013-04-15 11:44:00,
2013-04-15 07:45:00,69.4,54.0,29.97,SSW,202,0.0,0.0,58,0.00,,---,0.00,VWS V14.01,2013-04-15 11:45:00,
2013-04-15 07:46:00,69.4,54.0,29.97,SSW,202,0.0,0.0,58,0.00,,---,0.00,VWS V14.01,2013-04-15 11:46:00,
2013-04-15 07:47:00,69.4,54.5,29.97,ENE,68,0.0,0.0,59,0.00,,---,0.00,VWS V14.01,2013-04-15 11:47:00,
2013-04-15 07:48:00,69.4,54.0,29.97,WSW,248,0.0,0.0,58,0.00,,---,0.00,VWS V14.01,2013-04-15 11:48:00,
2013-04-15 07:49:00,69.3,54.3,29.97,WSW,248,0.0,0.0,59,0.00,,---,0.00,VWS V14.01,2013-04-15 11:49:00,
2013-04-15 07:50:00,69.3,53.9,29.97,North,0,0.0,0.0,58,0.00,,---,0.00,VWS V14.01,2013-04-15 11:50:00,
2013-04-15 07:51:00,69.4,54.5,29.97,ENE,68,0.0,0.0,59,0.00,,---,0.00,VWS V14.01,2013-04-15 11:51:00,
2013-04-15 07:52:00,69.4,54.5,29.97,SSE,158,0.0,0.0,59,0.00,,---,0.00,VWS V14.01,2013-04-15 11:52:00,
2013-04-15 07:53:00,69.4,54.5,29.97,NNE,22,0.0,0.0,59,0.00,,---,0.00,VWS V14.01,2013-04-15 11:53:00,
2013-04-15 07:54:00,69.4,54.5,29.97,SSE,158,0.0,0.0,59,0.00,,---,0.00,VWS V14.01,2013-04-15 11:54:00,
2013-04-15 07:55:00,69.4,54.5,29.97,SSE,158,0.0,0.0,59,0.00,,---,0.00,VWS V14.01,2013-04-15 11:55:00,
2013-04-15 07:56:00,69.4,54.5,29.97,SSE,158,0.0,0.0,59,0.00,,---,0.00,VWS V14.01,2013-04-15 11:56:00,
2013-04-15 07:57:00,70.0,54.5,29.97,SSE,158,0.0,0.0,58,0.00,,---,0.00,VWS V14.01,2013-04-15 11:57:00,
2013-04-15 07:58:00,69.6,54.7,29.97,SSE,158,1.6,2.9,59,0.00,,---,0.00,VWS V14.01,2013-04-15 11:58:00,
2013-04-15 07:59:00,69.8,54.4,29.97,SSE,158,0.0,1.6,58,0.00,,---,0.00,VWS V14.01,2013-04-15 11:59:00,
2013-04-15 08:00:00,70.0,54.5,29.97,SSE,158,0.0,0.0,58,0.00,,---,0.00,VWS V14.01,2013-04-15 12:00:00,
2013-04-15 08:01:00,70.0,54.5,29.97,SSE,158,0.0,0.0,58,0.00,,---,0.00,VWS V14.01,2013-04-15 12:01:00,
2013-04-15 08:02:00,70.7,54.7,29.97,SE,135,0.0,0.0,57,0.00,,---,0.00,VWS V14.01,2013-04-15 12:02:00,
2013-04-15 08:03:00,70.2,54.2,29.97,SSE,158,0.0,2.5,57,0.00,,---,0.00,VWS V14.01,2013-04-15 12:03:00,
2013-04-15 08:04:00,70.3,54.4,29.97,SE,135,0.0,0.0,57,0.00,,---,0.00,VWS V14.01,2013-04-15 12:04:00,
2013-04-15 08:05:00,70.5,54.6,29.97,SE,135,0.0,0.0,57,0.00,,---,0.00,VWS V14.01,2013-04-15 12:05:00,
2013-04-15 08:06:00,70.5,54.6,29.97,SE,135,0.0,0.0,57,0.00,,---,0.00,VWS V14.01,2013-04-15 12:06:00,
2013-04-15 08:07:00,71.6,56.1,29.97,SSE,158,0.0,0.0,58,0.00,,---,0.00,VWS V14.01,2013-04-15 12:07:00,
2013-04-15 08:08:00,70.9,54.9,29.97,SE,135,0.0,0.0,57,0.00,,---,0.00,VWS V14.01,2013-04-15 12:08:00,
2013-04-15 08:09:00,71.1,55.5,29.97,ESE,112,0.0,0.0,58,0.00,,---,0.00,VWS V14.01,2013-04-15 12:09:00,
2013-04-15 08:10:00,71.2,55.7,29.97,East,90,0.0,0.0,58,0.00,,---,0.00,VWS V14.01,2013-04-15 12:10:00,
2013-04-15 08:11:00,71.6,56.1,29.97,SSE,158,0.0,0.0,58,0.00,,---,0.00,VWS V14.01,2013-04-15 12:11:00,
2013-04-15 08:12:00,72.7,56.6,29.97,NE,45,0.0,0.0,57,0.00,,---,0.00,VWS V14.01,2013-04-15 12:12:00,
2013-04-15 08:13:00,72.0,56.4,29.97,NNE,22,0.0,0.0,58,0.00,,---,0.00,VWS V14.01,2013-04-15 12:13:00,
2013-04-15 08:14:00,72.1,56.6,29.97,NE,45,0.0,0.0,58,0.00,,---,0.00,VWS V14.01,2013-04-15 12:14:00,
2013-04-15 08:15:00,72.5,56.4,29.97,NE,45,0.0,0.0,57,0.00,,---,0.00,VWS V14.01,2013-04-15 12:15:00,
2013-04-15 08:16:00,72.7,56.6,29.97,NE,45,0.0,0.0,57,0.00,,---,0.00,VWS V14.01,2013-04-15 12:16:00,
2013-04-15 08:17:00,73.2,55.6,29.97,SSE,158,0.0,0.0,54,0.00,,---,0.00,VWS V14.01,2013-04-15 12:17:00,
2013-04-15 08:18:00,73.0,56.9,29.97,ESE,112,0.0,0.0,57,0.00,,---,0.00,VWS V14.01,2013-04-15 12:18:00,
2013-04-15 08:19:00,73.2,56.1,29.97,ENE,68,0.0,0.0,55,0.00,,---,0.00,VWS V14.01,2013-04-15 12:19:00,
2013-04-15 08:20:00,73.2,56.1,29.97,SSE,158,0.0,0.0,55,0.00,,---,0.00,VWS V14.01,2013-04-15 12:20:00,
2013-04-15 08:21:00,73.4,56.3,29.97,SSE,158,0.0,0.0,55,0.00,,---,0.00,VWS V14.01,2013-04-15 12:21:00,
2013-04-15 08:22:00,72.7,53.0,29.97,SSE,158,1.3,1.3,50,0.00,,---,0.00,VWS V14.01,2013-04-15 12:22:00,
2013-04-15 08:23:00,73.0,54.9,29.97,SSE,158,0.0,0.0,53,0.00,,---,0.00,VWS V14.01,2013-04-15 12:23:00,
2013-04-15 08:24:00,73.0,54.9,29.97,SSE,158,0.0,0.0,53,0.00,,---,0.00,VWS V14.01,2013-04-15 12:24:00,
2013-04-15 08:25:00,72.9,54.8,29.97,SSE,158,0.0,0.0,53,0.00,,---,0.00,VWS V14.01,2013-04-15 12:25:00,
2013-04-15 08:26:00,72.7,53.0,29.97,SSE,158,1.3,3.1,50,0.00,,---,0.00,VWS V14.01,2013-04-15 12:26:00,
2013-04-15 08:27:00,72.7,53.0,29.97,SSE,158,2.0,2.5,50,0.00,,---,0.00,VWS V14.01,2013-04-15 12:27:00,
2013-04-15 08:28:00,72.3,51.0,29.97,SSE,158,2.7,4.9,47,0.00,,---,0.00,VWS V14.01,2013-04-15 12:28:00,
2013-04-15 08:29:00,72.5,51.7,29.97,SSE,158,3.1,4.0,48,0.00,,---,0.00,VWS V14.01,2013-04-15 12:29:00,
2013-04-15 08:30:00,72.3,51.0,29.97,SE,135,2.5,6.0,47,0.00,,---,0.00,VWS V14.01,2013-04-15 12:30:00,
2013-04-15 08:31:00,72.3,51.0,29.97,SSW,202,4.9,4.9,47,0.00,,---,0.00,VWS V14.01,2013-04-15 12:31:00,
2013-04-15 08:32:00,72.3,51.0,29.97,SSE,158,6.0,6.0,47,0.00,,---,0.00,VWS V14.01,2013-04-15 12:32:00,
2013-04-15 08:33:00,72.3,51.5,29.97,SSE,158,2.5,4.0,48,0.00,,---,0.00,VWS V14.01,2013-04-15 12:33:00,
2013-04-15 08:34:00,72.3,51.5,29.97,SSE,158,0.0,2.2,48,0.00,,---,0.00,VWS V14.01,2013-04-15 12:34:00,
2013-04-15 08:35:00,72.3,51.5,29.97,SSE,158,1.1,1.1,48,0.00,,---,0.00,VWS V14.01,2013-04-15 12:35:00,
2013-04-15 08:36:00,72.3,51.5,29.97,SE,135,2.9,2.9,48,0.00,,---,0.00,VWS V14.01,2013-04-15 12:36:00,
2013-04-15 08:37:00,72.3,51.5,29.97,SSE,158,1.3,4.0,48,0.00,,---,0.00,VWS V14.01,2013-04-15 12:37:00,
2013-04-15 08:38:00,72.5,51.7,29.97,SSE,158,2.5,2.5,48,0.00,,---,0.00,VWS V14.01,2013-04-15 12:38:00,
2013-04-15 08:39:00,72.3,51.5,29.97,SSW,202,2.2,4.0,48,0.00,,---,0.00,VWS V14.01,2013-04-15 12:39:00,
2013-04-15 08:40:00,72.5,51.7,29.97,SSW,202,2.7,2.9,48,0.00,,---,0.00,VWS V14.01,2013-04-15 12:40:00,
2013-04-15 08:41:00,72.5,51.7,29.97,SE,135,1.6,2.7,48,0.00,,---,0.00,VWS V14.01,2013-04-15 12:41:00,
2013-04-15 08:42:00,72.5,51.7,29.97,SSE,158,2.5,2.5,48,0.00,,---,0.00,VWS V14.01,2013-04-15 12:42:00,
2013-04-15 08:43:00,72.7,51.9,29.97,South,180,1.1,2.7,48,0.00,,---,0.00,VWS V14.01,2013-04-15 12:43:00,
2013-04-15 08:44:00,72.5,51.7,29.97,SSE,158,0.0,1.3,48,0.00,,---,0.00,VWS V14.01,2013-04-15 12:44:00,
2013-04-15 08:45:00,72.5,51.2,29.97,SSE,158,5.8,5.8,47,0.00,,---,0.00,VWS V14.01,2013-04-15 12:45:00,
2013-04-15 08:46:00,72.5,51.2,29.97,SSE,158,2.7,6.0,47,0.00,,---,0.00,VWS V14.01,2013-04-15 12:46:00,
2013-04-15 08:47:00,72.7,51.9,29.97,South,180,0.9,2.7,48,0.00,,---,0.00,VWS V14.01,2013-04-15 12:47:00,
2013-04-15 08:48:00,72.9,52.6,29.97,SSE,158,0.0,2.0,49,0.00,,---,0.00,VWS V14.01,2013-04-15 12:48:00,
2013-04-15 08:49:00,72.7,51.9,29.97,SSE,158,0.0,1.1,48,0.00,,---,0.00,VWS V14.01,2013-04-15 12:49:00,
2013-04-15 08:50:00,72.9,52.0,29.97,SSE,158,0.0,0.0,48,0.00,,---,0.00,VWS V14.01,2013-04-15 12:50:00,
2013-04-15 08:51:00,72.9,52.6,29.97,SSE,158,2.0,2.0,49,0.00,,---,0.00,VWS V14.01,2013-04-15 12:51:00,
2013-04-15 08:52:00,73.0,52.8,29.97,SSE,158,0.0,2.0,49,0.00,,---,0.00,VWS V14.01,2013-04-15 12:52:00,
2013-04-15 08:53:00,73.2,52.9,29.97,SSE,158,1.1,2.7,49,0.00,,---,0.00,VWS V14.01,2013-04-15 12:53:00,
2013-04-15 08:54:00,73.0,52.8,29.97,SSE,158,0.0,2.9,49,0.00,,---,0.00,VWS V14.01,2013-04-15 12:54:00,
2013-04-15 08:55:00,73.2,52.9,29.97,SSE,158,0.0,0.0,49,0.00,,---,0.00,VWS V14.01,2013-04-15 12:55:00,
2013-04-15 08:56:00,73.2,52.9,29.97,SSW,202,2.7,2.7,49,0.00,,---,0.00,VWS V14.01,2013-04-15 12:56:00,
2013-04-15 08:57:00,73.2,52.9,29.97,SSE,158,1.1,2.7,49,0.00,,---,0.00,VWS V14.01,2013-04-15 12:57:00,
2013-04-15 08:58:00,73.4,52.0,29.97,SSW,202,0.0,4.0,47,0.00,,---,0.00,VWS V14.01,2013-04-15 12:58:00,
2013-04-15 08:59:00,73.4,52.5,29.97,SSE,158,0.9,2.0,48,0.00,,---,0.00,VWS V14.01,2013-04-15 12:59:00,
2013-04-15 09:00:00,73.4,52.5,29.97,SSE,158,2.5,2.5,48,0.00,,---,0.00,VWS V14.01,2013-04-15 13:00:00,
2013-04-15 09:01:00,73.4,52.0,29.97,SSE,158,3.1,3.6,47,0.00,,---,0.00,VWS V14.01,2013-04-15 13:01:00,
2013-04-15 09:02:00,73.4,52.0,29.97,SSW,202,0.0,4.0,47,0.00,,---,0.00,VWS V14.01,2013-04-15 13:02:00,
2013-04-15 09:03:00,73.8,53.4,29.97,SE,135,1.6,1.6,49,0.00,,---,0.00,VWS V14.01,2013-04-15 13:03:00,
2013-04-15 09:04:00,73.6,52.7,29.97,SSE,158,2.5,3.8,48,0.00,,---,0.00,VWS V14.01,2013-04-15 13:04:00,
2013-04-15 09:05:00,73.6,52.7,29.97,SSE,158,1.3,3.1,48,0.00,,---,0.00,VWS V14.01,2013-04-15 13:05:00,
2013-04-15 09:06:00,73.6,52.7,29.97,South,180,1.3,4.9,48,0.00,,---,0.00,VWS V14.01,2013-04-15 13:06:00,
2013-04-15 09:07:00,73.8,52.9,29.97,SE,135,1.6,2.5,48,0.00,,---,0.00,VWS V14.01,2013-04-15 13:07:00,
2013-04-15 09:08:00,74.1,53.8,29.97,SSW,202,1.3,3.8,49,0.00,,---,0.00,VWS V14.01,2013-04-15 13:08:00,
2013-04-15 09:09:00,73.9,53.6,29.97,SSE,158,3.1,3.1,49,0.00,,---,0.00,VWS V14.01,2013-04-15 13:09:00,
2013-04-15 09:10:00,73.9,53.6,29.97,ENE,68,0.9,3.4,49,0.00,,---,0.00,VWS V14.01,2013-04-15 13:10:00,
2013-04-15 09:11:00,73.9,53.6,29.97,SSE,158,3.8,3.8,49,0.00,,---,0.00,VWS V14.01,2013-04-15 13:11:00,
2013-04-15 09:12:00,74.1,53.8,29.97,SSW,202,1.3,3.8,49,0.00,,---,0.00,VWS V14.01,2013-04-15 13:12:00,
2013-04-15 09:13:00,74.7,53.1,29.97,SSE,158,4.0,6.0,47,0.00,,---,0.00,VWS V14.01,2013-04-15 13:13:00,
2013-04-15 09:14:00,74.5,54.1,29.97,SSE,158,0.0,0.0,49,0.00,,---,0.00,VWS V14.01,2013-04-15 13:14:00,
2013-04-15 09:15:00,74.7,53.7,29.97,SSE,158,4.3,4.3,48,0.00,,---,0.00,VWS V14.01,2013-04-15 13:15:00,
2013-04-15 09:16:00,74.7,53.1,29.97,SSE,158,6.0,6.3,47,0.00,,---,0.00,VWS V14.01,2013-04-15 13:16:00,
2013-04-15 09:17:00,74.7,53.1,29.97,SSE,158,4.0,6.0,47,0.00,,---,0.00,VWS V14.01,2013-04-15 13:17:00,
2013-04-15 09:18:00,74.7,53.7,29.97,SSE,158,0.9,3.4,48,0.00,,---,0.00,VWS V14.01,2013-04-15 13:18:00,
2013-04-15 09:19:00,74.7,53.7,29.97,SSW,202,3.1,3.1,48,0.00,,---,0.00,VWS V14.01,2013-04-15 13:19:00,
2013-04-15 09:20:00,74.7,53.7,29.97,SSE,158,4.0,5.8,48,0.00,,---,0.00,VWS V14.01,2013-04-15 13:20:00,
2013-04-15 09:21:00,74.7,53.7,29.97,SSE,158,1.6,4.0,48,0.00,,---,0.00,VWS V14.01,2013-04-15 13:21:00,
2013-04-15 09:22:00,74.7,53.7,29.97,SSE,158,0.9,3.4,48,0.00,,---,0.00,VWS V14.01,2013-04-15 13:22:00,
2013-04-15 09:23:00,75.0,54.0,29.97,SSE,158,2.5,2.7,48,0.00,,---,0.00,VWS V14.01,2013-04-15 13:23:00,
2013-04-15 09:24:00,74.8,53.8,29.97,SE,135,2.2,2.2,48,0.00,,---,0.00,VWS V14.01,2013-04-15 13:24:00,
2013-04-15 09:25:00,74.8,53.8,29.97,SSW,202,2.2,2.7,48,0.00,,---,0.00,VWS V14.01,2013-04-15 13:25:00,
2013-04-15 09:26:00,75.0,54.0,29.97,SSE,158,0.9,2.2,48,0.00,,---,0.00,VWS V14.01,2013-04-15 13:26:00,
2013-04-15 09:27:00,75.0,54.0,29.97,SSE,158,2.5,2.7,48,0.00,,---,0.00,VWS V14.01,2013-04-15 13:27:00,
2013-04-15 09:28:00,74.7,53.1,29.97,SSE,158,0.0,2.0,47,0.00,,---,0.00,VWS V14.01,2013-04-15 13:28:00,
2013-04-15 09:29:00,74.8,53.3,29.97,SSE,158,4.9,4.9,47,0.00,,---,0.00,VWS V14.01,2013-04-15 13:29:00,
2013-04-15 09:30:00,74.8,52.7,29.97,SSE,158,1.6,4.9,46,0.00,,---,0.00,VWS V14.01,2013-04-15 13:30:00,
2013-04-15 09:31:00,74.7,53.1,29.97,SSE,158,1.1,1.6,47,0.00,,---,0.00,VWS V14.01,2013-04-15 13:31:00,
2013-04-15 09:32:00,74.7,53.1,29.97,SSE,158,0.0,2.0,47,0.00,,---,0.00,VWS V14.01,2013-04-15 13:32:00,
2013-04-15 09:33:00,75.2,53.0,29.97,SSE,158,1.6,3.6,46,0.00,,---,0.00,VWS V14.01,2013-04-15 13:33:00,
2013-04-15 09:34:00,75.0,54.0,29.97,SSE,158,3.4,3.4,48,0.00,,---,0.00,VWS V14.01,2013-04-15 13:34:00,
2013-04-15 09:35:00,75.2,53.6,29.97,SSE,158,3.8,3.8,47,0.00,,---,0.00,VWS V14.01,2013-04-15 13:35:00,
2013-04-15 09:36:00,75.2,53.0,29.97,SE,135,1.3,3.8,46,0.00,,---,0.00,VWS V14.01,2013-04-15 13:36:00,
2013-04-15 09:37:00,75.2,53.0,29.97,SSE,158,1.6,3.6,46,0.00,,---,0.00,VWS V14.01,2013-04-15 13:37:00,
2013-04-15 09:38:00,74.7,52.5,29.97,SSE,158,3.8,5.6,46,0.00,,---,0.00,VWS V14.01,2013-04-15 13:38:00,
2013-04-15 09:39:00,75.0,52.3,29.97,SE,135,4.0,4.0,45,0.00,,---,0.00,VWS V14.01,2013-04-15 13:39:00,
2013-04-15 09:40:00,74.8,52.7,29.97,South,180,2.7,4.0,46,0.00,,---,0.00,VWS V14.01,2013-04-15 13:40:00,
2013-04-15 09:41:00,74.8,52.7,29.97,SSE,158,4.7,5.8,46,0.00,,---,0.00,VWS V14.01,2013-04-15 13:41:00,
2013-04-15 09:42:00,74.7,52.5,29.97,SSE,158,3.8,5.6,46,0.00,,---,0.00,VWS V14.01,2013-04-15 13:42:00,
2013-04-15 09:43:00,75.4,52.6,29.97,SSW,202,2.0,4.3,45,0.00,,---,0.00,VWS V14.01,2013-04-15 13:43:00,
2013-04-15 09:44:00,74.7,52.5,29.97,SSE,158,2.9,3.8,46,0.00,,---,0.00,VWS V14.01,2013-04-15 13:44:00,
2013-04-15 09:45:00,74.7,52.5,29.97,SSE,158,2.0,4.7,46,0.00,,---,0.00,VWS V14.01,2013-04-15 13:45:00,
2013-04-15 09:46:00,75.0,52.9,29.97,South,180,4.3,4.3,46,0.00,,---,0.00,VWS V14.01,2013-04-15 13:46:00,
2013-04-15 09:47:00,75.4,52.6,29.97,SSW,202,2.0,4.3,45,0.00,,---,0.00,VWS V14.01,2013-04-15 13:47:00,
2013-04-15 09:48:00,77.0,54.1,29.97,SSW,202,0.0,3.1,45,0.00,,---,0.00,VWS V14.01,2013-04-15 13:48:00,
2013-04-15 09:49:00,76.3,54.0,29.97,SE,135,1.3,1.6,46,0.00,,---,0.00,VWS V14.01,2013-04-15 13:49:00,
2013-04-15 09:50:00,76.5,54.2,29.97,SSE,158,1.6,1.6,46,0.00,,---,0.00,VWS V14.01,2013-04-15 13:50:00,
2013-04-15 09:51:00,76.6,54.3,29.97,SSW,202,3.1,3.1,46,0.00,,---,0.00,VWS V14.01,2013-04-15 13:51:00,
2013-04-15 09:52:00,77.2,54.2,29.97,SW,225,0.0,3.1,45,0.00,,---,0.00,VWS V14.01,2013-04-15 13:52:00,
2013-04-15 09:53:00,77.5,51.3,29.94,SSE,158,3.8,6.5,40,0.00,,---,0.00,VWS V14.01,2013-04-15 13:53:00,
2013-04-15 09:54:00,77.5,53.3,29.97,SSW,202,2.9,4.0,43,0.00,,---,0.00,VWS V14.01,2013-04-15 13:54:00,
2013-04-15 09:55:00,77.9,53.0,29.97,SSE,158,2.7,2.9,42,0.00,,---,0.00,VWS V14.01,2013-04-15 13:55:00,
2013-04-15 09:56:00,77.9,52.3,29.97,SSE,158,5.8,5.8,41,0.00,,---,0.00,VWS V14.01,2013-04-15 13:56:00,
2013-04-15 09:57:00,77.5,51.3,29.94,SSE,158,3.8,6.5,40,0.00,,---,0.00,VWS V14.01,2013-04-15 13:57:00,
2013-04-15 09:58:00,77.9,51.7,29.94,SSE,158,4.9,6.5,40,0.00,,---,0.00,VWS V14.01,2013-04-15 13:58:00,
2013-04-15 09:59:00,77.4,51.2,29.94,SE,135,4.3,6.0,40,0.00,,---,0.00,VWS V14.01,2013-04-15 13:59:00,
2013-04-15 10:00:00,77.4,51.2,29.94,SSE,158,1.3,4.3,40,0.00,,---,0.00,VWS V14.01,2013-04-15 14:00:00,
2013-04-15 10:01:00,77.9,51.7,29.94,SSE,158,2.7,6.0,40,0.00,,---,0.00,VWS V14.01,2013-04-15 14:01:00,
2013-04-15 10:02:00,77.9,51.7,29.94,SSE,158,4.9,6.5,40,0.00,,---,0.00,VWS V14.01,2013-04-15 14:02:00,
2013-04-15 10:03:00,79.2,51.4,29.94,SSE,158,2.7,3.4,38,0.00,,---,0.00,VWS V14.01,2013-04-15 14:03:00,
2013-04-15 10:04:00,78.3,52.0,29.94,SW,225,5.6,5.6,40,0.00,,---,0.00,VWS V14.01,2013-04-15 14:04:00,
2013-04-15 10:05:00,78.4,51.5,29.94,SSW,202,1.3,5.6,39,0.00,,---,0.00,VWS V14.01,2013-04-15 14:05:00,
2013-04-15 10:06:00,79.0,51.9,29.94,SSE,158,2.5,2.9,39,0.00,,---,0.00,VWS V14.01,2013-04-15 14:06:00,
2013-04-15 10:07:00,79.2,51.4,29.94,SSE,158,2.7,3.4,38,0.00,,---,0.00,VWS V14.01,2013-04-15 14:07:00,
2013-04-15 10:08:00,79.3,48.6,29.97,SSE,158,0.0,2.7,34,0.00,,---,0.00,VWS V14.01,2013-04-15 14:08:00,
2013-04-15 10:09:00,79.3,48.6,29.94,SSE,158,4.3,6.3,34,0.00,,---,0.00,VWS V14.01,2013-04-15 14:09:00,
2013-04-15 10:10:00,79.3,48.6,29.94,SE,135,2.2,4.7,34,0.00,,---,0.00,VWS V14.01,2013-04-15 14:10:00,
2013-04-15 10:11:00,79.0,47.5,29.94,WSW,248,1.3,5.8,33,0.00,,---,0.00,VWS V14.01,2013-04-15 14:11:00,
2013-04-15 10:12:00,79.3,48.6,29.97,SSE,158,0.0,2.7,34,0.00,,---,0.00,VWS V14.01,2013-04-15 14:12:00,
2013-04-15 10:13:00,80.8,49.0,29.97,East,90,0.0,0.0,33,0.00,,---,0.00,VWS V14.01,2013-04-15 14:13:00,
2013-04-15 10:14:00,80.4,50.3,29.97,ESE,112,0.0,1.1,35,0.00,,---,0.00,VWS V14.01,2013-04-15 14:14:00,
2013-04-15 10:15:00,80.8,50.6,29.97,SSE,158,1.3,2.5,35,0.00,,---,0.00,VWS V14.01,2013-04-15 14:15:00,
2013-04-15 10:16:00,80.8,49.0,29.97,SSE,158,2.0,2.9,33,0.00,,---,0.00,VWS V14.01,2013-04-15 14:16:00,
2013-04-15 10:17:00,80.8,49.0,29.97,SSE,158,0.0,2.0,33,0.00,,---,0.00,VWS V14.01,2013-04-15 14:17:00,
2013-04-15 10:18:00,81.5,50.5,29.97,ENE,68,2.7,2.7,34,0.00,,---,0.00,VWS V14.01,2013-04-15 14:18:00,
2013-04-15 10:19:00,83.1,51.1,29.97,ENE,68,2.0,2.5,33,0.00,,---,0.00,VWS V14.01,2013-04-15 14:19:00,
2013-04-15 10:20:00,82.6,51.4,29.97,ESE,112,0.0,2.2,34,0.00,,---,0.00,VWS V14.01,2013-04-15 14:20:00,
2013-04-15 10:21:00,82.8,51.6,29.97,East,90,1.3,1.3,34,0.00,,---,0.00,VWS V14.01,2013-04-15 14:21:00,
2013-04-15 10:22:00,83.1,51.9,29.97,ENE,68,1.6,2.5,34,0.00,,---,0.00,VWS V14.01,2013-04-15 14:22:00,
2013-04-15 10:23:00,83.3,51.2,29.97,NE,45,0.9,2.5,33,0.00,,---,0.00,VWS V14.01,2013-04-15 14:23:00,
2013-04-15 10:24:00,84.2,50.3,29.97,North,0,0.0,3.8,31,0.00,,---,0.00,VWS V14.01,2013-04-15 14:24:00,
2013-04-15 10:25:00,84.0,51.8,29.97,NNE,22,0.0,2.7,33,0.00,,---,0.00,VWS V14.01,2013-04-15 14:25:00,
2013-04-15 10:26:00,84.4,51.3,29.97,North,0,1.3,1.3,32,0.00,,---,0.00,VWS V14.01,2013-04-15 14:26:00,
2013-04-15 10:27:00,84.0,51.0,29.97,East,90,2.9,2.9,32,0.00,,---,0.00,VWS V14.01,2013-04-15 14:27:00,
2013-04-15 10:28:00,84.2,50.3,29.97,North,0,0.0,3.8,31,0.00,,---,0.00,VWS V14.01,2013-04-15 14:28:00,
2013-04-15 10:29:00,84.0,50.2,29.97,North,0,3.8,3.8,31,0.00,,---,0.00,VWS V14.01,2013-04-15 14:29:00,
2013-04-15 10:30:00,84.2,50.3,29.97,NE,45,0.0,2.2,31,0.00,,---,0.00,VWS V14.01,2013-04-15 14:30:00,
2013-04-15 10:31:00,84.4,50.5,29.97,NNE,22,2.9,2.9,31,0.00,,---,0.00,VWS V14.01,2013-04-15 14:31:00,
2013-04-15 10:32:00,84.2,50.3,29.97,NNE,22,3.4,3.4,31,0.00,,---,0.00,VWS V14.01,2013-04-15 14:32:00,
2013-04-15 10:33:00,84.0,50.2,29.97,NNW,338,3.4,3.8,31,0.00,,---,0.00,VWS V14.01,2013-04-15 14:33:00,
2013-04-15 10:34:00,83.3,49.5,29.97,SSE,158,0.0,2.7,31,0.00,,---,0.00,VWS V14.01,2013-04-15 14:34:00,
2013-04-15 10:35:00,83.7,49.0,29.97,NNE,22,4.7,4.7,30,0.00,,---,0.00,VWS V14.01,2013-04-15 14:35:00,
2013-04-15 10:36:00,83.3,48.7,29.97,NNE,22,1.1,4.7,30,0.00,,---,0.00,VWS V14.01,2013-04-15 14:36:00,
2013-04-15 10:37:00,83.5,49.7,29.97,SSE,158,1.3,3.6,31,0.00,,---,0.00,VWS V14.01,2013-04-15 14:37:00,
2013-04-15 10:38:00,83.3,49.5,29.97,SSE,158,0.0,2.7,31,0.00,,---,0.00,VWS V14.01,2013-04-15 14:38:00,
2013-04-15 10:39:00,84.0,50.2,29.97,ENE,68,0.0,0.0,31,0.00,,---,0.00,VWS V14.01,2013-04-15 14:39:00,
2013-04-15 10:40:00,83.1,49.4,29.97,South,180,1.3,1.3,31,0.00,,---,0.00,VWS V14.01,2013-04-15 14:40:00,
2013-04-15 10:41:00,83.5,49.7,29.97,SE,135,0.9,1.3,31,0.00,,---,0.00,VWS V14.01,2013-04-15 14:41:00,
2013-04-15 10:42:00,83.7,49.8,29.97,ESE,112,0.0,0.9,31,0.00,,---,0.00,VWS V14.01,2013-04-15 14:42:00,
2013-04-15 10:43:00,84.0,50.2,29.97,ENE,68,0.0,0.0,31,0.00,,---,0.00,VWS V14.01,2013-04-15 14:43:00,
2013-04-15 10:44:00,84.6,49.8,29.97,North,0,0.0,2.9,30,0.00,,---,0.00,VWS V14.01,2013-04-15 14:44:00,
2013-04-15 10:45:00,84.4,50.5,29.97,ENE,68,1.6,2.5,31,0.00,,---,0.00,VWS V14.01,2013-04-15 14:45:00,
2013-04-15 10:46:00,84.4,49.6,29.97,SE,135,1.3,3.6,30,0.00,,---,0.00,VWS V14.01,2013-04-15 14:46:00,
2013-04-15 10:47:00,84.4,49.6,29.97,North,0,0.9,1.3,30,0.00,,---,0.00,VWS V14.01,2013-04-15 14:47:00,
2013-04-15 10:48:00,84.6,49.8,29.97,North,0,0.0,2.9,30,0.00,,---,0.00,VWS V14.01,2013-04-15 14:48:00,
2013-04-15 10:49:00,84.9,50.1,29.97,SSE,158,0.0,0.0,30,0.00,,---,0.00,VWS V14.01,2013-04-15 14:49:00,
2013-04-15 10:50:00,84.9,50.1,29.97,NE,45,0.0,0.0,30,0.00,,---,0.00,VWS V14.01,2013-04-15 14:50:00,
2013-04-15 10:51:00,84.9,50.1,29.97,SSE,158,0.0,0.0,30,0.00,,---,0.00,VWS V14.01,2013-04-15 14:51:00,
2013-04-15 10:52:00,85.1,50.2,29.97,SSE,158,0.0,1.3,30,0.00,,---,0.00,VWS V14.01,2013-04-15 14:52:00,
2013-04-15 10:53:00,84.9,50.1,29.97,SSE,158,0.0,0.0,30,0.00,,---,0.00,VWS V14.01,2013-04-15 14:53:00,
2013-04-15 10:54:00,86.2,49.3,30.00,North,0,0.9,2.7,28,0.00,,---,0.00,VWS V14.01,2013-04-15 14:54:00,
2013-04-15 10:55:00,85.5,50.5,29.97,ESE,112,1.1,1.1,30,0.00,,---,0.00,VWS V14.01,2013-04-15 14:55:00,
2013-04-15 10:56:00,85.6,50.7,29.97,North,0,2.5,2.5,30,0.00,,---,0.00,VWS V14.01,2013-04-15 14:56:00,
2013-04-15 10:57:00,86.0,50.1,30.00,NNW,338,0.9,2.5,29,0.00,,---,0.00,VWS V14.01,2013-04-15 14:57:00,
2013-04-15 10:58:00,86.2,49.3,30.00,North,0,0.9,2.7,28,0.00,,---,0.00,VWS V14.01,2013-04-15 14:58:00,
2013-04-15 10:59:00,86.2,49.3,30.00,North,0,4.7,4.7,28,0.00,,---,0.00,VWS V14.01,2013-04-15 14:59:00,
2013-04-15 11:00:00,86.7,49.8,30.00,WSW,248,0.0,1.6,28,0.00,,---,0.00,VWS V14.01,2013-04-15 15:00:00,
2013-04-15 11:01:00,86.4,48.5,30.00,SSE,158,3.8,4.3,27,0.00,,---,0.00,VWS V14.01,2013-04-15 15:01:00,
2013-04-15 11:02:00,86.0,49.1,30.00,ESE,112,0.0,3.8,28,0.00,,---,0.00,VWS V14.01,2013-04-15 15:02:00,
2013-04-15 11:03:00,86.2,49.3,30.00,North,0,4.7,4.7,28,0.00,,---,0.00,VWS V14.01,2013-04-15 15:03:00,
2013-04-15 11:04:00,86.2,48.3,30.00,ESE,112,2.2,2.9,27,0.00,,---,0.00,VWS V14.01,2013-04-15 15:04:00,
2013-04-15 11:05:00,86.4,49.4,30.00,NE,45,0.0,2.2,28,0.00,,---,0.00,VWS V14.01,2013-04-15 15:05:00,
2013-04-15 11:06:00,86.4,49.4,30.00,SSE,158,0.0,1.6,28,0.00,,---,0.00,VWS V14.01,2013-04-15 15:06:00,
2013-04-15 11:07:00,86.4,49.4,30.00,ESE,112,0.9,2.5,28,0.00,,---,0.00,VWS V14.01,2013-04-15 15:07:00,
2013-04-15 11:08:00,86.2,48.3,30.00,ESE,112,2.2,2.9,27,0.00,,---,0.00,VWS V14.01,2013-04-15 15:08:00,
2013-04-15 11:09:00,86.2,48.3,30.00,North,0,0.0,0.0,27,0.00,,---,0.00,VWS V14.01,2013-04-15 15:09:00,
2013-04-15 11:10:00,85.8,48.0,30.00,NE,45,0.0,1.6,27,0.00,,---,0.00,VWS V14.01,2013-04-15 15:10:00,
2013-04-15 11:11:00,86.0,48.2,30.00,North,0,1.6,1.6,27,0.00,,---,0.00,VWS V14.01,2013-04-15 15:11:00,
2013-04-15 11:12:00,86.0,47.2,30.00,North,0,0.0,3.4,26,0.00,,---,0.00,VWS V14.01,2013-04-15 15:12:00,
2013-04-15 11:13:00,86.2,48.3,30.00,North,0,0.0,0.0,27,0.00,,---,0.00,VWS V14.01,2013-04-15 15:13:00,
2013-04-15 11:14:00,86.0,47.2,30.00,North,0,0.0,0.0,26,0.00,,---,0.00,VWS V14.01,2013-04-15 15:14:00,
2013-04-15 11:15:00,86.4,48.5,30.00,NNW,338,2.5,2.9,27,0.00,,---,0.00,VWS V14.01,2013-04-15 15:15:00,
2013-04-15 11:16:00,86.2,47.3,30.00,ENE,68,1.3,2.5,26,0.00,,---,0.00,VWS V14.01,2013-04-15 15:16:00,
2013-04-15 11:17:00,86.0,47.2,30.00,ESE,112,1.1,1.3,26,0.00,,---,0.00,VWS V14.01,2013-04-15 15:17:00,
2013-04-15 11:18:00,86.0,47.2,30.00,ENE,68,0.0,1.1,26,0.00,,---,0.00,VWS V14.01,2013-04-15 15:18:00,
2013-04-15 11:19:00,86.0,47.2,30.00,NW,315,1.3,3.6,26,0.00,,---,0.00,VWS V14.01,2013-04-15 15:19:00,
2013-04-15 11:20:00,86.4,47.5,30.00,NNW,338,2.0,2.0,26,0.00,,---,0.00,VWS V14.01,2013-04-15 15:20:00,
2013-04-15 11:21:00,86.2,47.3,30.00,SSW,202,1.1,2.7,26,0.00,,---,0.00,VWS V14.01,2013-04-15 15:21:00,
2013-04-15 11:22:00,86.4,48.5,30.00,NNE,22,2.2,2.2,27,0.00,,---,0.00,VWS V14.01,2013-04-15 15:22:00,
2013-04-15 11:23:00,86.5,48.6,30.00,NE,45,2.0,2.9,27,0.00,,---,0.00,VWS V14.01,2013-04-15 15:23:00,
2013-04-15 11:24:00,86.5,47.6,30.00,NNE,22,3.1,3.1,26,0.00,,---,0.00,VWS V14.01,2013-04-15 15:24:00,
2013-04-15 11:25:00,86.9,47.9,30.03,WNW,292,0.9,2.2,26,0.00,,---,0.00,VWS V14.01,2013-04-15 15:25:00,
2013-04-15 11:26:00,86.7,48.8,30.00,NNW,338,0.0,1.3,27,0.00,,---,0.00,VWS V14.01,2013-04-15 15:26:00,
2013-04-15 11:27:00,87.1,49.1,30.03,NW,315,3.6,3.6,27,0.00,,---,0.00,VWS V14.01,2013-04-15 15:27:00,
2013-04-15 11:28:00,86.9,46.9,30.03,WNW,292,2.2,3.6,25,0.00,,---,0.00,VWS V14.01,2013-04-15 15:28:00,
2013-04-15 11:29:00,86.9,47.9,30.03,WNW,292,0.9,2.2,26,0.00,,---,0.00,VWS V14.01,2013-04-15 15:29:00,
2013-04-15 11:30:00,86.4,48.5,30.03,SSW,202,0.0,0.0,27,0.00,,---,0.00,VWS V14.01,2013-04-15 15:30:00,
2013-04-15 11:31:00,86.9,47.9,30.03,SE,135,2.0,2.0,26,0.00,,---,0.00,VWS V14.01,2013-04-15 15:31:00,
2013-04-15 11:32:00,85.8,47.0,30.03,SE,135,0.0,2.0,26,0.00,,---,0.00,VWS V14.01,2013-04-15 15:32:00,
2013-04-15 11:33:00,86.0,47.2,30.03,SE,135,0.0,0.0,26,0.00,,---,0.00,VWS V14.01,2013-04-15 15:33:00,
2013-04-15 11:34:00,86.4,48.5,30.03,SSW,202,0.0,0.0,27,0.00,,---,0.00,VWS V14.01,2013-04-15 15:34:00,
2013-04-15 11:35:00,87.4,48.4,30.03,WNW,292,0.9,0.9,26,0.00,,---,0.00,VWS V14.01,2013-04-15 15:35:00,
2013-04-15 11:36:00,86.9,48.9,30.03,ESE,112,1.1,1.1,27,0.00,,---,0.00,VWS V14.01,2013-04-15 15:36:00,
2013-04-15 11:37:00,87.1,49.1,30.03,NNE,22,2.5,2.5,27,0.00,,---,0.00,VWS V14.01,2013-04-15 15:37:00,
2013-04-15 11:38:00,87.1,48.1,30.03,NNE,22,2.2,2.5,26,0.00,,---,0.00,VWS V14.01,2013-04-15 15:38:00,
2013-04-15 11:39:00,87.1,48.1,30.03,WNW,292,0.9,2.2,26,0.00,,---,0.00,VWS V14.01,2013-04-15 15:39:00,
2013-04-15 11:40:00,89.2,48.8,30.03,ESE,112,1.3,1.3,25,0.00,,---,0.00,VWS V14.01,2013-04-15 15:40:00,
2013-04-15 11:41:00,88.2,46.9,30.03,NNW,338,0.0,0.0,24,0.00,,---,0.00,VWS V14.01,2013-04-15 15:41:00,
2013-04-15 11:42:00,88.5,48.2,30.03,WSW,248,0.0,0.0,25,0.00,,---,0.00,VWS V14.01,2013-04-15 15:42:00,
2013-04-15 11:43:00,88.9,48.5,30.03,WSW,248,0.0,1.6,25,0.00,,---,0.00,VWS V14.01,2013-04-15 15:43:00,
2013-04-15 11:44:00,89.2,48.8,30.03,ESE,112,1.3,1.3,25,0.00,,---,0.00,VWS V14.01,2013-04-15 15:44:00,
2013-04-15 11:45:00,89.6,43.3,30.03,ESE,112,0.9,2.0,20,0.00,,---,0.00,VWS V14.01,2013-04-15 15:45:00,
2013-04-15 11:46:00,89.2,47.8,30.03,SSE,158,2.2,2.2,24,0.00,,---,0.00,VWS V14.01,2013-04-15 15:46:00,
2013-04-15 11:47:00,89.1,45.3,30.03,SSE,158,0.0,2.5,22,0.00,,---,0.00,VWS V14.01,2013-04-15 15:47:00,
2013-04-15 11:48:00,89.2,44.2,30.03,SSE,158,0.0,0.9,21,0.00,,---,0.00,VWS V14.01,2013-04-15 15:48:00,
2013-04-15 11:49:00,89.6,43.3,30.03,ESE,112,0.9,2.0,20,0.00,,---,0.00,VWS V14.01,2013-04-15 15:49:00,
2013-04-15 11:50:00,89.8,42.1,30.03,SSW,202,0.0,1.3,19,0.00,,---,0.00,VWS V14.01,2013-04-15 15:50:00,
2013-04-15 11:51:00,89.4,43.1,30.03,NNE,22,0.0,3.6,20,0.00,,---,0.00,VWS V14.01,2013-04-15 15:51:00,
2013-04-15 11:52:00,89.6,43.3,30.03,SSE,158,2.2,2.2,20,0.00,,---,0.00,VWS V14.01,2013-04-15 15:52:00,
2013-04-15 11:53:00,89.6,43.3,30.03,SSW,202,0.9,2.2,20,0.00,,---,0.00,VWS V14.01,2013-04-15 15:53:00,
2013-04-15 11:54:00,89.8,42.1,30.03,SSW,202,0.0,1.3,19,0.00,,---,0.00,VWS V14.01,2013-04-15 15:54:00,
2013-04-15 11:55:00,89.6,41.9,30.03,SSE,158,1.1,2.7,19,0.00,,---,0.00,VWS V14.01,2013-04-15 15:55:00,
2013-04-15 11:56:00,89.4,41.8,30.03,SSE,158,2.0,4.3,19,0.00,,---,0.00,VWS V14.01,2013-04-15 15:56:00,
2013-04-15 11:57:00,89.2,41.6,30.03,ESE,112,0.9,2.0,19,0.00,,---,0.00,VWS V14.01,2013-04-15 15:57:00,
2013-04-15 11:58:00,89.4,43.1,30.03,North,0,1.3,1.6,20,0.00,,---,0.00,VWS V14.01,2013-04-15 15:58:00,
2013-04-15 11:59:00,89.6,41.9,30.03,SSE,158,1.1,2.7,19,0.00,,---,0.00,VWS V14.01,2013-04-15 15:59:00,
2013-04-15 12:00:00,90.5,41.3,30.03,SSE,158,0.0,1.6,18,0.00,,---,0.00,VWS V14.01,2013-04-15 16:00:00,
2013-04-15 12:01:00,89.6,41.9,30.03,NNE,22,0.9,2.7,19,0.00,,---,0.00,VWS V14.01,2013-04-15 16:01:00,
2013-04-15 12:02:00,90.0,40.8,30.03,ENE,68,1.6,2.9,18,0.00,,---,0.00,VWS V14.01,2013-04-15 16:02:00,
2013-04-15 12:03:00,90.1,42.4,30.03,WNW,292,0.9,2.0,19,0.00,,---,0.00,VWS V14.01,2013-04-15 16:03:00,
2013-04-15 12:04:00,90.5,41.3,30.03,SSE,158,0.0,1.6,18,0.00,,---,0.00,VWS V14.01,2013-04-15 16:04:00,
2013-04-15 12:05:00,90.3,41.1,30.03,SE,135,1.6,2.7,18,0.00,,---,0.00,VWS V14.01,2013-04-15 16:05:00,
2013-04-15 12:06:00,89.8,40.7,30.03,NNE,22,1.3,3.4,18,0.00,,---,0.00,VWS V14.01,2013-04-15 16:06:00,
2013-04-15 12:07:00,90.0,40.8,30.03,North,0,1.3,2.7,18,0.00,,---,0.00,VWS V14.01,2013-04-15 16:07:00,
2013-04-15 12:08:00,90.0,40.8,30.03,SE,135,0.0,3.6,18,0.00,,---,0.00,VWS V14.01,2013-04-15 16:08:00,
2013-04-15 12:09:00,90.3,41.1,30.03,SE,135,1.6,2.7,18,0.00,,---,0.00,VWS V14.01,2013-04-15 16:09:00,
2013-04-15 12:10:00,91.0,43.1,30.03,SE,135,0.0,0.0,19,0.00,,---,0.00,VWS V14.01,2013-04-15 16:10:00,
2013-04-15 12:11:00,90.7,41.4,30.03,North,0,0.0,1.6,18,0.00,,---,0.00,VWS V14.01,2013-04-15 16:11:00,
2013-04-15 12:12:00,90.9,43.0,30.03,South,180,1.6,1.6,19,0.00,,---,0.00,VWS V14.01,2013-04-15 16:12:00,
2013-04-15 12:13:00,91.0,41.7,30.03,ESE,112,0.0,2.7,18,0.00,,---,0.00,VWS V14.01,2013-04-15 16:13:00,
2013-04-15 12:14:00,91.0,43.1,30.03,SE,135,0.0,0.0,19,0.00,,---,0.00,VWS V14.01,2013-04-15 16:14:00,
2013-04-15 12:15:00,91.2,43.2,30.03,ESE,112,1.3,2.2,19,0.00,,---,0.00,VWS V14.01,2013-04-15 16:15:00,
2013-04-15 12:16:00,91.0,41.7,30.03,SSE,158,1.6,3.6,18,0.00,,---,0.00,VWS V14.01,2013-04-15 16:16:00,
2013-04-15 12:17:00,91.6,42.1,30.03,SSW,202,1.1,1.1,18,0.00,,---,0.00,VWS V14.01,2013-04-15 16:17:00,
2013-04-15 12:18:00,91.0,41.7,30.03,SSE,158,2.7,2.7,18,0.00,,---,0.00,VWS V14.01,2013-04-15 16:18:00,
2013-04-15 12:19:00,91.0,41.7,30.03,SSE,158,3.6,3.6,18,0.00,,---,0.00,VWS V14.01,2013-04-15 16:19:00,
2013-04-15 12:20:00,90.9,41.5,30.03,WSW,248,2.7,3.6,18,0.00,,---,0.00,VWS V14.01,2013-04-15 16:20:00,
2013-04-15 12:21:00,91.2,41.8,30.03,East,90,1.6,1.6,18,0.00,,---,0.00,VWS V14.01,2013-04-15 16:21:00,
2013-04-15 12:22:00,91.0,41.7,30.03,SSE,158,1.6,1.6,18,0.00,,---,0.00,VWS V14.01,2013-04-15 16:22:00,
2013-04-15 12:23:00,90.9,41.5,30.03,SSE,158,0.0,2.0,18,0.00,,---,0.00,VWS V14.01,2013-04-15 16:23:00,
2013-04-15 12:24:00,91.0,41.7,30.03,ESE,112,0.0,0.9,18,0.00,,---,0.00,VWS V14.01,2013-04-15 16:24:00,
2013-04-15 12:25:00,91.2,41.8,30.03,East,90,1.6,1.6,18,0.00,,---,0.00,VWS V14.01,2013-04-15 16:25:00,
2013-04-15 12:26:00,91.9,42.4,30.03,NNE,22,0.9,2.0,18,0.00,,---,0.00,VWS V14.01,2013-04-15 16:26:00,
2013-04-15 12:27:00,91.9,42.4,30.03,SE,135,2.0,2.2,18,0.00,,---,0.00,VWS V14.01,2013-04-15 16:27:00,
2013-04-15 12:28:00,91.8,42.3,30.03,ENE,68,0.9,2.5,18,0.00,,---,0.00,VWS V14.01,2013-04-15 16:28:00,
2013-04-15 12:29:00,91.8,42.3,30.03,ESE,112,1.3,1.6,18,0.00,,---,0.00,VWS V14.01,2013-04-15 16:29:00,
2013-04-15 12:30:00,91.9,42.4,30.03,NNE,22,0.9,2.0,18,0.00,,---,0.00,VWS V14.01,2013-04-15 16:30:00,
2013-04-15 12:31:00,92.1,41.1,30.03,SE,135,0.0,2.0,17,0.00,,---,0.00,VWS V14.01,2013-04-15 16:31:00,
2013-04-15 12:32:00,92.3,42.7,30.03,ESE,112,0.0,1.6,18,0.00,,---,0.00,VWS V14.01,2013-04-15 16:32:00,
2013-04-15 12:33:00,92.1,42.6,30.03,ESE,112,0.0,2.7,18,0.00,,---,0.00,VWS V14.01,2013-04-15 16:33:00,
2013-04-15 12:34:00,92.1,42.6,30.03,ENE,68,0.0,2.5,18,0.00,,---,0.00,VWS V14.01,2013-04-15 16:34:00,
2013-04-15 12:35:00,92.3,42.7,30.03,ESE,112,0.9,2.0,18,0.00,,---,0.00,VWS V14.01,2013-04-15 16:35:00,
2013-04-15 12:36:00,92.3,42.7,30.03,SE,135,1.1,1.6,18,0.00,,---,0.00,VWS V14.01,2013-04-15 16:36:00,
2013-04-15 12:37:00,92.1,41.1,30.03,ESE,112,0.0,2.2,17,0.00,,---,0.00,VWS V14.01,2013-04-15 16:37:00,
2013-04-15 12:38:00,91.6,40.7,30.03,ESE,112,2.2,3.6,17,0.00,,---,0.00,VWS V14.01,2013-04-15 16:38:00,
2013-04-15 12:39:00,91.8,40.8,30.03,South,180,0.0,2.2,17,0.00,,---,0.00,VWS V14.01,2013-04-15 16:39:00,
2013-04-15 12:40:00,92.1,41.1,30.03,SSW,202,0.0,0.0,17,0.00,,---,0.00,VWS V14.01,2013-04-15 16:40:00,
2013-04-15 12:41:00,92.1,41.1,30.03,ESE,112,0.0,2.2,17,0.00,,---,0.00,VWS V14.01,2013-04-15 16:41:00,
2013-04-15 12:42:00,91.0,41.7,30.03,SSE,158,0.0,3.8,18,0.00,,---,0.00,VWS V14.01,2013-04-15 16:42:00,
2013-04-15 12:43:00,92.8,41.7,30.03,SSE,158,0.0,2.0,17,0.00,,---,0.00,VWS V14.01,2013-04-15 16:43:00,
2013-04-15 12:44:00,92.1,41.1,30.03,SSE,158,4.3,4.9,17,0.00,,---,0.00,VWS V14.01,2013-04-15 16:44:00,
2013-04-15 12:45:00,91.4,40.5,30.03,SSE,158,3.8,4.3,17,0.00,,---,0.00,VWS V14.01,2013-04-15 16:45:00,
2013-04-15 12:46:00,91.0,41.7,30.03,SSE,158,0.0,3.8,18,0.00,,---,0.00,VWS V14.01,2013-04-15 16:46:00,
2013-04-15 12:47:00,91.8,42.3,30.03,NE,45,1.6,1.6,18,0.00,,---,0.00,VWS V14.01,2013-04-15 16:47:00,
2013-04-15 12:48:00,91.6,40.7,30.03,East,90,0.9,2.5,17,0.00,,---,0.00,VWS V14.01,2013-04-15 16:48:00,
2013-04-15 12:49:00,91.4,40.5,30.03,SSW,202,0.9,2.5,17,0.00,,---,0.00,VWS V14.01,2013-04-15 16:49:00,
2013-04-15 12:50:00,91.8,42.3,30.03,ESE,112,1.6,1.6,18,0.00,,---,0.00,VWS V14.01,2013-04-15 16:50:00,
2013-04-15 12:51:00,91.8,42.3,30.03,NE,45,1.6,2.9,18,0.00,,---,0.00,VWS V14.01,2013-04-15 16:51:00,
2013-04-15 12:52:00,93.4,42.1,30.03,SE,135,0.0,0.0,17,0.00,,---,0.00,VWS V14.01,2013-04-15 16:52:00,
2013-04-15 12:53:00,92.3,42.7,30.03,SSE,158,0.0,2.2,18,0.00,,---,0.00,VWS V14.01,2013-04-15 16:53:00,
2013-04-15 12:54:00,92.5,42.9,30.03,ENE,68,1.1,1.1,18,0.00,,---,0.00,VWS V14.01,2013-04-15 16:54:00,
2013-04-15 12:55:00,93.4,42.1,30.03,ESE,112,1.3,1.3,17,0.00,,---,0.00,VWS V14.01,2013-04-15 16:55:00,
2013-04-15 12:56:00,93.4,42.1,30.03,SE,135,0.0,2.7,17,0.00,,---,0.00,VWS V14.01,2013-04-15 16:56:00,
2013-04-15 12:57:00,94.1,42.7,30.00,NNE,22,2.7,3.4,17,0.00,,---,0.00,VWS V14.01,2013-04-15 16:57:00,
2013-04-15 12:58:00,94.1,42.7,30.00,ENE,68,1.6,1.6,17,0.00,,---,0.00,VWS V14.01,2013-04-15 16:58:00,
2013-04-15 12:59:00,94.3,42.8,30.00,ESE,112,0.0,1.6,17,0.00,,---,0.00,VWS V14.01,2013-04-15 16:59:00,
2013-04-15 13:00:00,94.5,43.0,30.00,SE,135,2.5,2.5,17,0.00,,---,0.00,VWS V14.01,2013-04-15 17:00:00,
2013-04-15 13:01:00,94.3,42.8,30.00,East,90,3.4,3.4,17,0.00,,---,0.00,VWS V14.01,2013-04-15 17:01:00,
2013-04-15 13:02:00,94.3,42.8,30.00,SSE,158,0.0,0.0,17,0.00,,---,0.00,VWS V14.01,2013-04-15 17:02:00,
2013-04-15 13:03:00,94.6,43.1,30.00,East,90,2.0,2.0,17,0.00,,---,0.00,VWS V14.01,2013-04-15 17:03:00,
2013-04-15 13:04:00,94.5,43.0,30.00,East,90,2.2,2.2,17,0.00,,---,0.00,VWS V14.01,2013-04-15 17:04:00,
2013-04-15 13:05:00,94.5,43.0,30.00,East,90,1.1,2.2,17,0.00,,---,0.00,VWS V14.01,2013-04-15 17:05:00,
2013-04-15 13:06:00,94.3,42.8,30.00,SSE,158,0.0,3.4,17,0.00,,---,0.00,VWS V14.01,2013-04-15 17:06:00,
2013-04-15 13:07:00,93.7,42.4,30.00,SSE,158,3.1,3.1,17,0.00,,---,0.00,VWS V14.01,2013-04-15 17:07:00,
2013-04-15 13:08:00,94.3,42.8,30.00,ESE,112,0.0,1.3,17,0.00,,---,0.00,VWS V14.01,2013-04-15 17:08:00,
2013-04-15 13:09:00,94.3,42.8,30.00,ESE,112,0.0,0.0,17,0.00,,---,0.00,VWS V14.01,2013-04-15 17:09:00,
2013-04-15 13:10:00,93.6,42.2,30.00,SSE,158,1.6,4.0,17,0.00,,---,0.00,VWS V14.01,2013-04-15 17:10:00,
2013-04-15 13:11:00,93.7,42.4,30.00,SSE,158,1.3,1.6,17,0.00,,---,0.00,VWS V14.01,2013-04-15 17:11:00,
2013-04-15 13:12:00,93.0,41.8,30.00,South,180,2.7,3.8,17,0.00,,---,0.00,VWS V14.01,2013-04-15 17:12:00,
2013-04-15 13:13:00,92.8,41.7,30.00,North,0,2.7,2.7,17,0.00,,---,0.00,VWS V14.01,2013-04-15 17:13:00,
2013-04-15 13:14:00,92.8,41.7,30.00,SSW,202,0.9,3.8,17,0.00,,---,0.00,VWS V14.01,2013-04-15 17:14:00,
2013-04-15 13:15:00,92.7,41.5,30.00,SSE,158,1.1,3.8,17,0.00,,---,0.00,VWS V14.01,2013-04-15 17:15:00,
2013-04-15 13:16:00,92.7,41.5,30.00,SSE,158,0.9,1.3,17,0.00,,---,0.00,VWS V14.01,2013-04-15 17:16:00,
2013-04-15 13:17:00,92.8,41.7,30.00,East,90,1.1,2.7,17,0.00,,---,0.00,VWS V14.01,2013-04-15 17:17:00,
2013-04-15 13:18:00,93.4,42.1,30.00,NNE,22,2.0,2.0,17,0.00,,---,0.00,VWS V14.01,2013-04-15 17:18:00,
2013-04-15 13:19:00,92.7,41.5,30.00,SSE,158,1.3,2.7,17,0.00,,---,0.00,VWS V14.01,2013-04-15 17:19:00,
2013-04-15 13:20:00,92.8,41.7,30.00,ESE,112,1.1,1.3,17,0.00,,---,0.00,VWS V14.01,2013-04-15 17:20:00,
2013-04-15 13:21:00,93.7,42.4,30.00,ENE,68,2.9,2.9,17,0.00,,---,0.00,VWS V14.01,2013-04-15 17:21:00,
2013-04-15 13:22:00,93.9,42.5,30.00,NNW,338,0.0,2.2,17,0.00,,---,0.00,VWS V14.01,2013-04-15 17:22:00,
2013-04-15 13:23:00,93.7,42.4,30.00,North,0,2.2,3.4,17,0.00,,---,0.00,VWS V14.01,2013-04-15 17:23:00,
2013-04-15 13:24:00,94.3,42.8,30.00,NNW,338,4.3,4.3,17,0.00,,---,0.00,VWS V14.01,2013-04-15 17:24:00,
2013-04-15 13:25:00,93.9,42.5,30.00,ENE,68,2.0,2.9,17,0.00,,---,0.00,VWS V14.01,2013-04-15 17:25:00,
2013-04-15 13:26:00,93.9,42.5,30.00,NNE,22,2.9,2.9,17,0.00,,---,0.00,VWS V14.01,2013-04-15 17:26:00,
2013-04-15 13:27:00,94.5,43.0,30.00,SSW,202,0.9,2.9,17,0.00,,---,0.00,VWS V14.01,2013-04-15 17:27:00,
2013-04-15 13:28:00,94.3,42.8,30.00,NNE,22,3.4,3.4,17,0.00,,---,0.00,VWS V14.01,2013-04-15 17:28:00,
2013-04-15 13:29:00,94.3,42.8,30.00,NNW,338,3.4,4.3,17,0.00,,---,0.00,VWS V14.01,2013-04-15 17:29:00,
2013-04-15 13:30:00,92.3,41.2,30.00,ESE,112,1.3,2.0,17,0.00,,---,0.00,VWS V14.01,2013-04-15 17:30:00,
2013-04-15 13:31:00,92.8,41.7,30.00,SSE,158,2.2,4.0,17,0.00,,---,0.00,VWS V14.01,2013-04-15 17:31:00,
2013-04-15 13:32:00,92.3,41.2,30.00,WSW,248,0.9,3.8,17,0.00,,---,0.00,VWS V14.01,2013-04-15 17:32:00,
2013-04-15 13:33:00,92.3,41.2,30.00,SE,135,1.3,2.2,17,0.00,,---,0.00,VWS V14.01,2013-04-15 17:33:00,
2013-04-15 13:34:00,92.8,41.7,30.00,SE,135,1.1,2.0,17,0.00,,---,0.00,VWS V14.01,2013-04-15 17:34:00,
2013-04-15 13:35:00,94.3,42.8,30.00,SSE,158,2.5,2.9,17,0.00,,---,0.00,VWS V14.01,2013-04-15 17:35:00,
2013-04-15 13:36:00,93.7,42.4,30.00,ENE,68,0.9,2.5,17,0.00,,---,0.00,VWS V14.01,2013-04-15 17:36:00,
2013-04-15 13:37:00,94.1,42.7,30.00,ENE,68,0.0,0.9,17,0.00,,---,0.00,VWS V14.01,2013-04-15 17:37:00,
2013-04-15 13:38:00,94.6,43.1,30.00,SSW,202,1.6,2.0,17,0.00,,---,0.00,VWS V14.01,2013-04-15 17:38:00,
2013-04-15 13:39:00,94.3,42.8,30.00,South,180,1.6,2.9,17,0.00,,---,0.00,VWS V14.01,2013-04-15 17:39:00,
2013-04-15 13:40:00,93.9,42.5,29.97,SSE,158,0.0,0.0,17,0.00,,---,0.00,VWS V14.01,2013-04-15 17:40:00,
2013-04-15 13:41:00,93.2,42.0,30.00,SSW,202,0.0,3.4,17,0.00,,---,0.00,VWS V14.01,2013-04-15 17:41:00,
2013-04-15 13:42:00,93.2,42.0,29.97,SSE,158,0.0,2.0,17,0.00,,---,0.00,VWS V14.01,2013-04-15 17:42:00,
2013-04-15 13:43:00,93.6,42.2,29.97,SSE,158,0.0,0.9,17,0.00,,---,0.00,VWS V14.01,2013-04-15 17:43:00,
2013-04-15 13:44:00,93.9,42.5,29.97,SSE,158,1.6,1.6,17,0.00,,---,0.00,VWS V14.01,2013-04-15 17:44:00,
2013-04-15 13:45:00,94.8,43.3,29.97,SSE,158,2.7,2.7,17,0.00,,---,0.00,VWS V14.01,2013-04-15 17:45:00,
2013-04-15 13:46:00,94.3,42.8,29.97,NNW,338,2.0,2.5,17,0.00,,---,0.00,VWS V14.01,2013-04-15 17:46:00,
2013-04-15 13:47:00,94.8,43.3,29.97,SSE,158,2.7,2.7,17,0.00,,---,0.00,VWS V14.01,2013-04-15 17:47:00,
2013-04-15 13:48:00,94.8,43.3,29.97,SSE,158,0.0,2.7,17,0.00,,---,0.00,VWS V14.01,2013-04-15 17:48:00,
2013-04-15 13:49:00,93.9,42.5,29.97,SSE,158,4.0,4.0,17,0.00,,---,0.00,VWS V14.01,2013-04-15 17:49:00,
2013-04-15 13:50:00,94.6,43.1,29.97,ESE,112,1.3,1.3,17,0.00,,---,0.00,VWS V14.01,2013-04-15 17:50:00,
2013-04-15 13:51:00,94.1,42.7,29.97,ESE,112,2.5,3.1,17,0.00,,---,0.00,VWS V14.01,2013-04-15 17:51:00,
2013-04-15 13:52:00,94.3,42.8,29.97,ESE,112,1.6,2.9,17,0.00,,---,0.00,VWS V14.01,2013-04-15 17:52:00,
2013-04-15 13:53:00,94.5,43.0,29.97,ESE,112,1.3,1.6,17,0.00,,---,0.00,VWS V14.01,2013-04-15 17:53:00,
2013-04-15 13:54:00,94.6,43.1,29.97,ESE,112,1.3,1.3,17,0.00,,---,0.00,VWS V14.01,2013-04-15 17:54:00,
2013-04-15 13:55:00,96.1,44.3,29.97,ESE,112,0.0,2.5,17,0.00,,---,0.00,VWS V14.01,2013-04-15 17:55:00,
2013-04-15 13:56:00,95.0,43.4,29.97,SE,135,0.0,2.0,17,0.00,,---,0.00,VWS V14.01,2013-04-15 17:56:00,
2013-04-15 13:57:00,95.4,43.7,29.97,SE,135,0.0,0.9,17,0.00,,---,0.00,VWS V14.01,2013-04-15 17:57:00,
2013-04-15 13:58:00,95.7,44.0,29.97,NNE,22,2.5,2.5,17,0.00,,---,0.00,VWS V14.01,2013-04-15 17:58:00,
2013-04-15 13:59:00,96.1,44.3,29.97,ESE,112,1.1,2.5,17,0.00,,---,0.00,VWS V14.01,2013-04-15 17:59:00,
2013-04-15 14:00:00,96.8,43.3,29.97,East,90,3.1,3.1,16,0.00,,---,0.00,VWS V14.01,2013-04-15 18:00:00,
2013-04-15 14:01:00,96.4,44.6,29.97,ENE,68,0.9,3.1,17,0.00,,---,0.00,VWS V14.01,2013-04-15 18:01:00,
2013-04-15 14:02:00,96.6,44.7,29.97,East,90,0.0,0.9,17,0.00,,---,0.00,VWS V14.01,2013-04-15 18:02:00,
2013-04-15 14:03:00,96.8,43.3,29.97,East,90,1.3,1.3,16,0.00,,---,0.00,VWS V14.01,2013-04-15 18:03:00,
2013-04-15 14:04:00,96.8,43.3,29.97,ENE,68,0.9,3.1,16,0.00,,---,0.00,VWS V14.01,2013-04-15 18:04:00,
2013-04-15 14:05:00,95.9,42.5,29.97,ESE,112,0.0,2.7,16,0.00,,---,0.00,VWS V14.01,2013-04-15 18:05:00,
2013-04-15 14:06:00,96.4,44.6,29.97,SSE,158,3.1,3.1,17,0.00,,---,0.00,VWS V14.01,2013-04-15 18:06:00,
2013-04-15 14:07:00,95.9,42.5,29.97,SSE,158,0.0,3.1,16,0.00,,---,0.00,VWS V14.01,2013-04-15 18:07:00,
2013-04-15 14:08:00,96.1,44.3,29.97,SSE,158,2.7,2.7,17,0.00,,---,0.00,VWS V14.01,2013-04-15 18:08:00,
2013-04-15 14:09:00,95.9,42.5,29.97,East,90,2.0,2.7,16,0.00,,---,0.00,VWS V14.01,2013-04-15 18:09:00,
2013-04-15 14:10:00,97.3,43.7,29.97,ENE,68,1.3,2.7,16,0.00,,---,0.00,VWS V14.01,2013-04-15 18:10:00,
2013-04-15 14:11:00,96.8,43.3,29.97,ENE,68,1.1,1.3,16,0.00,,---,0.00,VWS V14.01,2013-04-15 18:11:00,
2013-04-15 14:12:00,97.0,43.4,29.97,ENE,68,1.3,1.3,16,0.00,,---,0.00,VWS V14.01,2013-04-15 18:12:00,
2013-04-15 14:13:00,97.2,43.5,29.97,North,0,2.7,2.9,16,0.00,,---,0.00,VWS V14.01,2013-04-15 18:13:00,
2013-04-15 14:14:00,97.3,43.7,29.97,East,90,2.5,2.7,16,0.00,,---,0.00,VWS V14.01,2013-04-15 18:14:00,
2013-04-15 14:15:00,97.5,43.8,29.97,ENE,68,2.2,3.1,16,0.00,,---,0.00,VWS V14.01,2013-04-15 18:15:00,
2013-04-15 14:16:00,97.3,43.7,29.97,North,0,1.1,2.0,16,0.00,,---,0.00,VWS V14.01,2013-04-15 18:16:00,
2013-04-15 14:17:00,97.5,43.8,29.97,ESE,112,0.9,2.2,16,0.00,,---,0.00,VWS V14.01,2013-04-15 18:17:00,
2013-04-15 14:18:00,97.7,44.0,29.97,NE,45,3.1,3.1,16,0.00,,---,0.00,VWS V14.01,2013-04-15 18:18:00,
2013-04-15 14:19:00,97.5,43.8,29.97,ENE,68,2.2,3.1,16,0.00,,---,0.00,VWS V14.01,2013-04-15 18:19:00,
2013-04-15 14:20:00,97.5,43.8,29.97,East,90,2.2,2.5,16,0.00,,---,0.00,VWS V14.01,2013-04-15 18:20:00,
2013-04-15 14:21:00,97.7,44.0,29.97,ESE,112,1.6,2.2,16,0.00,,---,0.00,VWS V14.01,2013-04-15 18:21:00,
2013-04-15 14:22:00,97.5,43.8,29.97,SSE,158,1.3,3.1,16,0.00,,---,0.00,VWS V14.01,2013-04-15 18:22:00,
2013-04-15 14:23:00,97.5,43.8,29.97,East,90,1.1,1.3,16,0.00,,---,0.00,VWS V14.01,2013-04-15 18:23:00,
2013-04-15 14:24:00,97.5,43.8,29.97,East,90,2.2,2.5,16,0.00,,---,0.00,VWS V14.01,2013-04-15 18:24:00,
2013-04-15 14:25:00,96.6,43.1,29.97,East,90,1.1,3.1,16,0.00,,---,0.00,VWS V14.01,2013-04-15 18:25:00,
2013-04-15 14:26:00,96.6,43.1,29.97,East,90,1.3,2.7,16,0.00,,---,0.00,VWS V14.01,2013-04-15 18:26:00,
2013-04-15 14:27:00,96.6,43.1,29.97,East,90,1.3,3.6,16,0.00,,---,0.00,VWS V14.01,2013-04-15 18:27:00,
2013-04-15 14:28:00,96.8,43.3,29.97,ESE,112,2.9,2.9,16,0.00,,---,0.00,VWS V14.01,2013-04-15 18:28:00,
2013-04-15 14:29:00,97.3,43.7,29.97,North,0,1.6,1.6,16,0.00,,---,0.00,VWS V14.01,2013-04-15 18:29:00,
2013-04-15 14:30:00,96.8,43.3,29.97,SSW,202,0.0,2.5,16,0.00,,---,0.00,VWS V14.01,2013-04-15 18:30:00,
2013-04-15 14:31:00,96.8,43.3,29.97,NNW,338,0.0,2.7,16,0.00,,---,0.00,VWS V14.01,2013-04-15 18:31:00,
2013-04-15 14:32:00,97.3,43.7,29.97,ENE,68,0.0,2.9,16,0.00,,---,0.00,VWS V14.01,2013-04-15 18:32:00,
2013-04-15 14:33:00,97.5,43.8,29.97,North,0,1.3,1.6,16,0.00,,---,0.00,VWS V14.01,2013-04-15 18:33:00,
2013-04-15 14:34:00,97.7,44.0,29.97,East,90,0.0,1.6,16,0.00,,---,0.00,VWS V14.01,2013-04-15 18:34:00,
2013-04-15 14:35:00,97.7,44.0,29.97,NE,45,0.0,1.6,16,0.00,,---,0.00,VWS V14.01,2013-04-15 18:35:00,
2013-04-15 14:36:00,97.7,44.0,29.97,East,90,2.0,2.0,16,0.00,,---,0.00,VWS V14.01,2013-04-15 18:36:00,
2013-04-15 14:37:00,97.7,44.0,29.97,East,90,1.6,2.0,16,0.00,,---,0.00,VWS V14.01,2013-04-15 18:37:00,
2013-04-15 14:38:00,97.7,44.0,29.97,East,90,0.0,1.6,16,0.00,,---,0.00,VWS V14.01,2013-04-15 18:38:00,
2013-04-15 14:39:00,97.5,43.8,29.97,NNW,338,1.6,3.4,16,0.00,,---,0.00,VWS V14.01,2013-04-15 18:39:00,
2013-04-15 14:40:00,97.7,44.0,29.97,SSE,158,2.0,3.4,16,0.00,,---,0.00,VWS V14.01,2013-04-15 18:40:00,
2013-04-15 14:41:00,96.6,43.1,29.97,SSE,158,0.0,2.0,16,0.00,,---,0.00,VWS V14.01,2013-04-15 18:41:00,
2013-04-15 14:42:00,97.2,43.5,29.97,NNE,22,3.4,3.4,16,0.00,,---,0.00,VWS V14.01,2013-04-15 18:42:00,
2013-04-15 14:43:00,97.5,43.8,29.97,NNW,338,1.6,3.4,16,0.00,,---,0.00,VWS V14.01,2013-04-15 18:43:00,
2013-04-15 14:44:00,96.3,42.8,29.97,East,90,1.3,1.6,16,0.00,,---,0.00,VWS V14.01,2013-04-15 18:44:00,
2013-04-15 14:45:00,96.1,42.7,29.97,SSE,158,2.5,5.4,16,0.00,,---,0.00,VWS V14.01,2013-04-15 18:45:00,
2013-04-15 14:46:00,95.7,42.4,29.97,SSE,158,0.0,2.5,16,0.00,,---,0.00,VWS V14.01,2013-04-15 18:46:00,
2013-04-15 14:47:00,95.7,42.4,29.97,SSE,158,1.6,1.6,16,0.00,,---,0.00,VWS V14.01,2013-04-15 18:47:00,
2013-04-15 14:48:00,96.3,42.8,29.97,East,90,1.3,1.6,16,0.00,,---,0.00,VWS V14.01,2013-04-15 18:48:00,
2013-04-15 14:49:00,97.9,44.1,29.97,NE,45,2.0,2.9,16,0.00,,---,0.00,VWS V14.01,2013-04-15 18:49:00,
2013-04-15 14:50:00,96.3,42.8,29.97,East,90,2.2,2.2,16,0.00,,---,0.00,VWS V14.01,2013-04-15 18:50:00,
2013-04-15 14:51:00,97.5,43.8,29.97,East,90,0.9,2.5,16,0.00,,---,0.00,VWS V14.01,2013-04-15 18:51:00,
2013-04-15 14:52:00,97.9,44.1,29.97,East,90,2.7,2.7,16,0.00,,---,0.00,VWS V14.01,2013-04-15 18:52:00,
2013-04-15 14:53:00,97.9,44.1,29.97,NE,45,2.0,2.9,16,0.00,,---,0.00,VWS V14.01,2013-04-15 18:53:00,
2013-04-15 14:54:00,96.1,44.3,29.97,West,270,4.7,4.7,17,0.00,,---,0.00,VWS V14.01,2013-04-15 18:54:00,
2013-04-15 14:55:00,98.2,44.4,29.97,WNW,292,1.1,1.1,16,0.00,,---,0.00,VWS V14.01,2013-04-15 18:55:00,
2013-04-15 14:56:00,97.9,44.1,29.97,NNW,338,4.0,5.8,16,0.00,,---,0.00,VWS V14.01,2013-04-15 18:56:00,
2013-04-15 14:57:00,96.6,43.1,29.97,WNW,292,2.0,6.5,16,0.00,,---,0.00,VWS V14.01,2013-04-15 18:57:00,
2013-04-15 14:58:00,96.1,44.3,29.97,West,270,4.7,5.8,17,0.00,,---,0.00,VWS V14.01,2013-04-15 18:58:00,
2013-04-15 14:59:00,95.4,43.7,29.97,NNW,338,1.6,5.6,17,0.00,,---,0.00,VWS V14.01,2013-04-15 18:59:00,
2013-04-15 15:00:00,95.7,44.0,29.97,NNW,338,2.9,5.8,17,0.00,,---,0.00,VWS V14.01,2013-04-15 19:00:00,
2013-04-15 15:01:00,95.9,44.1,29.97,WSW,248,6.3,6.3,17,0.00,,---,0.00,VWS V14.01,2013-04-15 19:01:00,
2013-04-15 15:02:00,95.5,43.8,29.97,NNW,338,5.6,6.3,17,0.00,,---,0.00,VWS V14.01,2013-04-15 19:02:00,
2013-04-15 15:03:00,95.4,43.7,29.97,NNW,338,1.6,5.6,17,0.00,,---,0.00,VWS V14.01,2013-04-15 19:03:00,
2013-04-15 15:04:00,96.1,44.3,29.97,NNW,338,1.3,4.0,17,0.00,,---,0.00,VWS V14.01,2013-04-15 19:04:00,
2013-04-15 15:05:00,96.4,44.6,29.97,NNW,338,4.3,4.3,17,0.00,,---,0.00,VWS V14.01,2013-04-15 19:05:00,
2013-04-15 15:06:00,96.3,44.4,29.97,WNW,292,5.4,6.3,17,0.00,,---,0.00,VWS V14.01,2013-04-15 19:06:00,
2013-04-15 15:07:00,95.9,44.1,29.97,NW,315,4.0,6.0,17,0.00,,---,0.00,VWS V14.01,2013-04-15 19:07:00,
2013-04-15 15:08:00,96.1,44.3,29.97,NNW,338,1.3,4.0,17,0.00,,---,0.00,VWS V14.01,2013-04-15 19:08:00,
2013-04-15 15:09:00,95.5,43.8,29.97,WNW,292,1.6,5.6,17,0.00,,---,0.00,VWS V14.01,2013-04-15 19:09:00,
2013-04-15 15:10:00,95.4,43.7,29.97,WNW,292,4.9,6.3,17,0.00,,---,0.00,VWS V14.01,2013-04-15 19:10:00,
2013-04-15 15:11:00,95.4,43.7,29.97,NNW,338,1.3,4.9,17,0.00,,---,0.00,VWS V14.01,2013-04-15 19:11:00,
2013-04-15 15:12:00,95.5,43.8,29.97,NNW,338,5.6,6.5,17,0.00,,---,0.00,VWS V14.01,2013-04-15 19:12:00,
2013-04-15 15:13:00,95.5,43.8,29.97,WNW,292,1.6,5.6,17,0.00,,---,0.00,VWS V14.01,2013-04-15 19:13:00,
2013-04-15 15:14:00,95.5,43.8,29.97,NNW,338,4.0,4.9,17,0.00,,---,0.00,VWS V14.01,2013-04-15 19:14:00,
2013-04-15 15:15:00,96.1,44.3,29.97,WNW,292,6.0,6.7,17,0.00,,---,0.00,VWS V14.01,2013-04-15 19:15:00,
2013-04-15 15:16:00,95.7,44.0,29.97,WNW,292,3.8,6.0,17,0.00,,---,0.00,VWS V14.01,2013-04-15 19:16:00,
2013-04-15 15:17:00,95.7,44.0,29.97,South,180,3.4,4.5,17,0.00,,---,0.00,VWS V14.01,2013-04-15 19:17:00,
2013-04-15 15:18:00,95.5,43.8,29.97,NNW,338,4.0,4.9,17,0.00,,---,0.00,VWS V14.01,2013-04-15 19:18:00,
2013-04-15 15:19:00,97.5,43.8,29.97,SE,135,0.9,1.6,16,0.00,,---,0.00,VWS V14.01,2013-04-15 19:19:00,
2013-04-15 15:20:00,97.0,43.4,29.97,NE,45,0.0,2.9,16,0.00,,---,0.00,VWS V14.01,2013-04-15 19:20:00,
2013-04-15 15:21:00,97.5,43.8,29.97,SE,135,2.0,2.0,16,0.00,,---,0.00,VWS V14.01,2013-04-15 19:21:00,
2013-04-15 15:22:00,97.3,43.7,29.97,West,270,1.6,2.7,16,0.00,,---,0.00,VWS V14.01,2013-04-15 19:22:00,
2013-04-15 15:23:00,97.5,43.8,29.97,SE,135,3.4,3.4,16,0.00,,---,0.00,VWS V14.01,2013-04-15 19:23:00,
2013-04-15 15:24:00,97.7,44.0,29.97,West,270,2.7,4.0,16,0.00,,---,0.00,VWS V14.01,2013-04-15 19:24:00,
2013-04-15 15:25:00,96.8,43.3,29.97,North,0,3.4,3.4,16,0.00,,---,0.00,VWS V14.01,2013-04-15 19:25:00,
2013-04-15 15:26:00,97.5,43.8,29.97,NE,45,0.0,3.4,16,0.00,,---,0.00,VWS V14.01,2013-04-15 19:26:00,
2013-04-15 15:27:00,97.5,43.8,29.97,NW,315,2.9,3.4,16,0.00,,---,0.00,VWS V14.01,2013-04-15 19:27:00,
2013-04-15 15:28:00,97.7,44.0,29.97,West,270,2.7,4.0,16,0.00,,---,0.00,VWS V14.01,2013-04-15 19:28:00,
2013-04-15 15:29:00,97.7,44.0,29.97,NNW,338,5.6,5.6,16,0.00,,---,0.00,VWS V14.01,2013-04-15 19:29:00,
2013-04-15 15:30:00,97.3,43.7,29.97,NW,315,3.4,6.3,16,0.00,,---,0.00,VWS V14.01,2013-04-15 19:30:00,
2013-04-15 15:31:00,97.2,43.5,29.97,WSW,248,2.0,3.6,16,0.00,,---,0.00,VWS V14.01,2013-04-15 19:31:00,
2013-04-15 15:32:00,97.3,43.7,29.97,WNW,292,0.0,2.0,16,0.00,,---,0.00,VWS V14.01,2013-04-15 19:32:00,
2013-04-15 15:33:00,97.7,44.0,29.97,NNW,338,5.6,5.6,16,0.00,,---,0.00,VWS V14.01,2013-04-15 19:33:00,
2013-04-15 15:34:00,97.5,43.8,29.97,WNW,292,3.1,4.3,16,0.00,,---,0.00,VWS V14.01,2013-04-15 19:34:00,
2013-04-15 15:35:00,97.5,43.8,29.97,NW,315,2.0,3.8,16,0.00,,---,0.00,VWS V14.01,2013-04-15 19:35:00,
2013-04-15 15:36:00,97.2,43.5,29.97,NNW,338,3.6,4.3,16,0.00,,---,0.00,VWS V14.01,2013-04-15 19:36:00,
2013-04-15 15:37:00,97.3,43.7,29.97,NW,315,3.8,3.8,16,0.00,,---,0.00,VWS V14.01,2013-04-15 19:37:00,
2013-04-15 15:38:00,97.5,43.8,29.97,WNW,292,3.1,4.3,16,0.00,,---,0.00,VWS V14.01,2013-04-15 19:38:00,
2013-04-15 15:39:00,97.9,44.1,29.97,NNW,338,7.8,7.8,16,0.00,,---,0.00,VWS V14.01,2013-04-15 19:39:00,
2013-04-15 15:40:00,97.7,44.0,29.97,NE,45,1.1,2.2,16,0.00,,---,0.00,VWS V14.01,2013-04-15 19:40:00,
2013-04-15 15:41:00,98.1,44.3,29.97,WSW,248,3.8,3.8,16,0.00,,---,0.00,VWS V14.01,2013-04-15 19:41:00,
2013-04-15 15:42:00,98.2,44.4,29.97,WSW,248,2.5,3.8,16,0.00,,---,0.00,VWS V14.01,2013-04-15 19:42:00,
2013-04-15 15:43:00,97.9,44.1,29.97,NNW,338,7.8,7.8,16,0.00,,---,0.00,VWS V14.01,2013-04-15 19:43:00,
2013-04-15 15:44:00,97.9,44.1,29.97,WNW,292,6.7,6.7,16,0.00,,---,0.00,VWS V14.01,2013-04-15 19:44:00,
2013-04-15 15:45:00,98.2,44.4,29.97,NW,315,1.3,3.6,16,0.00,,---,0.00,VWS V14.01,2013-04-15 19:45:00,
2013-04-15 15:46:00,98.2,44.4,29.97,NNW,338,3.6,3.8,16,0.00,,---,0.00,VWS V14.01,2013-04-15 19:46:00,
2013-04-15 15:47:00,98.2,44.4,29.97,West,270,3.8,3.8,16,0.00,,---,0.00,VWS V14.01,2013-04-15 19:47:00,
2013-04-15 15:48:00,97.9,44.1,29.97,WNW,292,6.7,6.7,16,0.00,,---,0.00,VWS V14.01,2013-04-15 19:48:00,
2013-04-15 15:49:00,96.6,43.1,29.97,West,270,6.0,7.4,16,0.00,,---,0.00,VWS V14.01,2013-04-15 19:49:00,
2013-04-15 15:50:00,96.3,42.8,29.97,NW,315,2.5,4.5,16,0.00,,---,0.00,VWS V14.01,2013-04-15 19:50:00,
2013-04-15 15:51:00,95.9,42.5,29.97,NNE,22,5.8,6.5,16,0.00,,---,0.00,VWS V14.01,2013-04-15 19:51:00,
2013-04-15 15:52:00,95.9,42.5,29.97,SE,135,1.3,5.8,16,0.00,,---,0.00,VWS V14.01,2013-04-15 19:52:00,
2013-04-15 15:53:00,96.3,42.8,29.97,WSW,248,3.4,4.3,16,0.00,,---,0.00,VWS V14.01,2013-04-15 19:53:00,
2013-04-15 15:54:00,96.3,42.8,29.97,NW,315,1.1,4.5,16,0.00,,---,0.00,VWS V14.01,2013-04-15 19:54:00,
2013-04-15 15:55:00,96.3,44.4,29.97,WSW,248,2.2,3.6,17,0.00,,---,0.00,VWS V14.01,2013-04-15 19:55:00,
2013-04-15 15:56:00,95.7,42.4,29.97,NW,315,2.7,5.4,16,0.00,,---,0.00,VWS V14.01,2013-04-15 19:56:00,
2013-04-15 15:57:00,96.1,44.3,29.97,West,270,3.8,3.8,17,0.00,,---,0.00,VWS V14.01,2013-04-15 19:57:00,
2013-04-15 15:58:00,95.9,44.1,29.97,WNW,292,3.6,5.6,17,0.00,,---,0.00,VWS V14.01,2013-04-15 19:58:00,
2013-04-15 15:59:00,96.3,44.4,29.97,WSW,248,2.2,3.6,17,0.00,,---,0.00,VWS V14.01,2013-04-15 19:59:00,
2013-04-15 16:00:00,95.9,42.5,29.97,WNW,292,5.6,6.5,16,0.00,,---,0.00,VWS V14.01,2013-04-15 20:00:00,
2013-04-15 16:01:00,94.5,43.0,29.97,NW,315,5.6,5.6,17,0.00,,---,0.00,VWS V14.01,2013-04-15 20:01:00,
2013-04-15 16:02:00,94.5,43.0,29.97,WNW,292,8.7,8.7,17,0.00,,---,0.00,VWS V14.01,2013-04-15 20:02:00,
2013-04-15 16:03:00,95.9,42.5,29.97,WNW,292,3.1,4.9,16,0.00,,---,0.00,VWS V14.01,2013-04-15 20:03:00,
2013-04-15 16:04:00,95.0,41.8,29.97,WNW,292,3.6,6.9,16,0.00,,---,0.00,VWS V14.01,2013-04-15 20:04:00,
2013-04-15 16:05:00,94.5,43.0,29.97,NW,315,5.6,7.8,17,0.00,,---,0.00,VWS V14.01,2013-04-15 20:05:00,
2013-04-15 16:06:00,93.6,42.2,29.97,NNW,338,3.6,8.7,17,0.00,,---,0.00,VWS V14.01,2013-04-15 20:06:00,
2013-04-15 16:07:00,95.0,43.4,29.97,North,0,4.0,5.8,17,0.00,,---,0.00,VWS V14.01,2013-04-15 20:07:00,
2013-04-15 16:08:00,94.1,42.7,29.97,West,270,1.6,6.3,17,0.00,,---,0.00,VWS V14.01,2013-04-15 20:08:00,
2013-04-15 16:09:00,94.5,43.0,29.97,WNW,292,3.1,3.6,17,0.00,,---,0.00,VWS V14.01,2013-04-15 20:09:00,
2013-04-15 16:10:00,94.8,43.3,29.97,West,270,3.8,3.8,17,0.00,,---,0.00,VWS V14.01,2013-04-15 20:10:00,
2013-04-15 16:11:00,95.0,43.4,29.97,North,0,4.0,5.8,17,0.00,,---,0.00,VWS V14.01,2013-04-15 20:11:00,
2013-04-15 16:12:00,93.9,42.5,29.94,WNW,292,3.4,6.3,17,0.00,,---,0.00,VWS V14.01,2013-04-15 20:12:00,
2013-04-15 16:13:00,95.0,43.4,29.94,NNW,338,4.3,6.5,17,0.00,,---,0.00,VWS V14.01,2013-04-15 20:13:00,
2013-04-15 16:14:00,94.5,43.0,29.94,WNW,292,5.4,5.6,17,0.00,,---,0.00,VWS V14.01,2013-04-15 20:14:00,
2013-04-15 16:15:00,94.6,43.1,29.94,NW,315,4.9,8.1,17,0.00,,---,0.00,VWS V14.01,2013-04-15 20:15:00,
2013-04-15 16:16:00,93.9,42.5,29.94,WNW,292,2.5,6.3,17,0.00,,---,0.00,VWS V14.01,2013-04-15 20:16:00,
2013-04-15 16:17:00,94.5,43.0,29.94,West,270,1.3,6.0,17,0.00,,---,0.00,VWS V14.01,2013-04-15 20:17:00,
2013-04-15 16:18:00,93.7,42.4,29.94,NNW,338,5.8,5.8,17,0.00,,---,0.00,VWS V14.01,2013-04-15 20:18:00,
2013-04-15 16:19:00,93.7,42.4,29.94,NNE,22,3.6,5.8,17,0.00,,---,0.00,VWS V14.01,2013-04-15 20:19:00,
2013-04-15 16:20:00,93.9,42.5,29.94,North,0,6.0,6.7,17,0.00,,---,0.00,VWS V14.01,2013-04-15 20:20:00,
2013-04-15 16:21:00,94.5,43.0,29.94,West,270,1.3,6.0,17,0.00,,---,0.00,VWS V14.01,2013-04-15 20:21:00,
2013-04-15 16:22:00,93.6,42.2,29.94,West,270,5.4,7.8,17,0.00,,---,0.00,VWS V14.01,2013-04-15 20:22:00,
2013-04-15 16:23:00,94.8,43.3,29.94,WNW,292,7.2,7.2,17,0.00,,---,0.00,VWS V14.01,2013-04-15 20:23:00,
2013-04-15 16:24:00,94.8,43.3,29.94,NNW,338,5.4,7.2,17,0.00,,---,0.00,VWS V14.01,2013-04-15 20:24:00,
2013-04-15 16:25:00,94.8,43.3,29.94,West,270,7.8,7.8,17,0.00,,---,0.00,VWS V14.01,2013-04-15 20:25:00,
2013-04-15 16:26:00,93.6,42.2,29.94,WNW,292,3.4,7.8,17,0.00,,---,0.00,VWS V14.01,2013-04-15 20:26:00,
2013-04-15 16:27:00,93.4,42.1,29.94,WNW,292,5.4,8.1,17,0.00,,---,0.00,VWS V14.01,2013-04-15 20:27:00,
2013-04-15 16:28:00,94.1,42.7,29.94,WSW,248,1.6,4.3,17,0.00,,---,0.00,VWS V14.01,2013-04-15 20:28:00,
2013-04-15 16:29:00,94.3,42.8,29.94,WNW,292,5.8,5.8,17,0.00,,---,0.00,VWS V14.01,2013-04-15 20:29:00,
2013-04-15 16:30:00,93.7,42.4,29.94,NNW,338,3.1,6.3,17,0.00,,---,0.00,VWS V14.01,2013-04-15 20:30:00,
2013-04-15 16:31:00,93.4,42.1,29.94,WNW,292,6.0,8.1,17,0.00,,---,0.00,VWS V14.01,2013-04-15 20:31:00,
2013-04-15 16:32:00,93.6,42.2,29.94,NNW,338,3.1,6.0,17,0.00,,---,0.00,VWS V14.01,2013-04-15 20:32:00,
2013-04-15 16:33:00,93.6,42.2,29.94,WNW,292,3.8,5.8,17,0.00,,---,0.00,VWS V14.01,2013-04-15 20:33:00,
2013-04-15 16:34:00,93.4,42.1,29.94,WNW,292,3.4,8.7,17,0.00,,---,0.00,VWS V14.01,2013-04-15 20:34:00,
2013-04-15 16:35:00,93.2,42.0,29.94,NW,315,6.0,6.0,17,0.00,,---,0.00,VWS V14.01,2013-04-15 20:35:00,
2013-04-15 16:36:00,93.6,42.2,29.94,NW,315,2.2,6.0,17,0.00,,---,0.00,VWS V14.01,2013-04-15 20:36:00,
2013-04-15 16:37:00,93.9,42.5,29.94,West,270,1.6,3.6,17,0.00,,---,0.00,VWS V14.01,2013-04-15 20:37:00,
2013-04-15 16:38:00,94.3,42.8,29.94,SW,225,2.7,4.3,17,0.00,,---,0.00,VWS V14.01,2013-04-15 20:38:00,
2013-04-15 16:39:00,94.5,43.0,29.94,North,0,8.1,8.1,17,0.00,,---,0.00,VWS V14.01,2013-04-15 20:39:00,
2013-04-15 16:40:00,93.9,42.5,29.94,NW,315,2.7,8.1,17,0.00,,---,0.00,VWS V14.01,2013-04-15 20:40:00,
2013-04-15 16:41:00,93.9,42.5,29.94,West,270,2.7,3.6,17,0.00,,---,0.00,VWS V14.01,2013-04-15 20:41:00,
2013-04-15 16:42:00,94.8,43.3,29.94,WNW,292,3.6,3.6,17,0.00,,---,0.00,VWS V14.01,2013-04-15 20:42:00,
2013-04-15 16:43:00,94.5,43.0,29.94,WNW,292,6.0,6.0,17,0.00,,---,0.00,VWS V14.01,2013-04-15 20:43:00,
2013-04-15 16:44:00,94.5,43.0,29.94,NW,315,3.4,7.8,17,0.00,,---,0.00,VWS V14.01,2013-04-15 20:44:00,
2013-04-15 16:45:00,94.8,43.3,29.94,WSW,248,1.6,3.4,17,0.00,,---,0.00,VWS V14.01,2013-04-15 20:45:00,
2013-04-15 16:46:00,94.8,43.3,29.94,WNW,292,2.9,3.6,17,0.00,,---,0.00,VWS V14.01,2013-04-15 20:46:00,
2013-04-15 16:47:00,94.8,43.3,29.94,WNW,292,4.0,5.6,17,0.00,,---,0.00,VWS V14.01,2013-04-15 20:47:00,
2013-04-15 16:48:00,94.8,43.3,29.94,WNW,292,2.5,4.7,17,0.00,,---,0.00,VWS V14.01,2013-04-15 20:48:00,
2013-04-15 16:49:00,95.0,43.4,29.94,North,0,3.1,6.0,17,0.00,,---,0.00,VWS V14.01,2013-04-15 20:49:00,
2013-04-15 16:50:00,94.8,43.3,29.94,NNW,338,4.0,4.0,17,0.00,,---,0.00,VWS V14.01,2013-04-15 20:50:00,
2013-04-15 16:51:00,94.3,42.8,29.94,WNW,292,7.6,7.6,17,0.00,,---,0.00,VWS V14.01,2013-04-15 20:51:00,
2013-04-15 16:52:00,93.6,42.2,29.94,NW,315,4.9,5.6,17,0.00,,---,0.00,VWS V14.01,2013-04-15 20:52:00,
2013-04-15 16:53:00,94.1,42.7,29.94,North,0,4.0,6.3,17,0.00,,---,0.00,VWS V14.01,2013-04-15 20:53:00,
2013-04-15 16:54:00,94.1,42.7,29.94,WNW,292,6.0,6.0,17,0.00,,---,0.00,VWS V14.01,2013-04-15 20:54:00,
2013-04-15 16:55:00,93.9,42.5,29.94,WNW,292,3.6,6.0,17,0.00,,---,0.00,VWS V14.01,2013-04-15 20:55:00,
2013-04-15 16:56:00,93.6,42.2,29.94,WNW,292,5.6,5.6,17,0.00,,---,0.00,VWS V14.01,2013-04-15 20:56:00,
2013-04-15 16:57:00,93.0,43.3,29.97,West,270,2.0,2.9,18,0.00,,---,0.00,VWS V14.01,2013-04-15 20:57:00,
2013-04-15 16:58:00,93.4,42.1,29.97,WNW,292,4.9,5.4,17,0.00,,---,0.00,VWS V14.01,2013-04-15 20:58:00,
2013-04-15 16:59:00,92.7,43.0,29.97,NNW,338,4.3,7.8,18,0.00,,---,0.00,VWS V14.01,2013-04-15 20:59:00,
2013-04-15 17:00:00,93.0,43.3,29.97,ENE,68,2.9,4.3,18,0.00,,---,0.00,VWS V14.01,2013-04-15 21:00:00,
2013-04-15 17:01:00,93.0,43.3,29.97,NW,315,3.4,3.4,18,0.00,,---,0.00,VWS V14.01,2013-04-15 21:01:00,
2013-04-15 17:02:00,91.9,42.4,29.97,West,270,3.6,8.7,18,0.00,,---,0.00,VWS V14.01,2013-04-15 21:02:00,
2013-04-15 17:03:00,93.0,43.3,29.97,NNW,338,3.1,4.7,18,0.00,,---,0.00,VWS V14.01,2013-04-15 21:03:00,
2013-04-15 17:04:00,93.0,43.3,29.97,WNW,292,4.9,6.5,18,0.00,,---,0.00,VWS V14.01,2013-04-15 21:04:00,
2013-04-15 17:05:00,91.9,42.4,29.97,WNW,292,3.8,4.9,18,0.00,,---,0.00,VWS V14.01,2013-04-15 21:05:00,
2013-04-15 17:06:00,91.9,42.4,29.97,North,0,3.1,8.7,18,0.00,,---,0.00,VWS V14.01,2013-04-15 21:06:00,
2013-04-15 17:07:00,92.8,43.2,29.97,NNW,338,3.4,4.9,18,0.00,,---,0.00,VWS V14.01,2013-04-15 21:07:00,
2013-04-15 17:08:00,92.3,42.7,29.97,West,270,2.0,4.9,18,0.00,,---,0.00,VWS V14.01,2013-04-15 21:08:00,
2013-04-15 17:09:00,92.7,43.0,29.97,NW,315,2.7,4.3,18,0.00,,---,0.00,VWS V14.01,2013-04-15 21:09:00,
2013-04-15 17:10:00,92.8,43.2,29.97,NW,315,4.9,5.6,18,0.00,,---,0.00,VWS V14.01,2013-04-15 21:10:00,
2013-04-15 17:11:00,92.8,43.2,29.97,WNW,292,3.1,4.9,18,0.00,,---,0.00,VWS V14.01,2013-04-15 21:11:00,
2013-04-15 17:12:00,93.7,43.9,29.94,North,0,1.1,2.7,18,0.00,,---,0.00,VWS V14.01,2013-04-15 21:12:00,
2013-04-15 17:13:00,92.8,43.2,29.94,WNW,292,3.4,4.0,18,0.00,,---,0.00,VWS V14.01,2013-04-15 21:13:00,
2013-04-15 17:14:00,93.2,43.4,29.94,NW,315,1.3,3.4,18,0.00,,---,0.00,VWS V14.01,2013-04-15 21:14:00,
2013-04-15 17:15:00,93.4,43.6,29.94,North,0,2.7,3.6,18,0.00,,---,0.00,VWS V14.01,2013-04-15 21:15:00,
2013-04-15 17:16:00,93.7,43.9,29.94,NNE,22,2.7,2.7,18,0.00,,---,0.00,VWS V14.01,2013-04-15 21:16:00,
2013-04-15 17:17:00,94.3,44.3,29.94,NNE,22,3.8,3.8,18,0.00,,---,0.00,VWS V14.01,2013-04-15 21:17:00,
2013-04-15 17:18:00,93.9,44.0,29.94,NW,315,1.1,3.1,18,0.00,,---,0.00,VWS V14.01,2013-04-15 21:18:00,
2013-04-15 17:19:00,94.1,44.2,29.94,West,270,1.3,2.7,18,0.00,,---,0.00,VWS V14.01,2013-04-15 21:19:00,
2013-04-15 17:20:00,94.3,44.3,29.94,NNE,22,2.2,2.2,18,0.00,,---,0.00,VWS V14.01,2013-04-15 21:20:00,
2013-04-15 17:21:00,94.3,44.3,29.94,WNW,292,2.9,3.8,18,0.00,,---,0.00,VWS V14.01,2013-04-15 21:21:00,
2013-04-15 17:22:00,92.5,42.9,29.94,NNW,338,5.8,8.7,18,0.00,,---,0.00,VWS V14.01,2013-04-15 21:22:00,
2013-04-15 17:23:00,93.9,44.0,29.94,NNW,338,3.1,4.9,18,0.00,,---,0.00,VWS V14.01,2013-04-15 21:23:00,
2013-04-15 17:24:00,93.4,43.6,29.94,NNW,338,5.6,9.8,18,0.00,,---,0.00,VWS V14.01,2013-04-15 21:24:00,
2013-04-15 17:25:00,92.7,43.0,29.94,WNW,292,8.7,8.7,18,0.00,,---,0.00,VWS V14.01,2013-04-15 21:25:00,
2013-04-15 17:26:00,92.5,42.9,29.94,NNW,338,5.8,8.7,18,0.00,,---,0.00,VWS V14.01,2013-04-15 21:26:00,
2013-04-15 17:27:00,91.8,42.3,29.94,WNW,292,4.0,6.0,18,0.00,,---,0.00,VWS V14.01,2013-04-15 21:27:00,
2013-04-15 17:28:00,92.3,42.7,29.94,WSW,248,4.5,4.5,18,0.00,,---,0.00,VWS V14.01,2013-04-15 21:28:00,
2013-04-15 17:29:00,92.3,42.7,29.94,NNW,338,6.5,6.5,18,0.00,,---,0.00,VWS V14.01,2013-04-15 21:29:00,
2013-04-15 17:30:00,92.1,42.6,29.94,NNW,338,5.4,7.2,18,0.00,,---,0.00,VWS V14.01,2013-04-15 21:30:00,
2013-04-15 17:31:00,91.8,42.3,29.94,WNW,292,4.0,6.0,18,0.00,,---,0.00,VWS V14.01,2013-04-15 21:31:00,
2013-04-15 17:32:00,90.9,43.0,29.94,WSW,248,5.6,5.8,19,0.00,,---,0.00,VWS V14.01,2013-04-15 21:32:00,
2013-04-15 17:33:00,91.2,41.8,29.94,WNW,292,2.0,6.0,18,0.00,,---,0.00,VWS V14.01,2013-04-15 21:33:00,
2013-04-15 17:34:00,91.0,41.7,29.94,NW,315,2.7,5.4,18,0.00,,---,0.00,VWS V14.01,2013-04-15 21:34:00,
2013-04-15 17:35:00,91.0,43.1,29.94,WNW,292,5.8,5.8,19,0.00,,---,0.00,VWS V14.01,2013-04-15 21:35:00,
2013-04-15 17:36:00,90.9,43.0,29.94,WSW,248,5.6,5.8,19,0.00,,---,0.00,VWS V14.01,2013-04-15 21:36:00,
2013-04-15 17:37:00,91.8,43.7,29.94,West,270,3.6,3.6,19,0.00,,---,0.00,VWS V14.01,2013-04-15 21:37:00,
2013-04-15 17:38:00,91.2,43.2,29.94,NW,315,3.4,4.5,19,0.00,,---,0.00,VWS V14.01,2013-04-15 21:38:00,
2013-04-15 17:39:00,91.2,43.2,29.94,NNW,338,4.0,5.4,19,0.00,,---,0.00,VWS V14.01,2013-04-15 21:39:00,
2013-04-15 17:40:00,91.4,43.4,29.94,WNW,292,2.7,4.0,19,0.00,,---,0.00,VWS V14.01,2013-04-15 21:40:00,
2013-04-15 17:41:00,91.8,43.7,29.94,West,270,3.6,3.6,19,0.00,,---,0.00,VWS V14.01,2013-04-15 21:41:00,
2013-04-15 17:42:00,90.5,42.7,29.94,West,270,3.8,3.8,19,0.00,,---,0.00,VWS V14.01,2013-04-15 21:42:00,
2013-04-15 17:43:00,90.9,43.0,29.94,WNW,292,2.9,4.9,19,0.00,,---,0.00,VWS V14.01,2013-04-15 21:43:00,
2013-04-15 17:44:00,90.5,42.7,29.94,WNW,292,4.0,5.6,19,0.00,,---,0.00,VWS V14.01,2013-04-15 21:44:00,
2013-04-15 17:45:00,90.5,42.7,29.94,West,270,3.1,4.0,19,0.00,,---,0.00,VWS V14.01,2013-04-15 21:45:00,
2013-04-15 17:46:00,90.5,42.7,29.94,West,270,3.8,6.5,19,0.00,,---,0.00,VWS V14.01,2013-04-15 21:46:00,
2013-04-15 17:47:00,90.5,42.7,29.94,WNW,292,1.6,3.8,19,0.00,,---,0.00,VWS V14.01,2013-04-15 21:47:00,
2013-04-15 17:48:00,90.9,43.0,29.94,NNW,338,4.7,4.7,19,0.00,,---,0.00,VWS V14.01,2013-04-15 21:48:00,
2013-04-15 17:49:00,90.7,42.8,29.94,WNW,292,3.4,5.8,19,0.00,,---,0.00,VWS V14.01,2013-04-15 21:49:00,
2013-04-15 17:50:00,90.5,42.7,29.94,WSW,248,3.8,4.7,19,0.00,,---,0.00,VWS V14.01,2013-04-15 21:50:00,
2013-04-15 17:51:00,90.5,42.7,29.94,WNW,292,1.6,3.8,19,0.00,,---,0.00,VWS V14.01,2013-04-15 21:51:00,
2013-04-15 17:52:00,90.9,44.3,29.94,WSW,248,2.5,2.5,20,0.00,,---,0.00,VWS V14.01,2013-04-15 21:52:00,
2013-04-15 17:53:00,90.3,42.5,29.94,NNE,22,4.3,6.3,19,0.00,,---,0.00,VWS V14.01,2013-04-15 21:53:00,
2013-04-15 17:54:00,90.5,42.7,29.94,WNW,292,2.0,4.3,19,0.00,,---,0.00,VWS V14.01,2013-04-15 21:54:00,
2013-04-15 17:55:00,90.7,42.8,29.94,West,270,0.0,2.5,19,0.00,,---,0.00,VWS V14.01,2013-04-15 21:55:00,
2013-04-15 17:56:00,90.7,42.8,29.94,WSW,248,1.3,3.8,19,0.00,,---,0.00,VWS V14.01,2013-04-15 21:56:00,
2013-04-15 17:57:00,90.1,42.4,29.97,NNW,338,3.1,4.7,19,0.00,,---,0.00,VWS V14.01,2013-04-15 21:57:00,
2013-04-15 17:58:00,90.5,42.7,29.97,NW,315,3.8,4.7,19,0.00,,---,0.00,VWS V14.01,2013-04-15 21:58:00,
2013-04-15 17:59:00,90.1,42.4,29.97,NNW,338,6.5,6.5,19,0.00,,---,0.00,VWS V14.01,2013-04-15 21:59:00,
2013-04-15 18:00:00,90.3,42.5,29.97,WNW,292,2.7,6.5,19,0.00,,---,0.00,VWS V14.01,2013-04-15 22:00:00,
2013-04-15 18:01:00,90.1,42.4,29.97,NW,315,4.7,4.9,19,0.00,,---,0.00,VWS V14.01,2013-04-15 22:01:00,
2013-04-15 18:02:00,90.1,43.7,29.97,West,270,4.9,5.8,20,0.00,,---,0.00,VWS V14.01,2013-04-15 22:02:00,
2013-04-15 18:03:00,90.1,43.7,29.97,WNW,292,1.1,4.3,20,0.00,,---,0.00,VWS V14.01,2013-04-15 22:03:00,
2013-04-15 18:04:00,90.5,44.0,29.97,WNW,292,2.7,2.7,20,0.00,,---,0.00,VWS V14.01,2013-04-15 22:04:00,
2013-04-15 18:05:00,90.5,44.0,29.97,West,270,3.1,4.0,20,0.00,,---,0.00,VWS V14.01,2013-04-15 22:05:00,
2013-04-15 18:06:00,90.1,43.7,29.97,WNW,292,5.8,5.8,20,0.00,,---,0.00,VWS V14.01,2013-04-15 22:06:00,
2013-04-15 18:07:00,90.3,43.8,29.97,WSW,248,2.5,5.8,20,0.00,,---,0.00,VWS V14.01,2013-04-15 22:07:00,
2013-04-15 18:08:00,90.0,43.5,29.97,North,0,1.3,1.3,20,0.00,,---,0.00,VWS V14.01,2013-04-15 22:08:00,
2013-04-15 18:09:00,89.8,43.4,29.97,WSW,248,2.9,7.4,20,0.00,,---,0.00,VWS V14.01,2013-04-15 22:09:00,
2013-04-15 18:10:00,90.0,43.5,29.97,NW,315,4.0,4.0,20,0.00,,---,0.00,VWS V14.01,2013-04-15 22:10:00,
2013-04-15 18:11:00,89.6,43.3,29.97,North,0,1.3,4.3,20,0.00,,---,0.00,VWS V14.01,2013-04-15 22:11:00,
2013-04-15 18:12:00,90.0,43.5,29.97,North,0,1.3,1.3,20,0.00,,---,0.00,VWS V14.01,2013-04-15 22:12:00,
2013-04-15 18:13:00,90.5,44.0,29.97,West,270,3.8,4.3,20,0.00,,---,0.00,VWS V14.01,2013-04-15 22:13:00,
2013-04-15 18:14:00,90.5,44.0,29.97,WNW,292,2.7,3.1,20,0.00,,---,0.00,VWS V14.01,2013-04-15 22:14:00,
2013-04-15 18:15:00,90.7,44.1,29.97,WNW,292,1.3,2.7,20,0.00,,---,0.00,VWS V14.01,2013-04-15 22:15:00,
2013-04-15 18:16:00,90.5,44.0,29.97,NW,315,4.3,6.3,20,0.00,,---,0.00,VWS V14.01,2013-04-15 22:16:00,
2013-04-15 18:17:00,89.2,43.0,29.97,West,270,2.0,4.3,20,0.00,,---,0.00,VWS V14.01,2013-04-15 22:17:00,
2013-04-15 18:18:00,90.0,43.5,29.97,North,0,3.8,3.8,20,0.00,,---,0.00,VWS V14.01,2013-04-15 22:18:00,
2013-04-15 18:19:00,90.0,43.5,29.97,WNW,292,3.1,4.9,20,0.00,,---,0.00,VWS V14.01,2013-04-15 22:19:00,
2013-04-15 18:20:00,89.2,43.0,29.97,WNW,292,4.5,5.4,20,0.00,,---,0.00,VWS V14.01,2013-04-15 22:20:00,
2013-04-15 18:21:00,89.2,43.0,29.97,WNW,292,3.6,4.7,20,0.00,,---,0.00,VWS V14.01,2013-04-15 22:21:00,
2013-04-15 18:22:00,89.4,44.4,29.97,WSW,248,0.0,2.0,21,0.00,,---,0.00,VWS V14.01,2013-04-15 22:22:00,
2013-04-15 18:23:00,88.9,43.9,29.97,NW,315,3.1,6.3,21,0.00,,---,0.00,VWS V14.01,2013-04-15 22:23:00,
2013-04-15 18:24:00,89.1,44.1,29.97,NW,315,2.7,3.1,21,0.00,,---,0.00,VWS V14.01,2013-04-15 22:24:00,
2013-04-15 18:25:00,89.2,44.2,29.97,WNW,292,3.4,3.4,21,0.00,,---,0.00,VWS V14.01,2013-04-15 22:25:00,
2013-04-15 18:26:00,89.2,44.2,29.97,West,270,2.0,3.6,21,0.00,,---,0.00,VWS V14.01,2013-04-15 22:26:00,
2013-04-15 18:27:00,88.0,43.2,29.97,NNW,338,3.6,4.9,21,0.00,,---,0.00,VWS V14.01,2013-04-15 22:27:00,
2013-04-15 18:28:00,89.1,44.1,29.97,WNW,292,3.4,7.2,21,0.00,,---,0.00,VWS V14.01,2013-04-15 22:28:00,
2013-04-15 18:29:00,88.7,43.8,29.97,NNW,338,6.0,6.7,21,0.00,,---,0.00,VWS V14.01,2013-04-15 22:29:00,
2013-04-15 18:30:00,88.2,43.3,29.97,WSW,248,4.0,6.0,21,0.00,,---,0.00,VWS V14.01,2013-04-15 22:30:00,
2013-04-15 18:31:00,88.0,43.2,29.97,WNW,292,4.9,5.4,21,0.00,,---,0.00,VWS V14.01,2013-04-15 22:31:00,
2013-04-15 18:32:00,88.2,43.3,29.97,NNW,338,3.8,3.8,21,0.00,,---,0.00,VWS V14.01,2013-04-15 22:32:00,
2013-04-15 18:33:00,88.0,43.2,29.97,WNW,292,4.0,4.0,21,0.00,,---,0.00,VWS V14.01,2013-04-15 22:33:00,
2013-04-15 18:34:00,88.2,43.3,29.97,WNW,292,1.3,4.0,21,0.00,,---,0.00,VWS V14.01,2013-04-15 22:34:00,
2013-04-15 18:35:00,88.0,43.2,29.97,NW,315,2.9,6.0,21,0.00,,---,0.00,VWS V14.01,2013-04-15 22:35:00,
2013-04-15 18:36:00,88.2,43.3,29.97,SSW,202,1.3,5.8,21,0.00,,---,0.00,VWS V14.01,2013-04-15 22:36:00,
2013-04-15 18:37:00,88.2,44.6,29.97,NNW,338,3.6,3.6,22,0.00,,---,0.00,VWS V14.01,2013-04-15 22:37:00,
2013-04-15 18:38:00,88.2,44.6,29.97,NNW,338,2.9,4.3,22,0.00,,---,0.00,VWS V14.01,2013-04-15 22:38:00,
2013-04-15 18:39:00,88.0,44.4,29.97,NW,315,2.0,4.0,22,0.00,,---,0.00,VWS V14.01,2013-04-15 22:39:00,
2013-04-15 18:40:00,88.2,44.6,29.97,West,270,3.4,3.4,22,0.00,,---,0.00,VWS V14.01,2013-04-15 22:40:00,
2013-04-15 18:41:00,88.2,44.6,29.97,NNE,22,2.7,3.4,22,0.00,,---,0.00,VWS V14.01,2013-04-15 22:41:00,
2013-04-15 18:42:00,88.2,44.6,29.94,West,270,2.5,2.7,22,0.00,,---,0.00,VWS V14.01,2013-04-15 22:42:00,
2013-04-15 18:43:00,88.2,44.6,29.94,NNW,338,0.0,4.3,22,0.00,,---,0.00,VWS V14.01,2013-04-15 22:43:00,
2013-04-15 18:44:00,88.2,44.6,29.94,NNW,338,2.2,3.6,22,0.00,,---,0.00,VWS V14.01,2013-04-15 22:44:00,
2013-04-15 18:45:00,88.0,44.4,29.94,West,270,3.4,4.0,22,0.00,,---,0.00,VWS V14.01,2013-04-15 22:45:00,
2013-04-15 18:46:00,88.2,44.6,29.94,NW,315,2.7,3.4,22,0.00,,---,0.00,VWS V14.01,2013-04-15 22:46:00,
2013-04-15 18:47:00,88.0,44.4,29.94,West,270,2.9,4.0,22,0.00,,---,0.00,VWS V14.01,2013-04-15 22:47:00,
2013-04-15 18:48:00,87.8,44.3,29.94,NW,315,2.7,3.4,22,0.00,,---,0.00,VWS V14.01,2013-04-15 22:48:00,
2013-04-15 18:49:00,88.0,44.4,29.94,NW,315,3.6,4.0,22,0.00,,---,0.00,VWS V14.01,2013-04-15 22:49:00,
2013-04-15 18:50:00,88.0,44.4,29.94,NW,315,1.6,3.6,22,0.00,,---,0.00,VWS V14.01,2013-04-15 22:50:00,
2013-04-15 18:51:00,87.8,44.3,29.94,WNW,292,1.6,2.9,22,0.00,,---,0.00,VWS V14.01,2013-04-15 22:51:00,
2013-04-15 18:52:00,87.8,45.4,29.94,NW,315,1.3,3.4,23,0.00,,---,0.00,VWS V14.01,2013-04-15 22:52:00,
2013-04-15 18:53:00,86.9,44.7,29.94,WNW,292,2.7,2.9,23,0.00,,---,0.00,VWS V14.01,2013-04-15 22:53:00,
2013-04-15 18:54:00,87.6,45.3,29.94,NNW,338,4.0,4.0,23,0.00,,---,0.00,VWS V14.01,2013-04-15 22:54:00,
2013-04-15 18:55:00,87.3,45.0,29.94,WNW,292,2.7,5.4,23,0.00,,---,0.00,VWS V14.01,2013-04-15 22:55:00,
2013-04-15 18:56:00,87.1,44.8,29.94,NNW,338,1.1,3.1,23,0.00,,---,0.00,VWS V14.01,2013-04-15 22:56:00,
2013-04-15 18:57:00,86.9,44.7,29.97,WNW,292,2.9,2.9,23,0.00,,---,0.00,VWS V14.01,2013-04-15 22:57:00,
2013-04-15 18:58:00,85.5,45.7,29.97,WNW,292,3.1,3.4,25,0.00,,---,0.00,VWS V14.01,2013-04-15 22:58:00,
2013-04-15 18:59:00,86.2,45.2,29.97,North,0,3.8,6.3,24,0.00,,---,0.00,VWS V14.01,2013-04-15 22:59:00,
2013-04-15 19:00:00,85.8,44.9,29.97,WNW,292,2.5,6.3,24,0.00,,---,0.00,VWS V14.01,2013-04-15 23:00:00,
2013-04-15 19:01:00,85.5,45.7,29.97,NW,315,2.7,4.9,25,0.00,,---,0.00,VWS V14.01,2013-04-15 23:01:00,
2013-04-15 19:02:00,85.5,45.7,29.97,NW,315,5.4,5.4,25,0.00,,---,0.00,VWS V14.01,2013-04-15 23:02:00,
2013-04-15 19:03:00,84.2,45.6,29.97,NW,315,3.1,3.1,26,0.00,,---,0.00,VWS V14.01,2013-04-15 23:03:00,
2013-04-15 19:04:00,84.9,45.2,29.97,NNW,338,1.3,4.3,25,0.00,,---,0.00,VWS V14.01,2013-04-15 23:04:00,
2013-04-15 19:05:00,84.6,45.9,29.97,WNW,292,4.0,5.6,26,0.00,,---,0.00,VWS V14.01,2013-04-15 23:05:00,
2013-04-15 19:06:00,84.2,45.6,29.97,WNW,292,2.2,4.9,26,0.00,,---,0.00,VWS V14.01,2013-04-15 23:06:00,
2013-04-15 19:07:00,84.2,46.6,29.97,WNW,292,1.6,3.1,27,0.00,,---,0.00,VWS V14.01,2013-04-15 23:07:00,
2013-04-15 19:08:00,84.2,47.6,29.97,SW,225,1.6,3.4,28,0.00,,---,0.00,VWS V14.01,2013-04-15 23:08:00,
2013-04-15 19:09:00,84.4,46.8,29.97,WNW,292,2.0,2.5,27,0.00,,---,0.00,VWS V14.01,2013-04-15 23:09:00,
2013-04-15 19:10:00,84.2,46.6,29.97,WNW,292,3.4,3.8,27,0.00,,---,0.00,VWS V14.01,2013-04-15 23:10:00,
2013-04-15 19:11:00,84.4,46.8,29.97,WNW,292,3.1,3.4,27,0.00,,---,0.00,VWS V14.01,2013-04-15 23:11:00,
2013-04-15 19:12:00,84.2,47.6,29.97,SW,225,0.0,3.4,28,0.00,,---,0.00,VWS V14.01,2013-04-15 23:12:00,
2013-04-15 19:13:00,84.4,47.8,29.97,NNW,338,0.0,0.0,28,0.00,,---,0.00,VWS V14.01,2013-04-15 23:13:00,
2013-04-15 19:14:00,84.4,46.8,29.97,SW,225,0.0,0.0,27,0.00,,---,0.00,VWS V14.01,2013-04-15 23:14:00,
2013-04-15 19:15:00,84.6,47.9,29.97,NNE,22,1.1,1.1,28,0.00,,---,0.00,VWS V14.01,2013-04-15 23:15:00,
2013-04-15 19:16:00,84.4,47.8,29.97,NNW,338,0.0,1.1,28,0.00,,---,0.00,VWS V14.01,2013-04-15 23:16:00,
2013-04-15 19:17:00,84.4,47.8,29.97,NNW,338,0.0,0.0,28,0.00,,---,0.00,VWS V14.01,2013-04-15 23:17:00,
2013-04-15 19:18:00,84.4,47.8,29.97,WNW,292,2.0,2.0,28,0.00,,---,0.00,VWS V14.01,2013-04-15 23:18:00,
2013-04-15 19:19:00,84.4,47.8,29.97,NW,315,1.3,1.3,28,0.00,,---,0.00,VWS V14.01,2013-04-15 23:19:00,
2013-04-15 19:20:00,84.4,47.8,29.97,NW,315,2.9,2.9,28,0.00,,---,0.00,VWS V14.01,2013-04-15 23:20:00,
2013-04-15 19:21:00,84.4,47.8,29.97,WNW,292,0.0,2.9,28,0.00,,---,0.00,VWS V14.01,2013-04-15 23:21:00,
2013-04-15 19:22:00,84.4,48.7,29.97,WNW,292,1.1,2.0,29,0.00,,---,0.00,VWS V14.01,2013-04-15 23:22:00,
2013-04-15 19:23:00,83.3,47.8,29.97,NW,315,4.0,4.0,29,0.00,,---,0.00,VWS V14.01,2013-04-15 23:23:00,
2013-04-15 19:24:00,84.0,48.4,29.97,WNW,292,1.1,1.1,29,0.00,,---,0.00,VWS V14.01,2013-04-15 23:24:00,
2013-04-15 19:25:00,83.8,48.2,29.97,NW,315,1.1,2.7,29,0.00,,---,0.00,VWS V14.01,2013-04-15 23:25:00,
2013-04-15 19:26:00,83.7,48.1,29.97,WNW,292,3.4,3.4,29,0.00,,---,0.00,VWS V14.01,2013-04-15 23:26:00,
2013-04-15 19:27:00,83.3,47.8,29.94,NNW,338,2.7,4.0,29,0.00,,---,0.00,VWS V14.01,2013-04-15 23:27:00,
2013-04-15 19:28:00,82.0,47.6,29.94,NNW,338,4.0,4.0,30,0.00,,---,0.00,VWS V14.01,2013-04-15 23:28:00,
2013-04-15 19:29:00,82.6,47.1,29.94,WNW,292,2.9,5.4,29,0.00,,---,0.00,VWS V14.01,2013-04-15 23:29:00,
2013-04-15 19:30:00,82.2,47.7,29.94,NNW,338,2.9,4.0,30,0.00,,---,0.00,VWS V14.01,2013-04-15 23:30:00,
2013-04-15 19:31:00,82.0,47.6,29.94,NW,315,3.1,3.1,30,0.00,,---,0.00,VWS V14.01,2013-04-15 23:31:00,
2013-04-15 19:32:00,81.9,47.4,29.94,WNW,292,5.6,6.3,30,0.00,,---,0.00,VWS V14.01,2013-04-15 23:32:00,
2013-04-15 19:33:00,81.0,46.6,29.94,WNW,292,2.9,3.1,30,0.00,,---,0.00,VWS V14.01,2013-04-15 23:33:00,
2013-04-15 19:34:00,81.5,47.1,29.94,NNW,338,1.1,2.7,30,0.00,,---,0.00,VWS V14.01,2013-04-15 23:34:00,
2013-04-15 19:35:00,81.3,47.0,29.94,NW,315,4.9,4.9,30,0.00,,---,0.00,VWS V14.01,2013-04-15 23:35:00,
2013-04-15 19:36:00,81.1,46.8,29.94,NNW,338,3.1,4.9,30,0.00,,---,0.00,VWS V14.01,2013-04-15 23:36:00,
2013-04-15 19:37:00,81.0,46.6,29.94,NW,315,5.4,5.4,30,0.00,,---,0.00,VWS V14.01,2013-04-15 23:37:00,
2013-04-15 19:38:00,80.2,46.9,29.94,WNW,292,2.0,4.0,31,0.00,,---,0.00,VWS V14.01,2013-04-15 23:38:00,
2013-04-15 19:39:00,80.8,46.5,29.94,WNW,292,5.4,5.4,30,0.00,,---,0.00,VWS V14.01,2013-04-15 23:39:00,
2013-04-15 19:40:00,80.6,46.3,29.94,WNW,292,2.7,5.4,30,0.00,,---,0.00,VWS V14.01,2013-04-15 23:40:00,
2013-04-15 19:41:00,80.4,47.0,29.94,WSW,248,3.4,4.3,31,0.00,,---,0.00,VWS V14.01,2013-04-15 23:41:00,
2013-04-15 19:42:00,80.2,46.9,29.97,WNW,292,5.4,5.4,31,0.00,,---,0.00,VWS V14.01,2013-04-15 23:42:00,
2013-04-15 19:43:00,80.1,46.7,29.97,WNW,292,3.1,3.1,31,0.00,,---,0.00,VWS V14.01,2013-04-15 23:43:00,
2013-04-15 19:44:00,80.1,46.7,29.97,WNW,292,0.0,2.5,31,0.00,,---,0.00,VWS V14.01,2013-04-15 23:44:00,
2013-04-15 19:45:00,80.1,46.7,29.97,NNW,338,1.1,3.4,31,0.00,,---,0.00,VWS V14.01,2013-04-15 23:45:00,
2013-04-15 19:46:00,80.1,46.7,29.97,WNW,292,1.3,2.2,31,0.00,,---,0.00,VWS V14.01,2013-04-15 23:46:00,
2013-04-15 19:47:00,79.9,47.4,29.97,WNW,292,2.5,3.6,32,0.00,,---,0.00,VWS V14.01,2013-04-15 23:47:00,
2013-04-15 19:48:00,79.5,47.9,29.97,NNW,338,2.7,3.6,33,0.00,,---,0.00,VWS V14.01,2013-04-15 23:48:00,
2013-04-15 19:49:00,79.7,47.3,29.97,WNW,292,1.6,3.4,32,0.00,,---,0.00,VWS V14.01,2013-04-15 23:49:00,
2013-04-15 19:50:00,79.7,47.3,29.97,NNW,338,2.9,2.9,32,0.00,,---,0.00,VWS V14.01,2013-04-15 23:50:00,
2013-04-15 19:51:00,79.5,47.9,29.97,West,270,2.7,4.0,33,0.00,,---,0.00,VWS V14.01,2013-04-15 23:51:00,
2013-04-15 19:52:00,79.3,47.8,29.97,NNW,338,3.6,3.6,33,0.00,,---,0.00,VWS V14.01,2013-04-15 23:52:00,
2013-04-15 19:53:00,78.8,48.1,29.97,WNW,292,2.5,5.6,34,0.00,,---,0.00,VWS V14.01,2013-04-15 23:53:00,
2013-04-15 19:54:00,79.0,47.5,29.97,WNW,292,3.4,4.0,33,0.00,,---,0.00,VWS V14.01,2013-04-15 23:54:00,
2013-04-15 19:55:00,79.0,47.5,29.97,WNW,292,0.0,5.4,33,0.00,,---,0.00,VWS V14.01,2013-04-15 23:55:00,
2013-04-15 19:56:00,79.0,47.5,29.97,NW,315,5.6,5.6,33,0.00,,---,0.00,VWS V14.01,2013-04-15 23:56:00,
2013-04-15 19:57:00,78.8,48.1,29.97,West,270,2.9,5.6,34,0.00,,---,0.00,VWS V14.01,2013-04-15 23:57:00,
2013-04-15 19:58:00,78.3,48.4,30.00,NW,315,2.5,5.8,35,0.00,,---,0.00,VWS V14.01,2013-04-15 23:58:00,
2013-04-15 19:59:00,78.6,47.9,30.00,WNW,292,5.8,5.8,34,0.00,,---,0.00,VWS V14.01,2013-04-15 23:59:00,
2013-04-15 20:00:00,78.4,48.5,30.00,West,270,2.0,5.8,35,0.00,,---,0.00,VWS V14.01,2013-04-16 00:00:00,
2013-04-15 20:01:00,78.4,48.5,30.00,WNW,292,4.0,4.0,35,0.00,,---,0.00,VWS V14.01,2013-04-16 00:01:00,
2013-04-15 20:02:00,78.3,48.4,30.00,WNW,292,2.5,5.8,35,0.00,,---,0.00,VWS V14.01,2013-04-16 00:02:00,
2013-04-15 20:03:00,78.1,48.2,30.00,NNE,22,1.3,2.5,35,0.00,,---,0.00,VWS V14.01,2013-04-16 00:03:00,
2013-04-15 20:04:00,78.1,48.2,30.00,WNW,292,1.3,3.6,35,0.00,,---,0.00,VWS V14.01,2013-04-16 00:04:00,
2013-04-15 20:05:00,78.1,48.2,30.00,WNW,292,0.0,3.6,35,0.00,,---,0.00,VWS V14.01,2013-04-16 00:05:00,
2013-04-15 20:06:00,78.1,48.2,30.00,WNW,292,0.9,0.9,35,0.00,,---,0.00,VWS V14.01,2013-04-16 00:06:00,
2013-04-15 20:07:00,78.1,48.2,30.00,West,270,2.0,2.5,35,0.00,,---,0.00,VWS V14.01,2013-04-16 00:07:00,
2013-04-15 20:08:00,77.7,47.1,30.00,WNW,292,0.0,2.2,34,0.00,,---,0.00,VWS V14.01,2013-04-16 00:08:00,
2013-04-15 20:09:00,78.1,48.2,30.00,NNW,338,4.0,4.0,35,0.00,,---,0.00,VWS V14.01,2013-04-16 00:09:00,
2013-04-15 20:10:00,78.1,48.2,30.00,West,270,1.6,4.0,35,0.00,,---,0.00,VWS V14.01,2013-04-16 00:10:00,
2013-04-15 20:11:00,78.1,48.2,30.00,WNW,292,0.9,1.6,35,0.00,,---,0.00,VWS V14.01,2013-04-16 00:11:00,
2013-04-15 20:12:00,77.7,47.1,30.00,NNE,22,0.0,2.2,34,0.00,,---,0.00,VWS V14.01,2013-04-16 00:12:00,
2013-04-15 20:13:00,77.7,47.9,30.00,NNE,22,0.0,0.0,35,0.00,,---,0.00,VWS V14.01,2013-04-16 00:13:00,
2013-04-15 20:14:00,77.7,47.9,30.00,WNW,292,0.0,1.3,35,0.00,,---,0.00,VWS V14.01,2013-04-16 00:14:00,
2013-04-15 20:15:00,77.7,47.9,30.00,WNW,292,0.0,1.3,35,0.00,,---,0.00,VWS V14.01,2013-04-16 00:15:00,
2013-04-15 20:16:00,77.7,47.9,30.00,WNW,292,0.0,1.6,35,0.00,,---,0.00,VWS V14.01,2013-04-16 00:16:00,
2013-04-15 20:17:00,77.7,47.9,30.00,NNE,22,0.0,0.0,35,0.00,,---,0.00,VWS V14.01,2013-04-16 00:17:00,
2013-04-15 20:18:00,77.5,47.8,30.00,NNW,338,0.0,0.0,35,0.00,,---,0.00,VWS V14.01,2013-04-16 00:18:00,
2013-04-15 20:19:00,77.7,47.9,30.00,WNW,292,1.6,2.0,35,0.00,,---,0.00,VWS V14.01,2013-04-16 00:19:00,
2013-04-15 20:20:00,77.7,47.9,30.00,WNW,292,2.0,3.1,35,0.00,,---,0.00,VWS V14.01,2013-04-16 00:20:00,
2013-04-15 20:21:00,77.7,47.9,30.00,NNW,338,0.0,2.0,35,0.00,,---,0.00,VWS V14.01,2013-04-16 00:21:00,
2013-04-15 20:22:00,77.5,47.8,30.00,WNW,292,2.5,2.5,35,0.00,,---,0.00,VWS V14.01,2013-04-16 00:22:00,
2013-04-15 20:23:00,77.4,48.3,30.00,NNW,338,4.0,4.0,36,0.00,,---,0.00,VWS V14.01,2013-04-16 00:23:00,
2013-04-15 20:24:00,77.5,47.8,30.00,WNW,292,0.9,2.5,35,0.00,,---,0.00,VWS V14.01,2013-04-16 00:24:00,
2013-04-15 20:25:00,77.5,47.8,30.00,WNW,292,0.0,0.9,35,0.00,,---,0.00,VWS V14.01,2013-04-16 00:25:00,
2013-04-15 20:26:00,77.4,47.6,30.00,NW,315,2.9,4.7,35,0.00,,---,0.00,VWS V14.01,2013-04-16 00:26:00,
2013-04-15 20:27:00,77.4,48.3,30.00,WNW,292,2.7,4.0,36,0.00,,---,0.00,VWS V14.01,2013-04-16 00:27:00,
2013-04-15 20:28:00,77.2,48.2,30.00,NNW,338,0.0,0.0,36,0.00,,---,0.00,VWS V14.01,2013-04-16 00:28:00,
2013-04-15 20:29:00,77.2,48.2,30.00,NW,315,3.6,3.6,36,0.00,,---,0.00,VWS V14.01,2013-04-16 00:29:00,
2013-04-15 20:30:00,77.2,48.2,30.00,WNW,292,0.0,3.6,36,0.00,,---,0.00,VWS V14.01,2013-04-16 00:30:00,
2013-04-15 20:31:00,77.2,48.2,30.00,WNW,292,0.0,0.0,36,0.00,,---,0.00,VWS V14.01,2013-04-16 00:31:00,
2013-04-15 20:32:00,77.2,48.2,30.00,NNW,338,0.0,0.0,36,0.00,,---,0.00,VWS V14.01,2013-04-16 00:32:00,
2013-04-15 20:33:00,77.0,48.0,30.00,NNE,22,0.0,2.5,36,0.00,,---,0.00,VWS V14.01,2013-04-16 00:33:00,
2013-04-15 20:34:00,77.0,48.0,30.00,North,0,0.0,2.2,36,0.00,,---,0.00,VWS V14.01,2013-04-16 00:34:00,
2013-04-15 20:35:00,77.0,48.0,30.00,NNW,338,0.0,1.3,36,0.00,,---,0.00,VWS V14.01,2013-04-16 00:35:00,
2013-04-15 20:36:00,77.0,48.0,30.00,NNE,22,2.5,2.5,36,0.00,,---,0.00,VWS V14.01,2013-04-16 00:36:00,
2013-04-15 20:37:00,76.8,47.9,30.00,NNW,338,1.1,2.5,36,0.00,,---,0.00,VWS V14.01,2013-04-16 00:37:00,
2013-04-15 20:38:00,76.6,47.7,30.00,NW,315,0.0,0.0,36,0.00,,---,0.00,VWS V14.01,2013-04-16 00:38:00,
2013-04-15 20:39:00,76.8,47.9,30.00,NNW,338,0.0,1.6,36,0.00,,---,0.00,VWS V14.01,2013-04-16 00:39:00,
2013-04-15 20:40:00,76.8,47.9,30.00,NW,315,0.9,1.1,36,0.00,,---,0.00,VWS V14.01,2013-04-16 00:40:00,
2013-04-15 20:41:00,76.6,47.7,30.00,NW,315,0.0,0.9,36,0.00,,---,0.00,VWS V14.01,2013-04-16 00:41:00,
2013-04-15 20:42:00,76.6,47.7,30.03,NNW,338,1.3,1.3,36,0.00,,---,0.00,VWS V14.01,2013-04-16 00:42:00,
2013-04-15 20:43:00,76.5,48.3,30.03,WNW,292,0.9,2.7,37,0.00,,---,0.00,VWS V14.01,2013-04-16 00:43:00,
2013-04-15 20:44:00,76.5,47.5,30.03,WNW,292,0.0,1.3,36,0.00,,---,0.00,VWS V14.01,2013-04-16 00:44:00,
2013-04-15 20:45:00,76.5,48.3,30.03,WSW,248,1.3,3.1,37,0.00,,---,0.00,VWS V14.01,2013-04-16 00:45:00,
2013-04-15 20:46:00,76.5,48.3,30.03,WNW,292,2.7,2.7,37,0.00,,---,0.00,VWS V14.01,2013-04-16 00:46:00,
2013-04-15 20:47:00,76.5,48.3,30.03,WNW,292,0.9,2.7,37,0.00,,---,0.00,VWS V14.01,2013-04-16 00:47:00,
2013-04-15 20:48:00,76.3,48.1,30.03,West,270,1.3,2.0,37,0.00,,---,0.00,VWS V14.01,2013-04-16 00:48:00,
2013-04-15 20:49:00,76.3,48.1,30.03,WNW,292,0.0,1.3,37,0.00,,---,0.00,VWS V14.01,2013-04-16 00:49:00,
2013-04-15 20:50:00,76.3,48.1,30.03,WNW,292,0.0,0.0,37,0.00,,---,0.00,VWS V14.01,2013-04-16 00:50:00,
2013-04-15 20:51:00,76.3,48.8,30.03,WNW,292,1.6,1.6,38,0.00,,---,0.00,VWS V14.01,2013-04-16 00:51:00,
2013-04-15 20:52:00,76.3,48.8,30.03,West,270,0.0,2.0,38,0.00,,---,0.00,VWS V14.01,2013-04-16 00:52:00,
2013-04-15 20:53:00,76.1,48.7,30.03,NW,315,0.9,1.6,38,0.00,,---,0.00,VWS V14.01,2013-04-16 00:53:00,
2013-04-15 20:54:00,76.3,48.8,30.03,West,270,0.0,0.0,38,0.00,,---,0.00,VWS V14.01,2013-04-16 00:54:00,
2013-04-15 20:55:00,76.3,48.8,30.03,West,270,0.0,0.0,38,0.00,,---,0.00,VWS V14.01,2013-04-16 00:55:00,
2013-04-15 20:56:00,76.3,48.8,30.03,WNW,292,1.6,1.6,38,0.00,,---,0.00,VWS V14.01,2013-04-16 00:56:00,
2013-04-15 20:57:00,76.1,48.7,30.00,WNW,292,2.2,2.7,38,0.00,,---,0.00,VWS V14.01,2013-04-16 00:57:00,
2013-04-15 20:58:00,76.1,49.4,30.00,NNW,338,0.0,0.0,39,0.00,,---,0.00,VWS V14.01,2013-04-16 00:58:00,
2013-04-15 20:59:00,76.1,48.7,30.00,WNW,292,0.0,0.0,38,0.00,,---,0.00,VWS V14.01,2013-04-16 00:59:00,
2013-04-15 21:00:00,76.1,48.7,30.00,West,270,0.0,1.3,38,0.00,,---,0.00,VWS V14.01,2013-04-16 01:00:00,
2013-04-15 21:01:00,76.1,48.7,30.00,West,270,0.0,2.5,38,0.00,,---,0.00,VWS V14.01,2013-04-16 01:01:00,
2013-04-15 21:02:00,76.1,49.4,30.00,NNW,338,0.0,0.0,39,0.00,,---,0.00,VWS V14.01,2013-04-16 01:02:00,
2013-04-15 21:03:00,75.9,48.5,30.00,NE,45,0.0,0.0,38,0.00,,---,0.00,VWS V14.01,2013-04-16 01:03:00,
2013-04-15 21:04:00,76.1,48.7,30.00,NW,315,1.1,1.1,38,0.00,,---,0.00,VWS V14.01,2013-04-16 01:04:00,
2013-04-15 21:05:00,75.9,48.5,30.00,NE,45,0.0,1.1,38,0.00,,---,0.00,VWS V14.01,2013-04-16 01:05:00,
2013-04-15 21:06:00,75.9,48.5,30.00,NE,45,0.0,0.0,38,0.00,,---,0.00,VWS V14.01,2013-04-16 01:06:00,
2013-04-15 21:07:00,75.9,48.5,30.00,NE,45,0.0,0.0,38,0.00,,---,0.00,VWS V14.01,2013-04-16 01:07:00,
2013-04-15 21:08:00,75.9,49.2,30.00,NNE,22,0.0,0.0,39,0.00,,---,0.00,VWS V14.01,2013-04-16 01:08:00,
2013-04-15 21:09:00,75.9,48.5,30.00,NNE,22,0.0,0.0,38,0.00,,---,0.00,VWS V14.01,2013-04-16 01:09:00,
2013-04-15 21:10:00,75.9,48.5,30.00,NNE,22,0.0,1.6,38,0.00,,---,0.00,VWS V14.01,2013-04-16 01:10:00,
2013-04-15 21:11:00,75.9,48.5,30.00,NNE,22,0.0,0.0,38,0.00,,---,0.00,VWS V14.01,2013-04-16 01:11:00,
2013-04-15 21:12:00,75.9,49.2,30.03,NNE,22,0.0,0.0,39,0.00,,---,0.00,VWS V14.01,2013-04-16 01:12:00,
2013-04-15 21:13:00,75.7,49.0,30.03,NW,315,0.0,0.0,39,0.00,,---,0.00,VWS V14.01,2013-04-16 01:13:00,
2013-04-15 21:14:00,75.7,49.0,30.03,NNE,22,0.0,0.0,39,0.00,,---,0.00,VWS V14.01,2013-04-16 01:14:00,
2013-04-15 21:15:00,75.7,49.0,30.03,NNE,22,0.0,0.0,39,0.00,,---,0.00,VWS V14.01,2013-04-16 01:15:00,
2013-04-15 21:16:00,75.7,49.0,30.03,North,0,0.0,0.0,39,0.00,,---,0.00,VWS V14.01,2013-04-16 01:16:00,
2013-04-15 21:17:00,75.7,49.0,30.03,NW,315,0.0,0.0,39,0.00,,---,0.00,VWS V14.01,2013-04-16 01:17:00,
2013-04-15 21:18:00,75.4,48.7,30.03,NW,315,0.0,0.0,39,0.00,,---,0.00,VWS V14.01,2013-04-16 01:18:00,
2013-04-15 21:19:00,75.6,48.2,30.03,NW,315,0.0,0.0,38,0.00,,---,0.00,VWS V14.01,2013-04-16 01:19:00,
2013-04-15 21:20:00,75.6,48.9,30.03,NW,315,0.0,0.0,39,0.00,,---,0.00,VWS V14.01,2013-04-16 01:20:00,
2013-04-15 21:21:00,75.4,48.7,30.03,NW,315,0.0,0.0,39,0.00,,---,0.00,VWS V14.01,2013-04-16 01:21:00,
2013-04-15 21:22:00,75.4,48.7,30.03,NW,315,0.0,0.0,39,0.00,,---,0.00,VWS V14.01,2013-04-16 01:22:00,
2013-04-15 21:23:00,75.2,49.2,30.03,NNW,338,0.0,0.0,40,0.00,,---,0.00,VWS V14.01,2013-04-16 01:23:00,
2013-04-15 21:24:00,75.4,48.7,30.03,NW,315,0.0,0.0,39,0.00,,---,0.00,VWS V14.01,2013-04-16 01:24:00,
2013-04-15 21:25:00,75.2,48.6,30.03,NW,315,0.0,0.0,39,0.00,,---,0.00,VWS V14.01,2013-04-16 01:25:00,
2013-04-15 21:26:00,75.2,48.6,30.03,NW,315,0.0,0.0,39,0.00,,---,0.00,VWS V14.01,2013-04-16 01:26:00,
2013-04-15 21:27:00,75.2,49.2,30.03,NNW,338,0.0,0.0,40,0.00,,---,0.00,VWS V14.01,2013-04-16 01:27:00,
2013-04-15 21:28:00,75.0,49.1,30.03,NW,315,0.0,0.0,40,0.00,,---,0.00,VWS V14.01,2013-04-16 01:28:00,
2013-04-15 21:29:00,75.2,49.2,30.03,NNW,338,0.0,0.0,40,0.00,,---,0.00,VWS V14.01,2013-04-16 01:29:00,
2013-04-15 21:30:00,75.0,49.1,30.03,NNW,338,0.0,0.0,40,0.00,,---,0.00,VWS V14.01,2013-04-16 01:30:00,
2013-04-15 21:31:00,75.0,49.1,30.03,NNW,338,0.0,0.0,40,0.00,,---,0.00,VWS V14.01,2013-04-16 01:31:00,
2013-04-15 21:32:00,75.0,49.1,30.03,NW,315,0.0,0.0,40,0.00,,---,0.00,VWS V14.01,2013-04-16 01:32:00,
2013-04-15 21:33:00,74.8,48.9,30.03,North,0,0.0,0.0,40,0.00,,---,0.00,VWS V14.01,2013-04-16 01:33:00,
2013-04-15 21:34:00,74.8,49.6,30.03,NW,315,0.0,0.0,41,0.00,,---,0.00,VWS V14.01,2013-04-16 01:34:00,
2013-04-15 21:35:00,74.8,49.6,30.03,NW,315,0.0,0.0,41,0.00,,---,0.00,VWS V14.01,2013-04-16 01:35:00,
2013-04-15 21:36:00,74.8,49.6,30.03,North,0,0.0,0.0,41,0.00,,---,0.00,VWS V14.01,2013-04-16 01:36:00,
2013-04-15 21:37:00,74.8,48.9,30.03,North,0,0.0,0.0,40,0.00,,---,0.00,VWS V14.01,2013-04-16 01:37:00,
2013-04-15 21:38:00,74.5,49.3,30.03,North,0,0.0,0.0,41,0.00,,---,0.00,VWS V14.01,2013-04-16 01:38:00,
2013-04-15 21:39:00,74.7,49.4,30.03,North,0,0.0,0.0,41,0.00,,---,0.00,VWS V14.01,2013-04-16 01:39:00,
2013-04-15 21:40:00,74.7,49.4,30.03,North,0,0.0,0.0,41,0.00,,---,0.00,VWS V14.01,2013-04-16 01:40:00,
2013-04-15 21:41:00,74.7,49.4,30.03,North,0,0.0,0.0,41,0.00,,---,0.00,VWS V14.01,2013-04-16 01:41:00,
2013-04-15 21:42:00,74.5,49.3,30.03,North,0,0.0,0.0,41,0.00,,---,0.00,VWS V14.01,2013-04-16 01:42:00,
2013-04-15 21:43:00,74.1,48.9,30.03,North,0,0.0,0.0,41,0.00,,---,0.00,VWS V14.01,2013-04-16 01:43:00,
2013-04-15 21:44:00,74.5,49.3,30.03,North,0,0.0,0.0,41,0.00,,---,0.00,VWS V14.01,2013-04-16 01:44:00,
2013-04-15 21:45:00,74.3,49.1,30.03,North,0,0.0,0.0,41,0.00,,---,0.00,VWS V14.01,2013-04-16 01:45:00,
2013-04-15 21:46:00,74.3,49.1,30.03,North,0,0.0,0.0,41,0.00,,---,0.00,VWS V14.01,2013-04-16 01:46:00,
2013-04-15 21:47:00,74.1,48.9,30.03,North,0,0.0,0.0,41,0.00,,---,0.00,VWS V14.01,2013-04-16 01:47:00,
2013-04-15 21:48:00,73.9,49.4,30.03,North,0,0.0,0.0,42,0.00,,---,0.00,VWS V14.01,2013-04-16 01:48:00,
2013-04-15 21:49:00,74.1,48.9,30.03,North,0,0.0,0.0,41,0.00,,---,0.00,VWS V14.01,2013-04-16 01:49:00,
2013-04-15 21:50:00,73.9,48.8,30.03,North,0,0.0,0.0,41,0.00,,---,0.00,VWS V14.01,2013-04-16 01:50:00,
2013-04-15 21:51:00,73.9,48.8,30.03,North,0,0.0,0.0,41,0.00,,---,0.00,VWS V14.01,2013-04-16 01:51:00,
2013-04-15 21:52:00,73.9,49.4,30.03,North,0,0.0,0.0,42,0.00,,---,0.00,VWS V14.01,2013-04-16 01:52:00,
2013-04-15 21:53:00,73.6,49.1,30.06,North,0,0.0,0.0,42,0.00,,---,0.00,VWS V14.01,2013-04-16 01:53:00,
2013-04-15 21:54:00,73.8,49.3,30.03,North,0,0.0,0.0,42,0.00,,---,0.00,VWS V14.01,2013-04-16 01:54:00,
2013-04-15 21:55:00,73.8,49.3,30.03,North,0,0.0,0.0,42,0.00,,---,0.00,VWS V14.01,2013-04-16 01:55:00,
2013-04-15 21:56:00,73.8,49.3,30.03,North,0,0.0,0.0,42,0.00,,---,0.00,VWS V14.01,2013-04-16 01:56:00,
2013-04-15 21:57:00,73.6,49.1,30.06,North,0,0.0,0.0,42,0.00,,---,0.00,VWS V14.01,2013-04-16 01:57:00,
2013-04-15 21:58:00,73.4,48.9,30.06,North,0,0.0,0.0,42,0.00,,---,0.00,VWS V14.01,2013-04-16 01:58:00,
2013-04-15 21:59:00,73.6,49.1,30.06,North,0,0.0,0.0,42,0.00,,---,0.00,VWS V14.01,2013-04-16 01:59:00,
2013-04-15 22:00:00,73.4,49.6,30.06,North,0,0.0,0.0,43,0.00,,---,0.00,VWS V14.01,2013-04-16 02:00:00,
2013-04-15 22:01:00,73.4,48.9,30.06,North,0,0.0,0.0,42,0.00,,---,0.00,VWS V14.01,2013-04-16 02:01:00,
2013-04-15 22:02:00,73.4,48.9,30.06,North,0,0.0,0.0,42,0.00,,---,0.00,VWS V14.01,2013-04-16 02:02:00,
2013-04-15 22:03:00,73.0,49.2,30.06,North,0,0.0,0.0,43,0.00,,---,0.00,VWS V14.01,2013-04-16 02:03:00,
2013-04-15 22:04:00,73.2,49.4,30.06,North,0,0.0,0.0,43,0.00,,---,0.00,VWS V14.01,2013-04-16 02:04:00,
2013-04-15 22:05:00,73.2,49.4,30.06,North,0,0.0,0.0,43,0.00,,---,0.00,VWS V14.01,2013-04-16 02:05:00,
2013-04-15 22:06:00,73.2,49.4,30.06,North,0,0.0,0.0,43,0.00,,---,0.00,VWS V14.01,2013-04-16 02:06:00,
2013-04-15 22:07:00,73.0,49.2,30.06,North,0,0.0,0.0,43,0.00,,---,0.00,VWS V14.01,2013-04-16 02:07:00,
2013-04-15 22:08:00,72.9,49.7,30.06,North,0,0.0,0.0,44,0.00,,---,0.00,VWS V14.01,2013-04-16 02:08:00,
2013-04-15 22:09:00,73.0,49.9,30.06,North,0,0.0,0.0,44,0.00,,---,0.00,VWS V14.01,2013-04-16 02:09:00,
2013-04-15 22:10:00,72.9,49.7,30.06,North,0,0.0,0.0,44,0.00,,---,0.00,VWS V14.01,2013-04-16 02:10:00,
2013-04-15 22:11:00,72.9,49.7,30.06,North,0,0.0,0.0,44,0.00,,---,0.00,VWS V14.01,2013-04-16 02:11:00,
2013-04-15 22:12:00,72.9,49.7,30.06,North,0,0.0,0.0,44,0.00,,---,0.00,VWS V14.01,2013-04-16 02:12:00,
2013-04-15 22:13:00,72.7,49.5,30.06,North,0,0.0,0.0,44,0.00,,---,0.00,VWS V14.01,2013-04-16 02:13:00,
2013-04-15 22:14:00,72.9,49.7,30.06,North,0,0.0,0.0,44,0.00,,---,0.00,VWS V14.01,2013-04-16 02:14:00,
2013-04-15 22:15:00,72.9,49.7,30.06,North,0,0.0,0.0,44,0.00,,---,0.00,VWS V14.01,2013-04-16 02:15:00,
2013-04-15 22:16:00,72.7,49.5,30.06,North,0,0.0,0.0,44,0.00,,---,0.00,VWS V14.01,2013-04-16 02:16:00,
2013-04-15 22:17:00,72.7,49.5,30.06,North,0,0.0,0.0,44,0.00,,---,0.00,VWS V14.01,2013-04-16 02:17:00,
2013-04-15 22:18:00,72.5,50.0,30.06,North,0,0.0,0.0,45,0.00,,---,0.00,VWS V14.01,2013-04-16 02:18:00,
2013-04-15 22:19:00,72.7,49.5,30.06,North,0,0.0,0.0,44,0.00,,---,0.00,VWS V14.01,2013-04-16 02:19:00,
2013-04-15 22:20:00,72.7,49.5,30.06,North,0,0.0,0.0,44,0.00,,---,0.00,VWS V14.01,2013-04-16 02:20:00,
2013-04-15 22:21:00,72.7,50.1,30.06,North,0,0.0,0.0,45,0.00,,---,0.00,VWS V14.01,2013-04-16 02:21:00,
2013-04-15 22:22:00,72.5,50.0,30.06,North,0,0.0,0.0,45,0.00,,---,0.00,VWS V14.01,2013-04-16 02:22:00,
2013-04-15 22:23:00,72.5,50.6,30.06,North,0,0.0,0.0,46,0.00,,---,0.00,VWS V14.01,2013-04-16 02:23:00,
2013-04-15 22:24:00,72.5,50.0,30.06,North,0,0.0,0.0,45,0.00,,---,0.00,VWS V14.01,2013-04-16 02:24:00,
2013-04-15 22:25:00,72.5,50.0,30.06,North,0,0.0,0.0,45,0.00,,---,0.00,VWS V14.01,2013-04-16 02:25:00,
2013-04-15 22:26:00,72.5,50.6,30.06,North,0,0.0,0.0,46,0.00,,---,0.00,VWS V14.01,2013-04-16 02:26:00,
2013-04-15 22:27:00,72.5,50.6,30.06,North,0,0.0,0.0,46,0.00,,---,0.00,VWS V14.01,2013-04-16 02:27:00,
2013-04-15 22:28:00,72.5,50.6,30.06,North,0,0.0,0.0,46,0.00,,---,0.00,VWS V14.01,2013-04-16 02:28:00,
2013-04-15 22:29:00,72.5,50.6,30.06,North,0,0.0,0.0,46,0.00,,---,0.00,VWS V14.01,2013-04-16 02:29:00,
2013-04-15 22:30:00,72.5,50.6,30.06,North,0,0.0,0.0,46,0.00,,---,0.00,VWS V14.01,2013-04-16 02:30:00,
2013-04-15 22:31:00,72.5,50.6,30.06,North,0,0.0,0.0,46,0.00,,---,0.00,VWS V14.01,2013-04-16 02:31:00,
2013-04-15 22:32:00,72.5,50.6,30.06,North,0,0.0,0.0,46,0.00,,---,0.00,VWS V14.01,2013-04-16 02:32:00,
2013-04-15 22:33:00,72.5,51.2,30.06,North,0,0.0,0.0,47,0.00,,---,0.00,VWS V14.01,2013-04-16 02:33:00,
2013-04-15 22:34:00,72.5,50.6,30.06,North,0,0.0,0.0,46,0.00,,---,0.00,VWS V14.01,2013-04-16 02:34:00,
2013-04-15 22:35:00,72.5,50.6,30.06,North,0,0.0,0.0,46,0.00,,---,0.00,VWS V14.01,2013-04-16 02:35:00,
2013-04-15 22:36:00,72.5,51.2,30.06,North,0,0.0,0.0,47,0.00,,---,0.00,VWS V14.01,2013-04-16 02:36:00,
2013-04-15 22:37:00,72.5,51.2,30.06,North,0,0.0,0.0,47,0.00,,---,0.00,VWS V14.01,2013-04-16 02:37:00,
2013-04-15 22:38:00,72.3,51.0,30.06,North,0,0.0,0.0,47,0.00,,---,0.00,VWS V14.01,2013-04-16 02:38:00,
2013-04-15 22:39:00,72.3,51.0,30.06,North,0,0.0,0.0,47,0.00,,---,0.00,VWS V14.01,2013-04-16 02:39:00,
2013-04-15 22:40:00,72.3,51.0,30.06,North,0,0.0,0.0,47,0.00,,---,0.00,VWS V14.01,2013-04-16 02:40:00,
2013-04-15 22:41:00,72.3,50.4,30.06,North,0,0.0,0.0,46,0.00,,---,0.00,VWS V14.01,2013-04-16 02:41:00,
2013-04-15 22:42:00,72.3,51.0,30.06,North,0,0.0,0.0,47,0.00,,---,0.00,VWS V14.01,2013-04-16 02:42:00,
2013-04-15 22:43:00,72.1,50.8,30.06,North,0,0.0,0.0,47,0.00,,---,0.00,VWS V14.01,2013-04-16 02:43:00,
2013-04-15 22:44:00,72.1,50.8,30.06,North,0,0.0,0.0,47,0.00,,---,0.00,VWS V14.01,2013-04-16 02:44:00,
2013-04-15 22:45:00,72.1,50.8,30.06,North,0,0.0,0.0,47,0.00,,---,0.00,VWS V14.01,2013-04-16 02:45:00,
2013-04-15 22:46:00,72.1,50.8,30.06,North,0,0.0,0.0,47,0.00,,---,0.00,VWS V14.01,2013-04-16 02:46:00,
2013-04-15 22:47:00,72.1,50.8,30.06,North,0,0.0,0.0,47,0.00,,---,0.00,VWS V14.01,2013-04-16 02:47:00,
2013-04-15 22:48:00,72.0,51.8,30.06,North,0,0.0,0.0,49,0.00,,---,0.00,VWS V14.01,2013-04-16 02:48:00,
2013-04-15 22:49:00,72.0,51.2,30.06,North,0,0.0,0.0,48,0.00,,---,0.00,VWS V14.01,2013-04-16 02:49:00,
2013-04-15 22:50:00,72.0,51.2,30.06,North,0,0.0,0.0,48,0.00,,---,0.00,VWS V14.01,2013-04-16 02:50:00,
2013-04-15 22:51:00,72.0,51.2,30.06,North,0,0.0,0.0,48,0.00,,---,0.00,VWS V14.01,2013-04-16 02:51:00,
2013-04-15 22:52:00,72.0,51.8,30.06,North,0,0.0,0.0,49,0.00,,---,0.00,VWS V14.01,2013-04-16 02:52:00,
2013-04-15 22:53:00,71.8,51.6,30.06,North,0,0.0,0.0,49,0.00,,---,0.00,VWS V14.01,2013-04-16 02:53:00,
2013-04-15 22:54:00,71.8,51.6,30.06,North,0,0.0,0.0,49,0.00,,---,0.00,VWS V14.01,2013-04-16 02:54:00,
2013-04-15 22:55:00,71.8,51.1,30.06,North,0,0.0,0.0,48,0.00,,---,0.00,VWS V14.01,2013-04-16 02:55:00,
2013-04-15 22:56:00,71.8,51.1,30.06,North,0,0.0,0.0,48,0.00,,---,0.00,VWS V14.01,2013-04-16 02:56:00,
2013-04-15 22:57:00,71.8,51.6,30.06,North,0,0.0,0.0,49,0.00,,---,0.00,VWS V14.01,2013-04-16 02:57:00,
2013-04-15 22:58:00,71.6,51.5,30.06,North,0,0.0,0.0,49,0.00,,---,0.00,VWS V14.01,2013-04-16 02:58:00,
2013-04-15 22:59:00,71.8,51.6,30.06,North,0,0.0,0.0,49,0.00,,---,0.00,VWS V14.01,2013-04-16 02:59:00,
2013-04-15 23:00:00,71.6,51.5,30.06,North,0,0.0,0.0,49,0.00,,---,0.00,VWS V14.01,2013-04-16 03:00:00,
2013-04-15 23:01:00,71.6,51.5,30.06,North,0,0.0,0.0,49,0.00,,---,0.00,VWS V14.01,2013-04-16 03:01:00,
2013-04-15 23:02:00,71.6,51.5,30.06,North,0,0.0,0.0,49,0.00,,---,0.00,VWS V14.01,2013-04-16 03:02:00,
2013-04-15 23:03:00,71.4,51.8,30.06,North,0,0.0,0.0,50,0.00,,---,0.00,VWS V14.01,2013-04-16 03:03:00,
2013-04-15 23:04:00,71.6,52.0,30.06,North,0,0.0,0.0,50,0.00,,---,0.00,VWS V14.01,2013-04-16 03:04:00,
2013-04-15 23:05:00,71.6,52.0,30.06,North,0,0.0,0.0,50,0.00,,---,0.00,VWS V14.01,2013-04-16 03:05:00,
2013-04-15 23:06:00,71.4,51.8,30.06,North,0,0.0,0.0,50,0.00,,---,0.00,VWS V14.01,2013-04-16 03:06:00,
2013-04-15 23:07:00,71.4,51.8,30.06,North,0,0.0,0.0,50,0.00,,---,0.00,VWS V14.01,2013-04-16 03:07:00,
2013-04-15 23:08:00,71.4,52.4,30.06,North,0,0.0,0.0,51,0.00,,---,0.00,VWS V14.01,2013-04-16 03:08:00,
2013-04-15 23:09:00,71.4,52.4,30.06,North,0,0.0,0.0,51,0.00,,---,0.00,VWS V14.01,2013-04-16 03:09:00,
2013-04-15 23:10:00,71.4,52.4,30.06,North,0,0.0,0.0,51,0.00,,---,0.00,VWS V14.01,2013-04-16 03:10:00,
2013-04-15 23:11:00,71.4,52.4,30.06,North,0,0.0,0.0,51,0.00,,---,0.00,VWS V14.01,2013-04-16 03:11:00,
2013-04-15 23:12:00,71.4,52.4,30.06,North,0,0.0,0.0,51,0.00,,---,0.00,VWS V14.01,2013-04-16 03:12:00,
2013-04-15 23:13:00,71.6,53.1,30.06,North,0,0.0,0.0,52,0.00,,---,0.00,VWS V14.01,2013-04-16 03:13:00,
2013-04-15 23:14:00,71.6,52.5,30.06,North,0,0.0,0.0,51,0.00,,---,0.00,VWS V14.01,2013-04-16 03:14:00,
2013-04-15 23:15:00,71.6,52.5,30.06,North,0,0.0,0.0,51,0.00,,---,0.00,VWS V14.01,2013-04-16 03:15:00,
2013-04-15 23:16:00,71.6,53.1,30.06,North,0,0.0,0.0,52,0.00,,---,0.00,VWS V14.01,2013-04-16 03:16:00,
2013-04-15 23:17:00,71.8,53.2,30.06,North,0,0.0,0.0,52,0.00,,---,0.00,VWS V14.01,2013-04-16 03:17:00,
2013-04-15 23:18:00,71.8,53.2,30.06,ENE,68,0.0,1.1,52,0.00,,---,0.00,VWS V14.01,2013-04-16 03:18:00,
2013-04-15 23:19:00,71.8,53.2,30.06,North,0,0.0,0.0,52,0.00,,---,0.00,VWS V14.01,2013-04-16 03:19:00,
2013-04-15 23:20:00,71.8,53.2,30.06,ESE,112,0.0,0.0,52,0.00,,---,0.00,VWS V14.01,2013-04-16 03:20:00,
2013-04-15 23:21:00,71.8,53.2,30.06,ENE,68,1.1,1.1,52,0.00,,---,0.00,VWS V14.01,2013-04-16 03:21:00,
2013-04-15 23:22:00,71.8,53.2,30.06,ENE,68,0.0,1.1,52,0.00,,---,0.00,VWS V14.01,2013-04-16 03:22:00,
2013-04-15 23:23:00,72.0,54.4,30.06,ENE,68,0.0,0.0,54,0.00,,---,0.00,VWS V14.01,2013-04-16 03:23:00,
2013-04-15 23:24:00,71.8,53.8,30.06,ENE,68,0.0,0.0,53,0.00,,---,0.00,VWS V14.01,2013-04-16 03:24:00,
2013-04-15 23:25:00,71.8,53.8,30.06,ENE,68,0.0,0.0,53,0.00,,---,0.00,VWS V14.01,2013-04-16 03:25:00,
2013-04-15 23:26:00,71.8,53.8,30.06,ENE,68,0.0,0.0,53,0.00,,---,0.00,VWS V14.01,2013-04-16 03:26:00,
2013-04-15 23:27:00,72.0,54.4,30.06,ENE,68,0.0,0.0,54,0.00,,---,0.00,VWS V14.01,2013-04-16 03:27:00,
2013-04-15 23:28:00,71.6,54.1,30.06,ENE,68,0.0,0.0,54,0.00,,---,0.00,VWS V14.01,2013-04-16 03:28:00,
2013-04-15 23:29:00,71.8,54.3,30.06,ENE,68,0.0,0.0,54,0.00,,---,0.00,VWS V14.01,2013-04-16 03:29:00,
2013-04-15 23:30:00,71.8,54.3,30.06,ENE,68,0.0,0.0,54,0.00,,---,0.00,VWS V14.01,2013-04-16 03:30:00,
2013-04-15 23:31:00,71.6,54.1,30.06,ENE,68,0.0,0.0,54,0.00,,---,0.00,VWS V14.01,2013-04-16 03:31:00,
2013-04-15 23:32:00,71.6,54.6,30.06,ENE,68,0.0,0.0,55,0.00,,---,0.00,VWS V14.01,2013-04-16 03:32:00,
2013-04-15 23:33:00,71.6,54.6,30.06,ENE,68,0.0,0.0,55,0.00,,---,0.00,VWS V14.01,2013-04-16 03:33:00,
2013-04-15 23:34:00,71.6,54.1,30.06,ENE,68,0.0,0.0,54,0.00,,---,0.00,VWS V14.01,2013-04-16 03:34:00,
2013-04-15 23:35:00,71.6,54.1,30.06,ENE,68,0.0,0.0,54,0.00,,---,0.00,VWS V14.01,2013-04-16 03:35:00,
2013-04-15 23:36:00,71.6,55.1,30.06,ENE,68,0.0,0.0,56,0.00,,---,0.00,VWS V14.01,2013-04-16 03:36:00,
2013-04-15 23:37:00,71.6,54.6,30.06,ENE,68,0.0,0.0,55,0.00,,---,0.00,VWS V14.01,2013-04-16 03:37:00,
2013-04-15 23:38:00,71.4,55.4,30.06,NW,315,0.0,0.0,57,0.00,,---,0.00,VWS V14.01,2013-04-16 03:38:00,
2013-04-15 23:39:00,71.4,54.9,30.06,NW,315,0.0,0.0,56,0.00,,---,0.00,VWS V14.01,2013-04-16 03:39:00,
2013-04-15 23:40:00,71.4,54.9,30.06,NW,315,0.0,0.0,56,0.00,,---,0.00,VWS V14.01,2013-04-16 03:40:00,
2013-04-15 23:41:00,71.4,54.9,30.06,NW,315,0.0,0.0,56,0.00,,---,0.00,VWS V14.01,2013-04-16 03:41:00,
2013-04-15 23:42:00,71.4,55.4,30.06,NW,315,0.0,0.0,57,0.00,,---,0.00,VWS V14.01,2013-04-16 03:42:00,
2013-04-15 23:43:00,71.4,55.4,30.06,NW,315,0.0,0.0,57,0.00,,---,0.00,VWS V14.01,2013-04-16 03:43:00,
2013-04-15 23:44:00,71.4,55.4,30.06,NW,315,0.0,0.0,57,0.00,,---,0.00,VWS V14.01,2013-04-16 03:44:00,
2013-04-15 23:45:00,71.4,55.4,30.06,NW,315,0.0,0.0,57,0.00,,---,0.00,VWS V14.01,2013-04-16 03:45:00,
2013-04-15 23:46:00,71.4,55.4,30.06,NW,315,0.0,0.0,57,0.00,,---,0.00,VWS V14.01,2013-04-16 03:46:00,
2013-04-15 23:47:00,71.4,55.4,30.06,NW,315,0.0,0.0,57,0.00,,---,0.00,VWS V14.01,2013-04-16 03:47:00,
2013-04-15 23:48:00,71.4,55.4,30.06,NW,315,0.0,0.0,57,0.00,,---,0.00,VWS V14.01,2013-04-16 03:48:00,
2013-04-15 23:49:00,71.4,55.9,30.06,NW,315,0.0,0.0,58,0.00,,---,0.00,VWS V14.01,2013-04-16 03:49:00,
2013-04-15 23:50:00,71.4,55.4,30.06,NW,315,0.0,0.0,57,0.00,,---,0.00,VWS V14.01,2013-04-16 03:50:00,
2013-04-15 23:51:00,71.4,55.4,30.06,NW,315,0.0,0.0,57,0.00,,---,0.00,VWS V14.01,2013-04-16 03:51:00,
2013-04-15 23:52:00,71.4,55.4,30.06,NW,315,0.0,0.0,57,0.00,,---,0.00,VWS V14.01,2013-04-16 03:52:00,
2013-04-15 23:53:00,71.2,55.7,30.06,NW,315,0.0,0.0,58,0.00,,---,0.00,VWS V14.01,2013-04-16 03:53:00,
2013-04-15 23:54:00,71.2,55.2,30.06,NW,315,0.0,0.0,57,0.00,,---,0.00,VWS V14.01,2013-04-16 03:54:00,
2013-04-15 23:55:00,71.2,55.2,30.06,NW,315,0.0,0.0,57,0.00,,---,0.00,VWS V14.01,2013-04-16 03:55:00,
2013-04-15 23:56:00,71.2,55.2,30.06,NW,315,0.0,0.0,57,0.00,,---,0.00,VWS V14.01,2013-04-16 03:56:00,
2013-04-15 23:57:00,71.2,55.7,30.09,NW,315,0.0,0.0,58,0.00,,---,0.00,VWS V14.01,2013-04-16 03:57:00,
2013-04-15 23:58:00,70.9,55.4,30.09,NW,315,0.0,0.0,58,0.00,,---,0.00,VWS V14.01,2013-04-16 03:58:00,
2013-04-15 23:59:00,71.1,55.5,30.09,NW,315,0.0,0.0,58,0.00,,---,0.00,VWS V14.01,2013-04-16 03:59:00,